<?xml version="1.0" encoding="UTF-8" standalone="no" ?>
<gpx xmlns="http://www.topografix.com/GPX/1/1" xmlns:xsi="http://www.w3.org/2001/XMLSchema-instance" xsi:schemaLocation="http://www.topografix.com/GPX/1/1 http://www.topografix.com/GPX/1/1/gpx.xsd" version="1.1" creator="VisuGPX - https://www.visugpx.com">
  <metadata>
    <name>Compostelle : Le Puy en Velay - Conques (Etape 1/10: Le Puy ...</name>
  </metadata>
  <trk>
    <name><![CDATA[Compostelle : Le Puy en Velay - Conques (Etape 1/10: Le Puy ...]]></name>
    <trkseg>
      <trkpt lat="45.041" lon="3.88822">
        <ele>576.928</ele>
        <time>2013-06-11T05:42:04Z</time>
      </trkpt>
      <trkpt lat="45.04106" lon="3.88824">
        <ele>576.989</ele>
        <time>2013-06-11T05:42:12Z</time>
      </trkpt>
      <trkpt lat="45.04109" lon="3.88818">
        <ele>579.817</ele>
        <time>2013-06-11T05:42:23Z</time>
      </trkpt>
      <trkpt lat="45.04109" lon="3.88818">
        <ele>583.207</ele>
        <time>2013-06-11T05:42:25Z</time>
      </trkpt>
      <trkpt lat="45.04109" lon="3.88818">
        <ele>586.586</ele>
        <time>2013-06-11T05:42:27Z</time>
      </trkpt>
      <trkpt lat="45.04109" lon="3.88817">
        <ele>590.419</ele>
        <time>2013-06-11T05:42:29Z</time>
      </trkpt>
      <trkpt lat="45.04108" lon="3.8881">
        <ele>595.263</ele>
        <time>2013-06-11T05:42:33Z</time>
      </trkpt>
      <trkpt lat="45.04109" lon="3.8881">
        <ele>595.726</ele>
        <time>2013-06-11T05:42:34Z</time>
      </trkpt>
      <trkpt lat="45.04112" lon="3.8881">
        <ele>598.125</ele>
        <time>2013-06-11T05:42:37Z</time>
      </trkpt>
      <trkpt lat="45.04116" lon="3.88809">
        <ele>603.451</ele>
        <time>2013-06-11T05:42:42Z</time>
      </trkpt>
      <trkpt lat="45.04117" lon="3.88808">
        <ele>604.331</ele>
        <time>2013-06-11T05:42:43Z</time>
      </trkpt>
      <trkpt lat="45.04122" lon="3.88801">
        <ele>608.274</ele>
        <time>2013-06-11T05:42:50Z</time>
      </trkpt>
      <trkpt lat="45.04124" lon="3.888">
        <ele>609.656</ele>
        <time>2013-06-11T05:42:52Z</time>
      </trkpt>
      <trkpt lat="45.04126" lon="3.88795">
        <ele>613.021</ele>
        <time>2013-06-11T05:42:56Z</time>
      </trkpt>
      <trkpt lat="45.04126" lon="3.88794">
        <ele>613.007</ele>
        <time>2013-06-11T05:42:57Z</time>
      </trkpt>
      <trkpt lat="45.04128" lon="3.8879">
        <ele>613.931</ele>
        <time>2013-06-11T05:43:00Z</time>
      </trkpt>
      <trkpt lat="45.04131" lon="3.8878">
        <ele>617.874</ele>
        <time>2013-06-11T05:43:09Z</time>
      </trkpt>
      <trkpt lat="45.04131" lon="3.88778">
        <ele>617.818</ele>
        <time>2013-06-11T05:43:10Z</time>
      </trkpt>
      <trkpt lat="45.04135" lon="3.88764">
        <ele>620.781</ele>
        <time>2013-06-11T05:43:19Z</time>
      </trkpt>
      <trkpt lat="45.04141" lon="3.88752">
        <ele>622.15</ele>
        <time>2013-06-11T05:43:28Z</time>
      </trkpt>
      <trkpt lat="45.04151" lon="3.88744">
        <ele>622.626</ele>
        <time>2013-06-11T05:43:43Z</time>
      </trkpt>
      <trkpt lat="45.04159" lon="3.88741">
        <ele>625.566</ele>
        <time>2013-06-11T05:43:58Z</time>
      </trkpt>
      <trkpt lat="45.04178" lon="3.88721">
        <ele>627.449</ele>
        <time>2013-06-11T05:44:12Z</time>
      </trkpt>
      <trkpt lat="45.04183" lon="3.88693">
        <ele>627.902</ele>
        <time>2013-06-11T05:44:27Z</time>
      </trkpt>
      <trkpt lat="45.04187" lon="3.88679">
        <ele>628.822</ele>
        <time>2013-06-11T05:44:40Z</time>
      </trkpt>
      <trkpt lat="45.04189" lon="3.88664">
        <ele>628.407</ele>
        <time>2013-06-11T05:44:54Z</time>
      </trkpt>
      <trkpt lat="45.04191" lon="3.8866">
        <ele>629.328</ele>
        <time>2013-06-11T05:44:57Z</time>
      </trkpt>
      <trkpt lat="45.0418" lon="3.88642">
        <ele>627.931</ele>
        <time>2013-06-11T05:45:08Z</time>
      </trkpt>
      <trkpt lat="45.04164" lon="3.88624">
        <ele>627.985</ele>
        <time>2013-06-11T05:45:20Z</time>
      </trkpt>
      <trkpt lat="45.04164" lon="3.88613">
        <ele>628.448</ele>
        <time>2013-06-11T05:45:33Z</time>
      </trkpt>
      <trkpt lat="45.04169" lon="3.88602">
        <ele>628.877</ele>
        <time>2013-06-11T05:45:47Z</time>
      </trkpt>
      <trkpt lat="45.0417" lon="3.88594">
        <ele>629.353</ele>
        <time>2013-06-11T05:46:13Z</time>
      </trkpt>
      <trkpt lat="45.04168" lon="3.88575">
        <ele>629.323</ele>
        <time>2013-06-11T05:46:41Z</time>
      </trkpt>
      <trkpt lat="45.04176" lon="3.88556">
        <ele>629.369</ele>
        <time>2013-06-11T05:46:59Z</time>
      </trkpt>
      <trkpt lat="45.04198" lon="3.88558">
        <ele>629.304</ele>
        <time>2013-06-11T05:47:18Z</time>
      </trkpt>
      <trkpt lat="45.04203" lon="3.88556">
        <ele>629.324</ele>
        <time>2013-06-11T05:47:24Z</time>
      </trkpt>
      <trkpt lat="45.04208" lon="3.88545">
        <ele>628.807</ele>
        <time>2013-06-11T05:47:33Z</time>
      </trkpt>
      <trkpt lat="45.04219" lon="3.88548">
        <ele>628.81</ele>
        <time>2013-06-11T05:47:48Z</time>
      </trkpt>
      <trkpt lat="45.04237" lon="3.88553">
        <ele>629.343</ele>
        <time>2013-06-11T05:48:08Z</time>
      </trkpt>
      <trkpt lat="45.04243" lon="3.8855">
        <ele>629.387</ele>
        <time>2013-06-11T05:48:19Z</time>
      </trkpt>
      <trkpt lat="45.04264" lon="3.88548">
        <ele>630.39</ele>
        <time>2013-06-11T05:48:40Z</time>
      </trkpt>
      <trkpt lat="45.04271" lon="3.88546">
        <ele>630.339</ele>
        <time>2013-06-11T05:48:48Z</time>
      </trkpt>
      <trkpt lat="45.04285" lon="3.88545">
        <ele>630.885</ele>
        <time>2013-06-11T05:48:59Z</time>
      </trkpt>
      <trkpt lat="45.04286" lon="3.88533">
        <ele>631.285</ele>
        <time>2013-06-11T05:49:05Z</time>
      </trkpt>
      <trkpt lat="45.04287" lon="3.88521">
        <ele>630.894</ele>
        <time>2013-06-11T05:49:12Z</time>
      </trkpt>
      <trkpt lat="45.04285" lon="3.88517">
        <ele>630.857</ele>
        <time>2013-06-11T05:49:15Z</time>
      </trkpt>
      <trkpt lat="45.04276" lon="3.8851">
        <ele>630.822</ele>
        <time>2013-06-11T05:49:21Z</time>
      </trkpt>
      <trkpt lat="45.04281" lon="3.88488">
        <ele>631.707</ele>
        <time>2013-06-11T05:49:34Z</time>
      </trkpt>
      <trkpt lat="45.04281" lon="3.88487">
        <ele>630.833</ele>
        <time>2013-06-11T05:49:35Z</time>
      </trkpt>
      <trkpt lat="45.04285" lon="3.88477">
        <ele>631.736</ele>
        <time>2013-06-11T05:49:42Z</time>
      </trkpt>
      <trkpt lat="45.0429" lon="3.88463">
        <ele>631.22</ele>
        <time>2013-06-11T05:49:49Z</time>
      </trkpt>
      <trkpt lat="45.0429" lon="3.88457">
        <ele>631.223</ele>
        <time>2013-06-11T05:49:52Z</time>
      </trkpt>
      <trkpt lat="45.04292" lon="3.88442">
        <ele>631.792</ele>
        <time>2013-06-11T05:50:00Z</time>
      </trkpt>
      <trkpt lat="45.04298" lon="3.88424">
        <ele>631.798</ele>
        <time>2013-06-11T05:50:12Z</time>
      </trkpt>
      <trkpt lat="45.04297" lon="3.88414">
        <ele>631.778</ele>
        <time>2013-06-11T05:50:18Z</time>
      </trkpt>
      <trkpt lat="45.043" lon="3.88408">
        <ele>631.756</ele>
        <time>2013-06-11T05:50:23Z</time>
      </trkpt>
      <trkpt lat="45.04297" lon="3.88383">
        <ele>632.259</ele>
        <time>2013-06-11T05:50:36Z</time>
      </trkpt>
      <trkpt lat="45.04297" lon="3.88381">
        <ele>632.714</ele>
        <time>2013-06-11T05:50:37Z</time>
      </trkpt>
      <trkpt lat="45.04298" lon="3.88365">
        <ele>632.707</ele>
        <time>2013-06-11T05:50:50Z</time>
      </trkpt>
      <trkpt lat="45.04296" lon="3.88365">
        <ele>632.779</ele>
        <time>2013-06-11T05:50:52Z</time>
      </trkpt>
      <trkpt lat="45.04295" lon="3.88357">
        <ele>633.242</ele>
        <time>2013-06-11T05:50:56Z</time>
      </trkpt>
      <trkpt lat="45.04298" lon="3.88344">
        <ele>633.656</ele>
        <time>2013-06-11T05:51:01Z</time>
      </trkpt>
      <trkpt lat="45.04301" lon="3.8833">
        <ele>632.279</ele>
        <time>2013-06-11T05:51:08Z</time>
      </trkpt>
      <trkpt lat="45.04306" lon="3.88316">
        <ele>633.658</ele>
        <time>2013-06-11T05:51:15Z</time>
      </trkpt>
      <trkpt lat="45.04302" lon="3.88297">
        <ele>632.784</ele>
        <time>2013-06-11T05:51:30Z</time>
      </trkpt>
      <trkpt lat="45.04305" lon="3.88287">
        <ele>635.154</ele>
        <time>2013-06-11T05:51:37Z</time>
      </trkpt>
      <trkpt lat="45.04311" lon="3.88277">
        <ele>635.665</ele>
        <time>2013-06-11T05:51:46Z</time>
      </trkpt>
      <trkpt lat="45.04313" lon="3.88276">
        <ele>636.068</ele>
        <time>2013-06-11T05:51:48Z</time>
      </trkpt>
      <trkpt lat="45.04315" lon="3.88254">
        <ele>636.514</ele>
        <time>2013-06-11T05:52:02Z</time>
      </trkpt>
      <trkpt lat="45.04311" lon="3.88249">
        <ele>637.507</ele>
        <time>2013-06-11T05:52:15Z</time>
      </trkpt>
      <trkpt lat="45.0431" lon="3.88249">
        <ele>637.53</ele>
        <time>2013-06-11T05:52:28Z</time>
      </trkpt>
      <trkpt lat="45.04311" lon="3.88244">
        <ele>637.033</ele>
        <time>2013-06-11T05:52:33Z</time>
      </trkpt>
      <trkpt lat="45.04319" lon="3.8824">
        <ele>636.077</ele>
        <time>2013-06-11T05:52:41Z</time>
      </trkpt>
      <trkpt lat="45.04323" lon="3.88238">
        <ele>638.04</ele>
        <time>2013-06-11T05:52:46Z</time>
      </trkpt>
      <trkpt lat="45.04323" lon="3.88213">
        <ele>638.599</ele>
        <time>2013-06-11T05:53:10Z</time>
      </trkpt>
      <trkpt lat="45.04319" lon="3.88197">
        <ele>638.935</ele>
        <time>2013-06-11T05:53:35Z</time>
      </trkpt>
      <trkpt lat="45.04312" lon="3.88192">
        <ele>639.475</ele>
        <time>2013-06-11T05:54:01Z</time>
      </trkpt>
      <trkpt lat="45.0431" lon="3.88176">
        <ele>638.965</ele>
        <time>2013-06-11T05:54:25Z</time>
      </trkpt>
      <trkpt lat="45.0431" lon="3.88162">
        <ele>639.468</ele>
        <time>2013-06-11T05:54:33Z</time>
      </trkpt>
      <trkpt lat="45.04307" lon="3.88155">
        <ele>638.914</ele>
        <time>2013-06-11T05:54:37Z</time>
      </trkpt>
      <trkpt lat="45.04307" lon="3.88147">
        <ele>639.407</ele>
        <time>2013-06-11T05:54:42Z</time>
      </trkpt>
      <trkpt lat="45.04309" lon="3.88138">
        <ele>639.43</ele>
        <time>2013-06-11T05:54:47Z</time>
      </trkpt>
      <trkpt lat="45.04308" lon="3.8813">
        <ele>640.433</ele>
        <time>2013-06-11T05:54:53Z</time>
      </trkpt>
      <trkpt lat="45.04307" lon="3.88125">
        <ele>638.927</ele>
        <time>2013-06-11T05:54:56Z</time>
      </trkpt>
      <trkpt lat="45.04306" lon="3.8812">
        <ele>639.46</ele>
        <time>2013-06-11T05:55:00Z</time>
      </trkpt>
      <trkpt lat="45.04308" lon="3.88101">
        <ele>639.929</ele>
        <time>2013-06-11T05:55:13Z</time>
      </trkpt>
      <trkpt lat="45.04308" lon="3.88093">
        <ele>639.935</ele>
        <time>2013-06-11T05:55:18Z</time>
      </trkpt>
      <trkpt lat="45.04307" lon="3.8809">
        <ele>640.425</ele>
        <time>2013-06-11T05:55:20Z</time>
      </trkpt>
      <trkpt lat="45.04306" lon="3.88087">
        <ele>640.916</ele>
        <time>2013-06-11T05:55:23Z</time>
      </trkpt>
      <trkpt lat="45.04305" lon="3.88084">
        <ele>641.376</ele>
        <time>2013-06-11T05:55:25Z</time>
      </trkpt>
      <trkpt lat="45.043" lon="3.88064">
        <ele>641.813</ele>
        <time>2013-06-11T05:55:40Z</time>
      </trkpt>
      <trkpt lat="45.04296" lon="3.88055">
        <ele>642.807</ele>
        <time>2013-06-11T05:55:59Z</time>
      </trkpt>
      <trkpt lat="45.04294" lon="3.88053">
        <ele>643.335</ele>
        <time>2013-06-11T05:56:04Z</time>
      </trkpt>
      <trkpt lat="45.04294" lon="3.88036">
        <ele>642.848</ele>
        <time>2013-06-11T05:56:17Z</time>
      </trkpt>
      <trkpt lat="45.04296" lon="3.88035">
        <ele>643.762</ele>
        <time>2013-06-11T05:56:19Z</time>
      </trkpt>
      <trkpt lat="45.043" lon="3.88027">
        <ele>643.775</ele>
        <time>2013-06-11T05:56:24Z</time>
      </trkpt>
      <trkpt lat="45.043" lon="3.88016">
        <ele>644.214</ele>
        <time>2013-06-11T05:56:29Z</time>
      </trkpt>
      <trkpt lat="45.04298" lon="3.88004">
        <ele>644.25</ele>
        <time>2013-06-11T05:56:37Z</time>
      </trkpt>
      <trkpt lat="45.04298" lon="3.87988">
        <ele>645.76</ele>
        <time>2013-06-11T05:56:47Z</time>
      </trkpt>
      <trkpt lat="45.04297" lon="3.87982">
        <ele>646.146</ele>
        <time>2013-06-11T05:56:51Z</time>
      </trkpt>
      <trkpt lat="45.04297" lon="3.87979">
        <ele>645.288</ele>
        <time>2013-06-11T05:56:53Z</time>
      </trkpt>
      <trkpt lat="45.04293" lon="3.87958">
        <ele>647.616</ele>
        <time>2013-06-11T05:57:09Z</time>
      </trkpt>
      <trkpt lat="45.04294" lon="3.87949">
        <ele>647.607</ele>
        <time>2013-06-11T05:57:15Z</time>
      </trkpt>
      <trkpt lat="45.04292" lon="3.87935">
        <ele>648.148</ele>
        <time>2013-06-11T05:57:25Z</time>
      </trkpt>
      <trkpt lat="45.04292" lon="3.8793">
        <ele>648.571</ele>
        <time>2013-06-11T05:57:29Z</time>
      </trkpt>
      <trkpt lat="45.04279" lon="3.87908">
        <ele>650.075</ele>
        <time>2013-06-11T05:57:47Z</time>
      </trkpt>
      <trkpt lat="45.04266" lon="3.87891">
        <ele>651.478</ele>
        <time>2013-06-11T05:58:06Z</time>
      </trkpt>
      <trkpt lat="45.04264" lon="3.87887">
        <ele>652.457</ele>
        <time>2013-06-11T05:58:10Z</time>
      </trkpt>
      <trkpt lat="45.04258" lon="3.87862">
        <ele>654.383</ele>
        <time>2013-06-11T05:58:30Z</time>
      </trkpt>
      <trkpt lat="45.04254" lon="3.87845">
        <ele>655.823</ele>
        <time>2013-06-11T05:58:47Z</time>
      </trkpt>
      <trkpt lat="45.0424" lon="3.87818">
        <ele>658.649</ele>
        <time>2013-06-11T05:59:13Z</time>
      </trkpt>
      <trkpt lat="45.04231" lon="3.87798">
        <ele>660.102</ele>
        <time>2013-06-11T05:59:34Z</time>
      </trkpt>
      <trkpt lat="45.04219" lon="3.87774">
        <ele>662.522</ele>
        <time>2013-06-11T06:00:00Z</time>
      </trkpt>
      <trkpt lat="45.0421" lon="3.87747">
        <ele>664.907</ele>
        <time>2013-06-11T06:00:26Z</time>
      </trkpt>
      <trkpt lat="45.04209" lon="3.87746">
        <ele>665.438</ele>
        <time>2013-06-11T06:00:27Z</time>
      </trkpt>
      <trkpt lat="45.04201" lon="3.87732">
        <ele>666.881</ele>
        <time>2013-06-11T06:00:43Z</time>
      </trkpt>
      <trkpt lat="45.04189" lon="3.87708">
        <ele>669.215</ele>
        <time>2013-06-11T06:01:08Z</time>
      </trkpt>
      <trkpt lat="45.04187" lon="3.87695">
        <ele>670.268</ele>
        <time>2013-06-11T06:01:20Z</time>
      </trkpt>
      <trkpt lat="45.04178" lon="3.87682">
        <ele>671.647</ele>
        <time>2013-06-11T06:01:35Z</time>
      </trkpt>
      <trkpt lat="45.04169" lon="3.87667">
        <ele>673.553</ele>
        <time>2013-06-11T06:01:50Z</time>
      </trkpt>
      <trkpt lat="45.04156" lon="3.87648">
        <ele>676.463</ele>
        <time>2013-06-11T06:02:12Z</time>
      </trkpt>
      <trkpt lat="45.04144" lon="3.87631">
        <ele>679.317</ele>
        <time>2013-06-11T06:02:35Z</time>
      </trkpt>
      <trkpt lat="45.04137" lon="3.87619">
        <ele>680.887</ele>
        <time>2013-06-11T06:02:51Z</time>
      </trkpt>
      <trkpt lat="45.04135" lon="3.87607">
        <ele>681.215</ele>
        <time>2013-06-11T06:03:03Z</time>
      </trkpt>
      <trkpt lat="45.04148" lon="3.87591">
        <ele>683.607</ele>
        <time>2013-06-11T06:03:21Z</time>
      </trkpt>
      <trkpt lat="45.04156" lon="3.87585">
        <ele>684.145</ele>
        <time>2013-06-11T06:03:35Z</time>
      </trkpt>
      <trkpt lat="45.04164" lon="3.87583">
        <ele>686.028</ele>
        <time>2013-06-11T06:03:45Z</time>
      </trkpt>
      <trkpt lat="45.04178" lon="3.87575">
        <ele>687.082</ele>
        <time>2013-06-11T06:04:03Z</time>
      </trkpt>
      <trkpt lat="45.04185" lon="3.87567">
        <ele>688.095</ele>
        <time>2013-06-11T06:04:19Z</time>
      </trkpt>
      <trkpt lat="45.04187" lon="3.8757">
        <ele>688.434</ele>
        <time>2013-06-11T06:04:42Z</time>
      </trkpt>
      <trkpt lat="45.04188" lon="3.87572">
        <ele>688.46</ele>
        <time>2013-06-11T06:05:07Z</time>
      </trkpt>
      <trkpt lat="45.04188" lon="3.87573">
        <ele>688.08</ele>
        <time>2013-06-11T06:05:59Z</time>
      </trkpt>
      <trkpt lat="45.04189" lon="3.87573">
        <ele>688.427</ele>
        <time>2013-06-11T06:06:25Z</time>
      </trkpt>
      <trkpt lat="45.04188" lon="3.87564">
        <ele>688.968</ele>
        <time>2013-06-11T06:06:35Z</time>
      </trkpt>
      <trkpt lat="45.04184" lon="3.87545">
        <ele>691.314</ele>
        <time>2013-06-11T06:06:52Z</time>
      </trkpt>
      <trkpt lat="45.0418" lon="3.87522">
        <ele>693.207</ele>
        <time>2013-06-11T06:07:12Z</time>
      </trkpt>
      <trkpt lat="45.04176" lon="3.87496">
        <ele>695.246</ele>
        <time>2013-06-11T06:07:32Z</time>
      </trkpt>
      <trkpt lat="45.04171" lon="3.87469">
        <ele>697.679</ele>
        <time>2013-06-11T06:07:52Z</time>
      </trkpt>
      <trkpt lat="45.04168" lon="3.87459">
        <ele>699.033</ele>
        <time>2013-06-11T06:08:08Z</time>
      </trkpt>
      <trkpt lat="45.04157" lon="3.87438">
        <ele>700.916</ele>
        <time>2013-06-11T06:08:29Z</time>
      </trkpt>
      <trkpt lat="45.04145" lon="3.87415">
        <ele>703.325</ele>
        <time>2013-06-11T06:08:50Z</time>
      </trkpt>
      <trkpt lat="45.04135" lon="3.87389">
        <ele>706.711</ele>
        <time>2013-06-11T06:09:13Z</time>
      </trkpt>
      <trkpt lat="45.04126" lon="3.87375">
        <ele>708.161</ele>
        <time>2013-06-11T06:09:30Z</time>
      </trkpt>
      <trkpt lat="45.04122" lon="3.87362">
        <ele>709.114</ele>
        <time>2013-06-11T06:09:46Z</time>
      </trkpt>
      <trkpt lat="45.04116" lon="3.87347">
        <ele>710.154</ele>
        <time>2013-06-11T06:10:04Z</time>
      </trkpt>
      <trkpt lat="45.04109" lon="3.87331">
        <ele>712.009</ele>
        <time>2013-06-11T06:10:22Z</time>
      </trkpt>
      <trkpt lat="45.04102" lon="3.87313">
        <ele>713.907</ele>
        <time>2013-06-11T06:10:40Z</time>
      </trkpt>
      <trkpt lat="45.04093" lon="3.87305">
        <ele>715.465</ele>
        <time>2013-06-11T06:10:59Z</time>
      </trkpt>
      <trkpt lat="45.04087" lon="3.87306">
        <ele>715.498</ele>
        <time>2013-06-11T06:11:15Z</time>
      </trkpt>
      <trkpt lat="45.04083" lon="3.87309">
        <ele>716.342</ele>
        <time>2013-06-11T06:11:46Z</time>
      </trkpt>
      <trkpt lat="45.04082" lon="3.8731">
        <ele>716.875</ele>
        <time>2013-06-11T06:12:24Z</time>
      </trkpt>
      <trkpt lat="45.04082" lon="3.8731">
        <ele>716.874</ele>
        <time>2013-06-11T06:12:57Z</time>
      </trkpt>
      <trkpt lat="45.04076" lon="3.87326">
        <ele>717.83</ele>
        <time>2013-06-11T06:13:12Z</time>
      </trkpt>
      <trkpt lat="45.04073" lon="3.87342">
        <ele>719.27</ele>
        <time>2013-06-11T06:13:25Z</time>
      </trkpt>
      <trkpt lat="45.04066" lon="3.87358">
        <ele>721.663</ele>
        <time>2013-06-11T06:13:41Z</time>
      </trkpt>
      <trkpt lat="45.04058" lon="3.87373">
        <ele>722.644</ele>
        <time>2013-06-11T06:14:01Z</time>
      </trkpt>
      <trkpt lat="45.04048" lon="3.87388">
        <ele>724.518</ele>
        <time>2013-06-11T06:14:35Z</time>
      </trkpt>
      <trkpt lat="45.04048" lon="3.8739">
        <ele>724.007</ele>
        <time>2013-06-11T06:14:53Z</time>
      </trkpt>
      <trkpt lat="45.04043" lon="3.87396">
        <ele>725.57</ele>
        <time>2013-06-11T06:15:23Z</time>
      </trkpt>
      <trkpt lat="45.04035" lon="3.87407">
        <ele>726.913</ele>
        <time>2013-06-11T06:15:34Z</time>
      </trkpt>
      <trkpt lat="45.04023" lon="3.87406">
        <ele>728.337</ele>
        <time>2013-06-11T06:15:49Z</time>
      </trkpt>
      <trkpt lat="45.04016" lon="3.87385">
        <ele>730.73</ele>
        <time>2013-06-11T06:16:08Z</time>
      </trkpt>
      <trkpt lat="45.04015" lon="3.87358">
        <ele>732.269</ele>
        <time>2013-06-11T06:16:30Z</time>
      </trkpt>
      <trkpt lat="45.04015" lon="3.87342">
        <ele>734.185</ele>
        <time>2013-06-11T06:16:45Z</time>
      </trkpt>
      <trkpt lat="45.04013" lon="3.87324">
        <ele>735.155</ele>
        <time>2013-06-11T06:17:00Z</time>
      </trkpt>
      <trkpt lat="45.04004" lon="3.87293">
        <ele>737.028</ele>
        <time>2013-06-11T06:17:27Z</time>
      </trkpt>
      <trkpt lat="45.03997" lon="3.87277">
        <ele>739.489</ele>
        <time>2013-06-11T06:17:44Z</time>
      </trkpt>
      <trkpt lat="45.03987" lon="3.87263">
        <ele>741.317</ele>
        <time>2013-06-11T06:18:02Z</time>
      </trkpt>
      <trkpt lat="45.03976" lon="3.87254">
        <ele>742.807</ele>
        <time>2013-06-11T06:18:19Z</time>
      </trkpt>
      <trkpt lat="45.03964" lon="3.87242">
        <ele>744.756</ele>
        <time>2013-06-11T06:18:38Z</time>
      </trkpt>
      <trkpt lat="45.0395" lon="3.87235">
        <ele>746.159</ele>
        <time>2013-06-11T06:18:58Z</time>
      </trkpt>
      <trkpt lat="45.03939" lon="3.87229">
        <ele>748.073</ele>
        <time>2013-06-11T06:19:16Z</time>
      </trkpt>
      <trkpt lat="45.03931" lon="3.87227">
        <ele>749.026</ele>
        <time>2013-06-11T06:19:36Z</time>
      </trkpt>
      <trkpt lat="45.03927" lon="3.87227">
        <ele>750.025</ele>
        <time>2013-06-11T06:19:42Z</time>
      </trkpt>
      <trkpt lat="45.03908" lon="3.8722">
        <ele>752.441</ele>
        <time>2013-06-11T06:20:02Z</time>
      </trkpt>
      <trkpt lat="45.03903" lon="3.87221">
        <ele>752.891</ele>
        <time>2013-06-11T06:20:07Z</time>
      </trkpt>
      <trkpt lat="45.03887" lon="3.87219">
        <ele>755.345</ele>
        <time>2013-06-11T06:20:26Z</time>
      </trkpt>
      <trkpt lat="45.03869" lon="3.87222">
        <ele>756.247</ele>
        <time>2013-06-11T06:20:50Z</time>
      </trkpt>
      <trkpt lat="45.03863" lon="3.87225">
        <ele>759.111</ele>
        <time>2013-06-11T06:21:01Z</time>
      </trkpt>
      <trkpt lat="45.03858" lon="3.87228">
        <ele>759.107</ele>
        <time>2013-06-11T06:21:26Z</time>
      </trkpt>
      <trkpt lat="45.03858" lon="3.87231">
        <ele>759.148</ele>
        <time>2013-06-11T06:22:08Z</time>
      </trkpt>
      <trkpt lat="45.03858" lon="3.87232">
        <ele>758.671</ele>
        <time>2013-06-11T06:25:05Z</time>
      </trkpt>
      <trkpt lat="45.03857" lon="3.87232">
        <ele>758.615</ele>
        <time>2013-06-11T06:27:16Z</time>
      </trkpt>
      <trkpt lat="45.03855" lon="3.87229">
        <ele>758.648</ele>
        <time>2013-06-11T06:27:36Z</time>
      </trkpt>
      <trkpt lat="45.03848" lon="3.87219">
        <ele>759.177</ele>
        <time>2013-06-11T06:27:52Z</time>
      </trkpt>
      <trkpt lat="45.03838" lon="3.87208">
        <ele>760.133</ele>
        <time>2013-06-11T06:28:07Z</time>
      </trkpt>
      <trkpt lat="45.03825" lon="3.87193">
        <ele>762.033</ele>
        <time>2013-06-11T06:28:25Z</time>
      </trkpt>
      <trkpt lat="45.03814" lon="3.87175">
        <ele>763.996</ele>
        <time>2013-06-11T06:28:44Z</time>
      </trkpt>
      <trkpt lat="45.03797" lon="3.87146">
        <ele>765.831</ele>
        <time>2013-06-11T06:29:10Z</time>
      </trkpt>
      <trkpt lat="45.03786" lon="3.87127">
        <ele>765.824</ele>
        <time>2013-06-11T06:29:28Z</time>
      </trkpt>
      <trkpt lat="45.0378" lon="3.87114">
        <ele>766.307</ele>
        <time>2013-06-11T06:29:50Z</time>
      </trkpt>
      <trkpt lat="45.03771" lon="3.87095">
        <ele>766.863</ele>
        <time>2013-06-11T06:30:07Z</time>
      </trkpt>
      <trkpt lat="45.0376" lon="3.87068">
        <ele>768.216</ele>
        <time>2013-06-11T06:30:27Z</time>
      </trkpt>
      <trkpt lat="45.03755" lon="3.87058">
        <ele>768.26</ele>
        <time>2013-06-11T06:30:41Z</time>
      </trkpt>
      <trkpt lat="45.03753" lon="3.87052">
        <ele>769.233</ele>
        <time>2013-06-11T06:30:48Z</time>
      </trkpt>
      <trkpt lat="45.03744" lon="3.87027">
        <ele>769.272</ele>
        <time>2013-06-11T06:31:09Z</time>
      </trkpt>
      <trkpt lat="45.03731" lon="3.87007">
        <ele>770.258</ele>
        <time>2013-06-11T06:31:29Z</time>
      </trkpt>
      <trkpt lat="45.03725" lon="3.87">
        <ele>770.648</ele>
        <time>2013-06-11T06:31:36Z</time>
      </trkpt>
      <trkpt lat="45.03722" lon="3.86997">
        <ele>770.667</ele>
        <time>2013-06-11T06:31:39Z</time>
      </trkpt>
      <trkpt lat="45.03702" lon="3.86971">
        <ele>771.181</ele>
        <time>2013-06-11T06:32:05Z</time>
      </trkpt>
      <trkpt lat="45.0368" lon="3.86947">
        <ele>771.619</ele>
        <time>2013-06-11T06:32:28Z</time>
      </trkpt>
      <trkpt lat="45.03665" lon="3.86936">
        <ele>771.607</ele>
        <time>2013-06-11T06:32:44Z</time>
      </trkpt>
      <trkpt lat="45.03652" lon="3.86926">
        <ele>770.62</ele>
        <time>2013-06-11T06:32:57Z</time>
      </trkpt>
      <trkpt lat="45.03637" lon="3.86915">
        <ele>771.133</ele>
        <time>2013-06-11T06:33:13Z</time>
      </trkpt>
      <trkpt lat="45.03616" lon="3.86899">
        <ele>770.257</ele>
        <time>2013-06-11T06:33:34Z</time>
      </trkpt>
      <trkpt lat="45.03597" lon="3.86883">
        <ele>768.21</ele>
        <time>2013-06-11T06:33:55Z</time>
      </trkpt>
      <trkpt lat="45.03593" lon="3.8688">
        <ele>768.249</ele>
        <time>2013-06-11T06:33:59Z</time>
      </trkpt>
      <trkpt lat="45.03589" lon="3.86877">
        <ele>767.825</ele>
        <time>2013-06-11T06:34:03Z</time>
      </trkpt>
      <trkpt lat="45.03565" lon="3.86857">
        <ele>766.815</ele>
        <time>2013-06-11T06:34:27Z</time>
      </trkpt>
      <trkpt lat="45.03552" lon="3.86846">
        <ele>766.396</ele>
        <time>2013-06-11T06:34:41Z</time>
      </trkpt>
      <trkpt lat="45.03543" lon="3.86837">
        <ele>766.831</ele>
        <time>2013-06-11T06:34:51Z</time>
      </trkpt>
      <trkpt lat="45.0353" lon="3.8683">
        <ele>765.824</ele>
        <time>2013-06-11T06:35:06Z</time>
      </trkpt>
      <trkpt lat="45.03515" lon="3.86816">
        <ele>765.307</ele>
        <time>2013-06-11T06:35:23Z</time>
      </trkpt>
      <trkpt lat="45.035" lon="3.86801">
        <ele>765.393</ele>
        <time>2013-06-11T06:35:41Z</time>
      </trkpt>
      <trkpt lat="45.03499" lon="3.868">
        <ele>765.396</ele>
        <time>2013-06-11T06:35:43Z</time>
      </trkpt>
      <trkpt lat="45.03479" lon="3.86781">
        <ele>764.43</ele>
        <time>2013-06-11T06:36:04Z</time>
      </trkpt>
      <trkpt lat="45.03454" lon="3.86767">
        <ele>763.933</ele>
        <time>2013-06-11T06:36:26Z</time>
      </trkpt>
      <trkpt lat="45.03434" lon="3.8675">
        <ele>763.482</ele>
        <time>2013-06-11T06:36:46Z</time>
      </trkpt>
      <trkpt lat="45.03413" lon="3.86737">
        <ele>762.948</ele>
        <time>2013-06-11T06:37:06Z</time>
      </trkpt>
      <trkpt lat="45.03412" lon="3.86735">
        <ele>762.958</ele>
        <time>2013-06-11T06:37:08Z</time>
      </trkpt>
      <trkpt lat="45.03407" lon="3.86734">
        <ele>762.955</ele>
        <time>2013-06-11T06:37:12Z</time>
      </trkpt>
      <trkpt lat="45.034" lon="3.86728">
        <ele>762.907</ele>
        <time>2013-06-11T06:37:19Z</time>
      </trkpt>
      <trkpt lat="45.03378" lon="3.86719">
        <ele>762.517</ele>
        <time>2013-06-11T06:37:39Z</time>
      </trkpt>
      <trkpt lat="45.03351" lon="3.86704">
        <ele>762.907</ele>
        <time>2013-06-11T06:38:04Z</time>
      </trkpt>
      <trkpt lat="45.03327" lon="3.86691">
        <ele>762.539</ele>
        <time>2013-06-11T06:38:26Z</time>
      </trkpt>
      <trkpt lat="45.03305" lon="3.86681">
        <ele>762.582</ele>
        <time>2013-06-11T06:38:46Z</time>
      </trkpt>
      <trkpt lat="45.03284" lon="3.86672">
        <ele>762.046</ele>
        <time>2013-06-11T06:39:06Z</time>
      </trkpt>
      <trkpt lat="45.03274" lon="3.86667">
        <ele>761.559</ele>
        <time>2013-06-11T06:39:15Z</time>
      </trkpt>
      <trkpt lat="45.03269" lon="3.86666">
        <ele>761.598</ele>
        <time>2013-06-11T06:39:20Z</time>
      </trkpt>
      <trkpt lat="45.03249" lon="3.86651">
        <ele>761.554</ele>
        <time>2013-06-11T06:39:40Z</time>
      </trkpt>
      <trkpt lat="45.03233" lon="3.86625">
        <ele>761.514</ele>
        <time>2013-06-11T06:40:01Z</time>
      </trkpt>
      <trkpt lat="45.03218" lon="3.86593">
        <ele>762.593</ele>
        <time>2013-06-11T06:40:25Z</time>
      </trkpt>
      <trkpt lat="45.03203" lon="3.86562">
        <ele>761.565</ele>
        <time>2013-06-11T06:40:48Z</time>
      </trkpt>
      <trkpt lat="45.03188" lon="3.86541">
        <ele>762.521</ele>
        <time>2013-06-11T06:41:08Z</time>
      </trkpt>
      <trkpt lat="45.03169" lon="3.86516">
        <ele>762.907</ele>
        <time>2013-06-11T06:41:32Z</time>
      </trkpt>
      <trkpt lat="45.03149" lon="3.86492">
        <ele>764.943</ele>
        <time>2013-06-11T06:41:57Z</time>
      </trkpt>
      <trkpt lat="45.03132" lon="3.86473">
        <ele>766.396</ele>
        <time>2013-06-11T06:42:19Z</time>
      </trkpt>
      <trkpt lat="45.03125" lon="3.86464">
        <ele>767.31</ele>
        <time>2013-06-11T06:42:38Z</time>
      </trkpt>
      <trkpt lat="45.03121" lon="3.86459">
        <ele>768.253</ele>
        <time>2013-06-11T06:42:55Z</time>
      </trkpt>
      <trkpt lat="45.03116" lon="3.86447">
        <ele>768.242</ele>
        <time>2013-06-11T06:43:10Z</time>
      </trkpt>
      <trkpt lat="45.03106" lon="3.86431">
        <ele>769.298</ele>
        <time>2013-06-11T06:43:28Z</time>
      </trkpt>
      <trkpt lat="45.03094" lon="3.86413">
        <ele>769.758</ele>
        <time>2013-06-11T06:43:47Z</time>
      </trkpt>
      <trkpt lat="45.03088" lon="3.86403">
        <ele>769.778</ele>
        <time>2013-06-11T06:43:57Z</time>
      </trkpt>
      <trkpt lat="45.03078" lon="3.86386">
        <ele>770.233</ele>
        <time>2013-06-11T06:44:13Z</time>
      </trkpt>
      <trkpt lat="45.03077" lon="3.86384">
        <ele>769.726</ele>
        <time>2013-06-11T06:44:15Z</time>
      </trkpt>
      <trkpt lat="45.03062" lon="3.86364">
        <ele>770.607</ele>
        <time>2013-06-11T06:44:36Z</time>
      </trkpt>
      <trkpt lat="45.03057" lon="3.86359">
        <ele>770.651</ele>
        <time>2013-06-11T06:44:48Z</time>
      </trkpt>
      <trkpt lat="45.03049" lon="3.86346">
        <ele>771.184</ele>
        <time>2013-06-11T06:45:04Z</time>
      </trkpt>
      <trkpt lat="45.03039" lon="3.86335">
        <ele>771.688</ele>
        <time>2013-06-11T06:45:21Z</time>
      </trkpt>
      <trkpt lat="45.03026" lon="3.86318">
        <ele>771.651</ele>
        <time>2013-06-11T06:45:41Z</time>
      </trkpt>
      <trkpt lat="45.03012" lon="3.86291">
        <ele>771.62</ele>
        <time>2013-06-11T06:46:02Z</time>
      </trkpt>
      <trkpt lat="45.02997" lon="3.8626">
        <ele>773.056</ele>
        <time>2013-06-11T06:46:26Z</time>
      </trkpt>
      <trkpt lat="45.02987" lon="3.86234">
        <ele>773.516</ele>
        <time>2013-06-11T06:46:46Z</time>
      </trkpt>
      <trkpt lat="45.02984" lon="3.86227">
        <ele>773.515</ele>
        <time>2013-06-11T06:46:51Z</time>
      </trkpt>
      <trkpt lat="45.02975" lon="3.86208">
        <ele>775.065</ele>
        <time>2013-06-11T06:47:06Z</time>
      </trkpt>
      <trkpt lat="45.02967" lon="3.86176">
        <ele>775.411</ele>
        <time>2013-06-11T06:47:29Z</time>
      </trkpt>
      <trkpt lat="45.02955" lon="3.86149">
        <ele>776.407</ele>
        <time>2013-06-11T06:47:51Z</time>
      </trkpt>
      <trkpt lat="45.02949" lon="3.86136">
        <ele>776.455</ele>
        <time>2013-06-11T06:48:01Z</time>
      </trkpt>
      <trkpt lat="45.02937" lon="3.86107">
        <ele>778.368</ele>
        <time>2013-06-11T06:48:25Z</time>
      </trkpt>
      <trkpt lat="45.02924" lon="3.86078">
        <ele>779.332</ele>
        <time>2013-06-11T06:48:50Z</time>
      </trkpt>
      <trkpt lat="45.0292" lon="3.86069">
        <ele>779.375</ele>
        <time>2013-06-11T06:48:59Z</time>
      </trkpt>
      <trkpt lat="45.02914" lon="3.86045">
        <ele>780.284</ele>
        <time>2013-06-11T06:49:16Z</time>
      </trkpt>
      <trkpt lat="45.02907" lon="3.86027">
        <ele>780.73</ele>
        <time>2013-06-11T06:49:36Z</time>
      </trkpt>
      <trkpt lat="45.02907" lon="3.86025">
        <ele>781.74</ele>
        <time>2013-06-11T06:49:40Z</time>
      </trkpt>
      <trkpt lat="45.02904" lon="3.86016">
        <ele>781.715</ele>
        <time>2013-06-11T06:49:59Z</time>
      </trkpt>
      <trkpt lat="45.02903" lon="3.86013">
        <ele>781.765</ele>
        <time>2013-06-11T06:50:21Z</time>
      </trkpt>
      <trkpt lat="45.02891" lon="3.8598">
        <ele>784.111</ele>
        <time>2013-06-11T06:50:45Z</time>
      </trkpt>
      <trkpt lat="45.0288" lon="3.85952">
        <ele>785.507</ele>
        <time>2013-06-11T06:51:07Z</time>
      </trkpt>
      <trkpt lat="45.02871" lon="3.85925">
        <ele>787.085</ele>
        <time>2013-06-11T06:51:29Z</time>
      </trkpt>
      <trkpt lat="45.02863" lon="3.85898">
        <ele>789.468</ele>
        <time>2013-06-11T06:51:52Z</time>
      </trkpt>
      <trkpt lat="45.02863" lon="3.85875">
        <ele>791.822</ele>
        <time>2013-06-11T06:52:12Z</time>
      </trkpt>
      <trkpt lat="45.02874" lon="3.85855">
        <ele>793.245</ele>
        <time>2013-06-11T06:52:32Z</time>
      </trkpt>
      <trkpt lat="45.0287" lon="3.8583">
        <ele>794.754</ele>
        <time>2013-06-11T06:52:55Z</time>
      </trkpt>
      <trkpt lat="45.02861" lon="3.85808">
        <ele>796.12</ele>
        <time>2013-06-11T06:53:16Z</time>
      </trkpt>
      <trkpt lat="45.02848" lon="3.85776">
        <ele>799.05</ele>
        <time>2013-06-11T06:53:46Z</time>
      </trkpt>
      <trkpt lat="45.02847" lon="3.85773">
        <ele>799.519</ele>
        <time>2013-06-11T06:53:49Z</time>
      </trkpt>
      <trkpt lat="45.0284" lon="3.85752">
        <ele>800.909</ele>
        <time>2013-06-11T06:54:09Z</time>
      </trkpt>
      <trkpt lat="45.0283" lon="3.85728">
        <ele>803.319</ele>
        <time>2013-06-11T06:54:34Z</time>
      </trkpt>
      <trkpt lat="45.02827" lon="3.85721">
        <ele>803.807</ele>
        <time>2013-06-11T06:54:49Z</time>
      </trkpt>
      <trkpt lat="45.02825" lon="3.85719">
        <ele>804.385</ele>
        <time>2013-06-11T06:55:16Z</time>
      </trkpt>
      <trkpt lat="45.02809" lon="3.85696">
        <ele>806.218</ele>
        <time>2013-06-11T06:55:38Z</time>
      </trkpt>
      <trkpt lat="45.02797" lon="3.85678">
        <ele>808.682</ele>
        <time>2013-06-11T06:55:57Z</time>
      </trkpt>
      <trkpt lat="45.02786" lon="3.85668">
        <ele>809.125</ele>
        <time>2013-06-11T06:56:11Z</time>
      </trkpt>
      <trkpt lat="45.02783" lon="3.85662">
        <ele>809.614</ele>
        <time>2013-06-11T06:56:16Z</time>
      </trkpt>
      <trkpt lat="45.02771" lon="3.8564">
        <ele>811.53</ele>
        <time>2013-06-11T06:56:37Z</time>
      </trkpt>
      <trkpt lat="45.02762" lon="3.85616">
        <ele>814.45</ele>
        <time>2013-06-11T06:56:58Z</time>
      </trkpt>
      <trkpt lat="45.02753" lon="3.85592">
        <ele>815.846</ele>
        <time>2013-06-11T06:57:20Z</time>
      </trkpt>
      <trkpt lat="45.02744" lon="3.85568">
        <ele>817.788</ele>
        <time>2013-06-11T06:57:40Z</time>
      </trkpt>
      <trkpt lat="45.02731" lon="3.8554">
        <ele>819.216</ele>
        <time>2013-06-11T06:58:07Z</time>
      </trkpt>
      <trkpt lat="45.02721" lon="3.85519">
        <ele>821.607</ele>
        <time>2013-06-11T06:58:27Z</time>
      </trkpt>
      <trkpt lat="45.02716" lon="3.85505">
        <ele>821.178</ele>
        <time>2013-06-11T06:58:39Z</time>
      </trkpt>
      <trkpt lat="45.02716" lon="3.85503">
        <ele>822.141</ele>
        <time>2013-06-11T06:58:41Z</time>
      </trkpt>
      <trkpt lat="45.02712" lon="3.85495">
        <ele>822.535</ele>
        <time>2013-06-11T06:58:54Z</time>
      </trkpt>
      <trkpt lat="45.02709" lon="3.85488">
        <ele>823.068</ele>
        <time>2013-06-11T06:59:12Z</time>
      </trkpt>
      <trkpt lat="45.02697" lon="3.85454">
        <ele>824.977</ele>
        <time>2013-06-11T06:59:44Z</time>
      </trkpt>
      <trkpt lat="45.02691" lon="3.85442">
        <ele>825.933</ele>
        <time>2013-06-11T06:59:59Z</time>
      </trkpt>
      <trkpt lat="45.02683" lon="3.85422">
        <ele>826.923</ele>
        <time>2013-06-11T07:00:18Z</time>
      </trkpt>
      <trkpt lat="45.02677" lon="3.85401">
        <ele>828.357</ele>
        <time>2013-06-11T07:00:36Z</time>
      </trkpt>
      <trkpt lat="45.02674" lon="3.85392">
        <ele>829.8</ele>
        <time>2013-06-11T07:00:49Z</time>
      </trkpt>
      <trkpt lat="45.0267" lon="3.85384">
        <ele>829.82</ele>
        <time>2013-06-11T07:01:07Z</time>
      </trkpt>
      <trkpt lat="45.02664" lon="3.85367">
        <ele>830.707</ele>
        <time>2013-06-11T07:01:24Z</time>
      </trkpt>
      <trkpt lat="45.02661" lon="3.85355">
        <ele>831.759</ele>
        <time>2013-06-11T07:01:41Z</time>
      </trkpt>
      <trkpt lat="45.0266" lon="3.85356">
        <ele>831.722</ele>
        <time>2013-06-11T07:02:02Z</time>
      </trkpt>
      <trkpt lat="45.02658" lon="3.85345">
        <ele>832.216</ele>
        <time>2013-06-11T07:02:29Z</time>
      </trkpt>
      <trkpt lat="45.02653" lon="3.85325">
        <ele>832.639</ele>
        <time>2013-06-11T07:02:43Z</time>
      </trkpt>
      <trkpt lat="45.02649" lon="3.8531">
        <ele>834.648</ele>
        <time>2013-06-11T07:02:55Z</time>
      </trkpt>
      <trkpt lat="45.02647" lon="3.85301">
        <ele>834.694</ele>
        <time>2013-06-11T07:03:20Z</time>
      </trkpt>
      <trkpt lat="45.02645" lon="3.85294">
        <ele>834.674</ele>
        <time>2013-06-11T07:03:26Z</time>
      </trkpt>
      <trkpt lat="45.02639" lon="3.85284">
        <ele>835.036</ele>
        <time>2013-06-11T07:03:35Z</time>
      </trkpt>
      <trkpt lat="45.02629" lon="3.85262">
        <ele>836.017</ele>
        <time>2013-06-11T07:03:54Z</time>
      </trkpt>
      <trkpt lat="45.02628" lon="3.85259">
        <ele>837.018</ele>
        <time>2013-06-11T07:03:56Z</time>
      </trkpt>
      <trkpt lat="45.02626" lon="3.85253">
        <ele>837.007</ele>
        <time>2013-06-11T07:04:01Z</time>
      </trkpt>
      <trkpt lat="45.02615" lon="3.85226">
        <ele>837.947</ele>
        <time>2013-06-11T07:04:22Z</time>
      </trkpt>
      <trkpt lat="45.02607" lon="3.85191">
        <ele>838.41</ele>
        <time>2013-06-11T07:04:47Z</time>
      </trkpt>
      <trkpt lat="45.02596" lon="3.85164">
        <ele>841.354</ele>
        <time>2013-06-11T07:05:08Z</time>
      </trkpt>
      <trkpt lat="45.02595" lon="3.85158">
        <ele>842.397</ele>
        <time>2013-06-11T07:05:12Z</time>
      </trkpt>
      <trkpt lat="45.02594" lon="3.85155">
        <ele>840.896</ele>
        <time>2013-06-11T07:05:15Z</time>
      </trkpt>
      <trkpt lat="45.02581" lon="3.85123">
        <ele>842.792</ele>
        <time>2013-06-11T07:05:38Z</time>
      </trkpt>
      <trkpt lat="45.02567" lon="3.85086">
        <ele>844.282</ele>
        <time>2013-06-11T07:06:03Z</time>
      </trkpt>
      <trkpt lat="45.02555" lon="3.85051">
        <ele>844.724</ele>
        <time>2013-06-11T07:06:27Z</time>
      </trkpt>
      <trkpt lat="45.02551" lon="3.85041">
        <ele>844.204</ele>
        <time>2013-06-11T07:06:34Z</time>
      </trkpt>
      <trkpt lat="45.02538" lon="3.85015">
        <ele>845.114</ele>
        <time>2013-06-11T07:06:53Z</time>
      </trkpt>
      <trkpt lat="45.02536" lon="3.85009">
        <ele>846.107</ele>
        <time>2013-06-11T07:06:57Z</time>
      </trkpt>
      <trkpt lat="45.02524" lon="3.84979">
        <ele>846.146</ele>
        <time>2013-06-11T07:07:18Z</time>
      </trkpt>
      <trkpt lat="45.02509" lon="3.8494">
        <ele>846.659</ele>
        <time>2013-06-11T07:07:44Z</time>
      </trkpt>
      <trkpt lat="45.02499" lon="3.84914">
        <ele>847.173</ele>
        <time>2013-06-11T07:08:04Z</time>
      </trkpt>
      <trkpt lat="45.02488" lon="3.84893">
        <ele>847.116</ele>
        <time>2013-06-11T07:08:20Z</time>
      </trkpt>
      <trkpt lat="45.02474" lon="3.84857">
        <ele>847.565</ele>
        <time>2013-06-11T07:08:45Z</time>
      </trkpt>
      <trkpt lat="45.02462" lon="3.84825">
        <ele>848.081</ele>
        <time>2013-06-11T07:09:07Z</time>
      </trkpt>
      <trkpt lat="45.02449" lon="3.84794">
        <ele>848.561</ele>
        <time>2013-06-11T07:09:29Z</time>
      </trkpt>
      <trkpt lat="45.02443" lon="3.84781">
        <ele>848.036</ele>
        <time>2013-06-11T07:09:43Z</time>
      </trkpt>
      <trkpt lat="45.0243" lon="3.84751">
        <ele>848.517</ele>
        <time>2013-06-11T07:10:02Z</time>
      </trkpt>
      <trkpt lat="45.02415" lon="3.84718">
        <ele>849.518</ele>
        <time>2013-06-11T07:10:25Z</time>
      </trkpt>
      <trkpt lat="45.02401" lon="3.84684">
        <ele>849.507</ele>
        <time>2013-06-11T07:10:50Z</time>
      </trkpt>
      <trkpt lat="45.02391" lon="3.8466">
        <ele>849.087</ele>
        <time>2013-06-11T07:11:07Z</time>
      </trkpt>
      <trkpt lat="45.02387" lon="3.84649">
        <ele>850.47</ele>
        <time>2013-06-11T07:11:15Z</time>
      </trkpt>
      <trkpt lat="45.02374" lon="3.8462">
        <ele>849.554</ele>
        <time>2013-06-11T07:11:36Z</time>
      </trkpt>
      <trkpt lat="45.02362" lon="3.84591">
        <ele>849.527</ele>
        <time>2013-06-11T07:11:57Z</time>
      </trkpt>
      <trkpt lat="45.02348" lon="3.84556">
        <ele>850.496</ele>
        <time>2013-06-11T07:12:21Z</time>
      </trkpt>
      <trkpt lat="45.02338" lon="3.84531">
        <ele>851.432</ele>
        <time>2013-06-11T07:12:40Z</time>
      </trkpt>
      <trkpt lat="45.02321" lon="3.84495">
        <ele>851.952</ele>
        <time>2013-06-11T07:13:08Z</time>
      </trkpt>
      <trkpt lat="45.02305" lon="3.84461">
        <ele>853.819</ele>
        <time>2013-06-11T07:13:34Z</time>
      </trkpt>
      <trkpt lat="45.02295" lon="3.84431">
        <ele>855.209</ele>
        <time>2013-06-11T07:13:54Z</time>
      </trkpt>
      <trkpt lat="45.02284" lon="3.84406">
        <ele>856.719</ele>
        <time>2013-06-11T07:14:13Z</time>
      </trkpt>
      <trkpt lat="45.02272" lon="3.8438">
        <ele>857.207</ele>
        <time>2013-06-11T07:14:34Z</time>
      </trkpt>
      <trkpt lat="45.02271" lon="3.84351">
        <ele>857.655</ele>
        <time>2013-06-11T07:14:54Z</time>
      </trkpt>
      <trkpt lat="45.02272" lon="3.8435">
        <ele>857.648</ele>
        <time>2013-06-11T07:14:55Z</time>
      </trkpt>
      <trkpt lat="45.02271" lon="3.84332">
        <ele>857.692</ele>
        <time>2013-06-11T07:15:10Z</time>
      </trkpt>
      <trkpt lat="45.02268" lon="3.8432">
        <ele>857.655</ele>
        <time>2013-06-11T07:15:18Z</time>
      </trkpt>
      <trkpt lat="45.02268" lon="3.84309">
        <ele>858.184</ele>
        <time>2013-06-11T07:15:37Z</time>
      </trkpt>
      <trkpt lat="45.02266" lon="3.84298">
        <ele>858.65</ele>
        <time>2013-06-11T07:15:51Z</time>
      </trkpt>
      <trkpt lat="45.02258" lon="3.84266">
        <ele>859.18</ele>
        <time>2013-06-11T07:16:12Z</time>
      </trkpt>
      <trkpt lat="45.02252" lon="3.84242">
        <ele>859.681</ele>
        <time>2013-06-11T07:16:30Z</time>
      </trkpt>
      <trkpt lat="45.02245" lon="3.84216">
        <ele>859.661</ele>
        <time>2013-06-11T07:16:49Z</time>
      </trkpt>
      <trkpt lat="45.02236" lon="3.84193">
        <ele>860.017</ele>
        <time>2013-06-11T07:17:07Z</time>
      </trkpt>
      <trkpt lat="45.02235" lon="3.84187">
        <ele>860.507</ele>
        <time>2013-06-11T07:17:11Z</time>
      </trkpt>
      <trkpt lat="45.02234" lon="3.8418">
        <ele>860.582</ele>
        <time>2013-06-11T07:17:15Z</time>
      </trkpt>
      <trkpt lat="45.02224" lon="3.84141">
        <ele>860.535</ele>
        <time>2013-06-11T07:17:40Z</time>
      </trkpt>
      <trkpt lat="45.02222" lon="3.84134">
        <ele>860.599</ele>
        <time>2013-06-11T07:17:45Z</time>
      </trkpt>
      <trkpt lat="45.0222" lon="3.84122">
        <ele>861.032</ele>
        <time>2013-06-11T07:17:54Z</time>
      </trkpt>
      <trkpt lat="45.02214" lon="3.84096">
        <ele>862.021</ele>
        <time>2013-06-11T07:18:11Z</time>
      </trkpt>
      <trkpt lat="45.02205" lon="3.84067">
        <ele>862.027</ele>
        <time>2013-06-11T07:18:34Z</time>
      </trkpt>
      <trkpt lat="45.022" lon="3.8405">
        <ele>861.597</ele>
        <time>2013-06-11T07:18:50Z</time>
      </trkpt>
      <trkpt lat="45.0219" lon="3.84034">
        <ele>862.448</ele>
        <time>2013-06-11T07:19:05Z</time>
      </trkpt>
      <trkpt lat="45.02181" lon="3.84005">
        <ele>862.461</ele>
        <time>2013-06-11T07:19:26Z</time>
      </trkpt>
      <trkpt lat="45.02176" lon="3.83984">
        <ele>862.417</ele>
        <time>2013-06-11T07:19:40Z</time>
      </trkpt>
      <trkpt lat="45.02172" lon="3.83968">
        <ele>863.407</ele>
        <time>2013-06-11T07:19:50Z</time>
      </trkpt>
      <trkpt lat="45.02167" lon="3.83943">
        <ele>863.468</ele>
        <time>2013-06-11T07:20:06Z</time>
      </trkpt>
      <trkpt lat="45.02161" lon="3.83911">
        <ele>863.951</ele>
        <time>2013-06-11T07:20:28Z</time>
      </trkpt>
      <trkpt lat="45.02159" lon="3.83882">
        <ele>863.975</ele>
        <time>2013-06-11T07:20:46Z</time>
      </trkpt>
      <trkpt lat="45.02153" lon="3.8384">
        <ele>864.878</ele>
        <time>2013-06-11T07:21:12Z</time>
      </trkpt>
      <trkpt lat="45.02149" lon="3.83807">
        <ele>864.477</ele>
        <time>2013-06-11T07:21:33Z</time>
      </trkpt>
      <trkpt lat="45.02143" lon="3.83782">
        <ele>864.413</ele>
        <time>2013-06-11T07:21:53Z</time>
      </trkpt>
      <trkpt lat="45.02136" lon="3.83749">
        <ele>865.393</ele>
        <time>2013-06-11T07:22:16Z</time>
      </trkpt>
      <trkpt lat="45.02129" lon="3.8372">
        <ele>865.868</ele>
        <time>2013-06-11T07:22:35Z</time>
      </trkpt>
      <trkpt lat="45.02122" lon="3.83691">
        <ele>865.342</ele>
        <time>2013-06-11T07:22:55Z</time>
      </trkpt>
      <trkpt lat="45.02119" lon="3.83684">
        <ele>865.826</ele>
        <time>2013-06-11T07:23:00Z</time>
      </trkpt>
      <trkpt lat="45.02118" lon="3.83681">
        <ele>865.807</ele>
        <time>2013-06-11T07:23:02Z</time>
      </trkpt>
      <trkpt lat="45.02111" lon="3.83654">
        <ele>866.39</ele>
        <time>2013-06-11T07:23:20Z</time>
      </trkpt>
      <trkpt lat="45.02098" lon="3.83626">
        <ele>867.283</ele>
        <time>2013-06-11T07:23:42Z</time>
      </trkpt>
      <trkpt lat="45.02088" lon="3.83614">
        <ele>866.877</ele>
        <time>2013-06-11T07:23:54Z</time>
      </trkpt>
      <trkpt lat="45.0207" lon="3.8359">
        <ele>867.29</ele>
        <time>2013-06-11T07:24:16Z</time>
      </trkpt>
      <trkpt lat="45.02052" lon="3.83563">
        <ele>867.739</ele>
        <time>2013-06-11T07:24:39Z</time>
      </trkpt>
      <trkpt lat="45.02048" lon="3.83554">
        <ele>869.285</ele>
        <time>2013-06-11T07:24:46Z</time>
      </trkpt>
      <trkpt lat="45.02032" lon="3.83522">
        <ele>869.645</ele>
        <time>2013-06-11T07:25:10Z</time>
      </trkpt>
      <trkpt lat="45.02022" lon="3.83496">
        <ele>869.237</ele>
        <time>2013-06-11T07:25:29Z</time>
      </trkpt>
      <trkpt lat="45.0202" lon="3.83469">
        <ele>868.749</ele>
        <time>2013-06-11T07:25:48Z</time>
      </trkpt>
      <trkpt lat="45.02015" lon="3.83446">
        <ele>868.713</ele>
        <time>2013-06-11T07:26:06Z</time>
      </trkpt>
      <trkpt lat="45.02007" lon="3.8343">
        <ele>868.207</ele>
        <time>2013-06-11T07:26:20Z</time>
      </trkpt>
      <trkpt lat="45.02006" lon="3.83427">
        <ele>868.257</ele>
        <time>2013-06-11T07:26:23Z</time>
      </trkpt>
      <trkpt lat="45.02002" lon="3.83411">
        <ele>868.72</ele>
        <time>2013-06-11T07:26:41Z</time>
      </trkpt>
      <trkpt lat="45.01997" lon="3.83393">
        <ele>868.724</ele>
        <time>2013-06-11T07:27:05Z</time>
      </trkpt>
      <trkpt lat="45.02003" lon="3.83389">
        <ele>868.797</ele>
        <time>2013-06-11T07:27:30Z</time>
      </trkpt>
      <trkpt lat="45.02002" lon="3.83389">
        <ele>868.736</ele>
        <time>2013-06-11T07:28:05Z</time>
      </trkpt>
      <trkpt lat="45.02001" lon="3.83389">
        <ele>868.772</ele>
        <time>2013-06-11T07:31:02Z</time>
      </trkpt>
      <trkpt lat="45.02002" lon="3.83388">
        <ele>869.252</ele>
        <time>2013-06-11T07:31:10Z</time>
      </trkpt>
      <trkpt lat="45.02005" lon="3.83385">
        <ele>868.724</ele>
        <time>2013-06-11T07:31:14Z</time>
      </trkpt>
      <trkpt lat="45.02017" lon="3.83375">
        <ele>868.204</ele>
        <time>2013-06-11T07:31:32Z</time>
      </trkpt>
      <trkpt lat="45.02019" lon="3.83373">
        <ele>868.714</ele>
        <time>2013-06-11T07:31:43Z</time>
      </trkpt>
      <trkpt lat="45.02036" lon="3.83356">
        <ele>867.707</ele>
        <time>2013-06-11T07:32:04Z</time>
      </trkpt>
      <trkpt lat="45.02048" lon="3.83345">
        <ele>867.766</ele>
        <time>2013-06-11T07:32:17Z</time>
      </trkpt>
      <trkpt lat="45.02064" lon="3.83327">
        <ele>867.789</ele>
        <time>2013-06-11T07:32:34Z</time>
      </trkpt>
      <trkpt lat="45.02085" lon="3.83306">
        <ele>868.293</ele>
        <time>2013-06-11T07:32:53Z</time>
      </trkpt>
      <trkpt lat="45.02091" lon="3.83298">
        <ele>867.776</ele>
        <time>2013-06-11T07:33:01Z</time>
      </trkpt>
      <trkpt lat="45.02101" lon="3.83272">
        <ele>867.745</ele>
        <time>2013-06-11T07:33:20Z</time>
      </trkpt>
      <trkpt lat="45.02102" lon="3.8326">
        <ele>867.751</ele>
        <time>2013-06-11T07:33:29Z</time>
      </trkpt>
      <trkpt lat="45.02106" lon="3.8325">
        <ele>868.231</ele>
        <time>2013-06-11T07:33:36Z</time>
      </trkpt>
      <trkpt lat="45.02121" lon="3.83222">
        <ele>868.237</ele>
        <time>2013-06-11T07:33:58Z</time>
      </trkpt>
      <trkpt lat="45.02123" lon="3.83213">
        <ele>868.249</ele>
        <time>2013-06-11T07:34:12Z</time>
      </trkpt>
      <trkpt lat="45.02123" lon="3.83213">
        <ele>868.713</ele>
        <time>2013-06-11T07:34:15Z</time>
      </trkpt>
      <trkpt lat="45.02127" lon="3.83209">
        <ele>868.707</ele>
        <time>2013-06-11T07:34:20Z</time>
      </trkpt>
      <trkpt lat="45.02143" lon="3.83184">
        <ele>869.297</ele>
        <time>2013-06-11T07:34:41Z</time>
      </trkpt>
      <trkpt lat="45.02156" lon="3.83163">
        <ele>869.27</ele>
        <time>2013-06-11T07:34:59Z</time>
      </trkpt>
      <trkpt lat="45.02175" lon="3.83151">
        <ele>869.674</ele>
        <time>2013-06-11T07:35:18Z</time>
      </trkpt>
      <trkpt lat="45.02192" lon="3.83139">
        <ele>869.267</ele>
        <time>2013-06-11T07:35:36Z</time>
      </trkpt>
      <trkpt lat="45.02213" lon="3.83123">
        <ele>869.236</ele>
        <time>2013-06-11T07:35:56Z</time>
      </trkpt>
      <trkpt lat="45.02219" lon="3.83116">
        <ele>868.742</ele>
        <time>2013-06-11T07:36:03Z</time>
      </trkpt>
      <trkpt lat="45.02229" lon="3.8311">
        <ele>869.272</ele>
        <time>2013-06-11T07:36:13Z</time>
      </trkpt>
      <trkpt lat="45.02233" lon="3.83107">
        <ele>868.716</ele>
        <time>2013-06-11T07:36:17Z</time>
      </trkpt>
      <trkpt lat="45.02248" lon="3.83095">
        <ele>869.276</ele>
        <time>2013-06-11T07:36:31Z</time>
      </trkpt>
      <trkpt lat="45.02251" lon="3.83093">
        <ele>869.213</ele>
        <time>2013-06-11T07:36:34Z</time>
      </trkpt>
      <trkpt lat="45.02254" lon="3.83088">
        <ele>868.707</ele>
        <time>2013-06-11T07:36:38Z</time>
      </trkpt>
      <trkpt lat="45.02271" lon="3.83078">
        <ele>869.255</ele>
        <time>2013-06-11T07:36:54Z</time>
      </trkpt>
      <trkpt lat="45.02292" lon="3.83063">
        <ele>868.258</ele>
        <time>2013-06-11T07:37:13Z</time>
      </trkpt>
      <trkpt lat="45.02304" lon="3.83059">
        <ele>868.292</ele>
        <time>2013-06-11T07:37:24Z</time>
      </trkpt>
      <trkpt lat="45.02321" lon="3.83051">
        <ele>868.215</ele>
        <time>2013-06-11T07:37:40Z</time>
      </trkpt>
      <trkpt lat="45.02335" lon="3.83042">
        <ele>867.724</ele>
        <time>2013-06-11T07:37:54Z</time>
      </trkpt>
      <trkpt lat="45.02352" lon="3.8303">
        <ele>867.24</ele>
        <time>2013-06-11T07:38:13Z</time>
      </trkpt>
      <trkpt lat="45.02356" lon="3.83029">
        <ele>867.79</ele>
        <time>2013-06-11T07:38:26Z</time>
      </trkpt>
      <trkpt lat="45.02356" lon="3.83028">
        <ele>867.757</ele>
        <time>2013-06-11T07:38:42Z</time>
      </trkpt>
      <trkpt lat="45.02352" lon="3.83021">
        <ele>868.2</ele>
        <time>2013-06-11T07:38:59Z</time>
      </trkpt>
      <trkpt lat="45.02346" lon="3.83009">
        <ele>868.22</ele>
        <time>2013-06-11T07:39:16Z</time>
      </trkpt>
      <trkpt lat="45.02334" lon="3.82987">
        <ele>867.707</ele>
        <time>2013-06-11T07:39:33Z</time>
      </trkpt>
      <trkpt lat="45.02329" lon="3.82983">
        <ele>868.799</ele>
        <time>2013-06-11T07:39:38Z</time>
      </trkpt>
      <trkpt lat="45.02318" lon="3.82966">
        <ele>868.732</ele>
        <time>2013-06-11T07:39:57Z</time>
      </trkpt>
      <trkpt lat="45.02322" lon="3.82972">
        <ele>868.786</ele>
        <time>2013-06-11T07:40:05Z</time>
      </trkpt>
      <trkpt lat="45.02309" lon="3.82953">
        <ele>869.259</ele>
        <time>2013-06-11T07:40:23Z</time>
      </trkpt>
      <trkpt lat="45.02297" lon="3.82916">
        <ele>869.288</ele>
        <time>2013-06-11T07:40:46Z</time>
      </trkpt>
      <trkpt lat="45.02296" lon="3.82881">
        <ele>870.694</ele>
        <time>2013-06-11T07:41:08Z</time>
      </trkpt>
      <trkpt lat="45.02294" lon="3.82851">
        <ele>871.174</ele>
        <time>2013-06-11T07:41:25Z</time>
      </trkpt>
      <trkpt lat="45.02289" lon="3.82821">
        <ele>871.141</ele>
        <time>2013-06-11T07:41:44Z</time>
      </trkpt>
      <trkpt lat="45.02288" lon="3.82807">
        <ele>871.681</ele>
        <time>2013-06-11T07:41:53Z</time>
      </trkpt>
      <trkpt lat="45.02284" lon="3.82791">
        <ele>871.609</ele>
        <time>2013-06-11T07:42:08Z</time>
      </trkpt>
      <trkpt lat="45.02268" lon="3.82773">
        <ele>871.607</ele>
        <time>2013-06-11T07:42:30Z</time>
      </trkpt>
      <trkpt lat="45.0225" lon="3.82757">
        <ele>873.038</ele>
        <time>2013-06-11T07:42:50Z</time>
      </trkpt>
      <trkpt lat="45.02227" lon="3.82744">
        <ele>872.551</ele>
        <time>2013-06-11T07:43:12Z</time>
      </trkpt>
      <trkpt lat="45.02209" lon="3.82727">
        <ele>873.095</ele>
        <time>2013-06-11T07:43:32Z</time>
      </trkpt>
      <trkpt lat="45.02192" lon="3.82709">
        <ele>874.068</ele>
        <time>2013-06-11T07:43:51Z</time>
      </trkpt>
      <trkpt lat="45.02185" lon="3.82703">
        <ele>874.087</ele>
        <time>2013-06-11T07:43:59Z</time>
      </trkpt>
      <trkpt lat="45.02158" lon="3.82688">
        <ele>874.993</ele>
        <time>2013-06-11T07:44:24Z</time>
      </trkpt>
      <trkpt lat="45.0214" lon="3.82675">
        <ele>875.973</ele>
        <time>2013-06-11T07:44:42Z</time>
      </trkpt>
      <trkpt lat="45.02128" lon="3.82664">
        <ele>875.448</ele>
        <time>2013-06-11T07:44:55Z</time>
      </trkpt>
      <trkpt lat="45.02126" lon="3.82628">
        <ele>875.961</ele>
        <time>2013-06-11T07:45:17Z</time>
      </trkpt>
      <trkpt lat="45.02126" lon="3.82593">
        <ele>875.917</ele>
        <time>2013-06-11T07:45:38Z</time>
      </trkpt>
      <trkpt lat="45.02125" lon="3.82564">
        <ele>875.907</ele>
        <time>2013-06-11T07:45:54Z</time>
      </trkpt>
      <trkpt lat="45.02125" lon="3.82535">
        <ele>875.958</ele>
        <time>2013-06-11T07:46:11Z</time>
      </trkpt>
      <trkpt lat="45.0212" lon="3.82508">
        <ele>876.421</ele>
        <time>2013-06-11T07:46:27Z</time>
      </trkpt>
      <trkpt lat="45.0211" lon="3.82475">
        <ele>876.435</ele>
        <time>2013-06-11T07:46:49Z</time>
      </trkpt>
      <trkpt lat="45.02098" lon="3.82444">
        <ele>876.988</ele>
        <time>2013-06-11T07:47:13Z</time>
      </trkpt>
      <trkpt lat="45.02085" lon="3.82415">
        <ele>876.947</ele>
        <time>2013-06-11T07:47:34Z</time>
      </trkpt>
      <trkpt lat="45.02076" lon="3.82387">
        <ele>876.473</ele>
        <time>2013-06-11T07:47:53Z</time>
      </trkpt>
      <trkpt lat="45.02063" lon="3.8236">
        <ele>875.463</ele>
        <time>2013-06-11T07:48:11Z</time>
      </trkpt>
      <trkpt lat="45.02046" lon="3.82337">
        <ele>875.467</ele>
        <time>2013-06-11T07:48:33Z</time>
      </trkpt>
      <trkpt lat="45.02034" lon="3.82319">
        <ele>874.981</ele>
        <time>2013-06-11T07:48:49Z</time>
      </trkpt>
      <trkpt lat="45.02025" lon="3.82297">
        <ele>874.919</ele>
        <time>2013-06-11T07:49:08Z</time>
      </trkpt>
      <trkpt lat="45.02015" lon="3.8227">
        <ele>874.907</ele>
        <time>2013-06-11T07:49:30Z</time>
      </trkpt>
      <trkpt lat="45.02014" lon="3.82266">
        <ele>875.45</ele>
        <time>2013-06-11T07:49:33Z</time>
      </trkpt>
      <trkpt lat="45.02005" lon="3.82244">
        <ele>875.453</ele>
        <time>2013-06-11T07:49:50Z</time>
      </trkpt>
      <trkpt lat="45.01997" lon="3.82219">
        <ele>875.457</ele>
        <time>2013-06-11T07:50:09Z</time>
      </trkpt>
      <trkpt lat="45.01994" lon="3.82214">
        <ele>875.96</ele>
        <time>2013-06-11T07:50:14Z</time>
      </trkpt>
      <trkpt lat="45.01982" lon="3.82187">
        <ele>875.959</ele>
        <time>2013-06-11T07:50:36Z</time>
      </trkpt>
      <trkpt lat="45.01972" lon="3.82161">
        <ele>875.985</ele>
        <time>2013-06-11T07:50:56Z</time>
      </trkpt>
      <trkpt lat="45.01963" lon="3.82142">
        <ele>876.465</ele>
        <time>2013-06-11T07:51:12Z</time>
      </trkpt>
      <trkpt lat="45.0196" lon="3.8213">
        <ele>876.919</ele>
        <time>2013-06-11T07:51:19Z</time>
      </trkpt>
      <trkpt lat="45.01959" lon="3.82116">
        <ele>876.909</ele>
        <time>2013-06-11T07:51:37Z</time>
      </trkpt>
      <trkpt lat="45.01958" lon="3.82089">
        <ele>876.419</ele>
        <time>2013-06-11T07:51:54Z</time>
      </trkpt>
      <trkpt lat="45.01958" lon="3.82086">
        <ele>874.907</ele>
        <time>2013-06-11T07:51:56Z</time>
      </trkpt>
      <trkpt lat="45.01957" lon="3.82073">
        <ele>875.985</ele>
        <time>2013-06-11T07:52:12Z</time>
      </trkpt>
      <trkpt lat="45.01955" lon="3.82051">
        <ele>874.928</ele>
        <time>2013-06-11T07:52:29Z</time>
      </trkpt>
      <trkpt lat="45.01952" lon="3.82027">
        <ele>874.942</ele>
        <time>2013-06-11T07:52:48Z</time>
      </trkpt>
      <trkpt lat="45.0195" lon="3.82013">
        <ele>875.435</ele>
        <time>2013-06-11T07:52:58Z</time>
      </trkpt>
      <trkpt lat="45.01947" lon="3.82003">
        <ele>874.524</ele>
        <time>2013-06-11T07:53:18Z</time>
      </trkpt>
      <trkpt lat="45.0195" lon="3.82005">
        <ele>874.91</ele>
        <time>2013-06-11T07:54:27Z</time>
      </trkpt>
      <trkpt lat="45.01949" lon="3.82002">
        <ele>874.92</ele>
        <time>2013-06-11T07:55:02Z</time>
      </trkpt>
      <trkpt lat="45.01941" lon="3.81992">
        <ele>875.467</ele>
        <time>2013-06-11T07:55:13Z</time>
      </trkpt>
      <trkpt lat="45.01937" lon="3.81988">
        <ele>875.481</ele>
        <time>2013-06-11T07:55:31Z</time>
      </trkpt>
      <trkpt lat="45.01929" lon="3.8198">
        <ele>875.919</ele>
        <time>2013-06-11T07:55:49Z</time>
      </trkpt>
      <trkpt lat="45.01921" lon="3.81972">
        <ele>875.407</ele>
        <time>2013-06-11T07:55:59Z</time>
      </trkpt>
      <trkpt lat="45.01911" lon="3.81963">
        <ele>875.41</ele>
        <time>2013-06-11T07:56:10Z</time>
      </trkpt>
      <trkpt lat="45.0191" lon="3.81961">
        <ele>875.473</ele>
        <time>2013-06-11T07:56:12Z</time>
      </trkpt>
      <trkpt lat="45.019" lon="3.81949">
        <ele>875.497</ele>
        <time>2013-06-11T07:56:24Z</time>
      </trkpt>
      <trkpt lat="45.01897" lon="3.81947">
        <ele>874.96</ele>
        <time>2013-06-11T07:56:27Z</time>
      </trkpt>
      <trkpt lat="45.01895" lon="3.81945">
        <ele>874.979</ele>
        <time>2013-06-11T07:56:29Z</time>
      </trkpt>
      <trkpt lat="45.0188" lon="3.81925">
        <ele>875.495</ele>
        <time>2013-06-11T07:56:47Z</time>
      </trkpt>
      <trkpt lat="45.01862" lon="3.819">
        <ele>875.435</ele>
        <time>2013-06-11T07:57:10Z</time>
      </trkpt>
      <trkpt lat="45.01854" lon="3.81888">
        <ele>875.922</ele>
        <time>2013-06-11T07:57:21Z</time>
      </trkpt>
      <trkpt lat="45.01852" lon="3.81882">
        <ele>875.462</ele>
        <time>2013-06-11T07:57:25Z</time>
      </trkpt>
      <trkpt lat="45.01839" lon="3.81862">
        <ele>876.408</ele>
        <time>2013-06-11T07:57:42Z</time>
      </trkpt>
      <trkpt lat="45.01826" lon="3.81839">
        <ele>874.007</ele>
        <time>2013-06-11T07:57:59Z</time>
      </trkpt>
      <trkpt lat="45.01821" lon="3.81814">
        <ele>873.576</ele>
        <time>2013-06-11T07:58:15Z</time>
      </trkpt>
      <trkpt lat="45.01816" lon="3.81782">
        <ele>874.049</ele>
        <time>2013-06-11T07:58:35Z</time>
      </trkpt>
      <trkpt lat="45.01813" lon="3.81753">
        <ele>875.413</ele>
        <time>2013-06-11T07:58:55Z</time>
      </trkpt>
      <trkpt lat="45.01809" lon="3.81739">
        <ele>874.926</ele>
        <time>2013-06-11T07:59:07Z</time>
      </trkpt>
      <trkpt lat="45.01807" lon="3.81715">
        <ele>877.365</ele>
        <time>2013-06-11T07:59:26Z</time>
      </trkpt>
      <trkpt lat="45.01801" lon="3.81699">
        <ele>876.961</ele>
        <time>2013-06-11T07:59:40Z</time>
      </trkpt>
      <trkpt lat="45.01804" lon="3.81681">
        <ele>878.861</ele>
        <time>2013-06-11T07:59:56Z</time>
      </trkpt>
      <trkpt lat="45.01803" lon="3.81673">
        <ele>878.872</ele>
        <time>2013-06-11T08:00:02Z</time>
      </trkpt>
      <trkpt lat="45.01807" lon="3.8166">
        <ele>880.213</ele>
        <time>2013-06-11T08:00:16Z</time>
      </trkpt>
      <trkpt lat="45.01808" lon="3.81654">
        <ele>880.214</ele>
        <time>2013-06-11T08:00:21Z</time>
      </trkpt>
      <trkpt lat="45.01808" lon="3.81648">
        <ele>880.707</ele>
        <time>2013-06-11T08:00:26Z</time>
      </trkpt>
      <trkpt lat="45.01812" lon="3.81637">
        <ele>880.221</ele>
        <time>2013-06-11T08:00:40Z</time>
      </trkpt>
      <trkpt lat="45.01816" lon="3.81621">
        <ele>881.294</ele>
        <time>2013-06-11T08:00:55Z</time>
      </trkpt>
      <trkpt lat="45.01821" lon="3.81612">
        <ele>882.118</ele>
        <time>2013-06-11T08:01:09Z</time>
      </trkpt>
      <trkpt lat="45.01821" lon="3.81611">
        <ele>882.151</ele>
        <time>2013-06-11T08:01:10Z</time>
      </trkpt>
      <trkpt lat="45.01827" lon="3.81606">
        <ele>881.76</ele>
        <time>2013-06-11T08:01:17Z</time>
      </trkpt>
      <trkpt lat="45.01839" lon="3.81603">
        <ele>881.726</ele>
        <time>2013-06-11T08:01:33Z</time>
      </trkpt>
      <trkpt lat="45.01843" lon="3.81602">
        <ele>882.186</ele>
        <time>2013-06-11T08:01:38Z</time>
      </trkpt>
      <trkpt lat="45.01844" lon="3.81601">
        <ele>882.118</ele>
        <time>2013-06-11T08:01:40Z</time>
      </trkpt>
      <trkpt lat="45.01851" lon="3.81602">
        <ele>881.798</ele>
        <time>2013-06-11T08:01:51Z</time>
      </trkpt>
      <trkpt lat="45.01864" lon="3.81601">
        <ele>882.617</ele>
        <time>2013-06-11T08:02:07Z</time>
      </trkpt>
      <trkpt lat="45.01876" lon="3.81598">
        <ele>882.607</ele>
        <time>2013-06-11T08:02:19Z</time>
      </trkpt>
      <trkpt lat="45.01888" lon="3.81598">
        <ele>881.775</ele>
        <time>2013-06-11T08:02:33Z</time>
      </trkpt>
      <trkpt lat="45.01903" lon="3.81599">
        <ele>881.788</ele>
        <time>2013-06-11T08:02:45Z</time>
      </trkpt>
      <trkpt lat="45.01919" lon="3.81604">
        <ele>881.242</ele>
        <time>2013-06-11T08:02:59Z</time>
      </trkpt>
      <trkpt lat="45.01936" lon="3.81608">
        <ele>881.225</ele>
        <time>2013-06-11T08:03:14Z</time>
      </trkpt>
      <trkpt lat="45.01946" lon="3.81607">
        <ele>880.224</ele>
        <time>2013-06-11T08:03:30Z</time>
      </trkpt>
      <trkpt lat="45.01947" lon="3.816">
        <ele>880.72</ele>
        <time>2013-06-11T08:03:43Z</time>
      </trkpt>
      <trkpt lat="45.01948" lon="3.81594">
        <ele>880.77</ele>
        <time>2013-06-11T08:03:50Z</time>
      </trkpt>
      <trkpt lat="45.01946" lon="3.81586">
        <ele>880.741</ele>
        <time>2013-06-11T08:03:57Z</time>
      </trkpt>
      <trkpt lat="45.01946" lon="3.81582">
        <ele>881.281</ele>
        <time>2013-06-11T08:04:00Z</time>
      </trkpt>
      <trkpt lat="45.01946" lon="3.81573">
        <ele>880.709</ele>
        <time>2013-06-11T08:04:06Z</time>
      </trkpt>
      <trkpt lat="45.01949" lon="3.81558">
        <ele>881.207</ele>
        <time>2013-06-11T08:04:15Z</time>
      </trkpt>
      <trkpt lat="45.01952" lon="3.81556">
        <ele>880.748</ele>
        <time>2013-06-11T08:04:18Z</time>
      </trkpt>
      <trkpt lat="45.01957" lon="3.81554">
        <ele>881.791</ele>
        <time>2013-06-11T08:04:23Z</time>
      </trkpt>
      <trkpt lat="45.0196" lon="3.81551">
        <ele>881.245</ele>
        <time>2013-06-11T08:04:27Z</time>
      </trkpt>
      <trkpt lat="45.01964" lon="3.81547">
        <ele>881.258</ele>
        <time>2013-06-11T08:04:31Z</time>
      </trkpt>
      <trkpt lat="45.01972" lon="3.8154">
        <ele>880.757</ele>
        <time>2013-06-11T08:04:41Z</time>
      </trkpt>
      <trkpt lat="45.01978" lon="3.81532">
        <ele>880.253</ele>
        <time>2013-06-11T08:04:48Z</time>
      </trkpt>
      <trkpt lat="45.01977" lon="3.81512">
        <ele>881.283</ele>
        <time>2013-06-11T08:05:01Z</time>
      </trkpt>
      <trkpt lat="45.01973" lon="3.81489">
        <ele>881.732</ele>
        <time>2013-06-11T08:05:17Z</time>
      </trkpt>
      <trkpt lat="45.01968" lon="3.81459">
        <ele>882.192</ele>
        <time>2013-06-11T08:05:36Z</time>
      </trkpt>
      <trkpt lat="45.01965" lon="3.81432">
        <ele>882.611</ele>
        <time>2013-06-11T08:05:53Z</time>
      </trkpt>
      <trkpt lat="45.01966" lon="3.81418">
        <ele>882.607</ele>
        <time>2013-06-11T08:06:02Z</time>
      </trkpt>
      <trkpt lat="45.01966" lon="3.8141">
        <ele>882.627</ele>
        <time>2013-06-11T08:06:08Z</time>
      </trkpt>
      <trkpt lat="45.01964" lon="3.81404">
        <ele>882.64</ele>
        <time>2013-06-11T08:06:12Z</time>
      </trkpt>
      <trkpt lat="45.01959" lon="3.81379">
        <ele>882.664</ele>
        <time>2013-06-11T08:06:28Z</time>
      </trkpt>
      <trkpt lat="45.01955" lon="3.81354">
        <ele>883.667</ele>
        <time>2013-06-11T08:06:43Z</time>
      </trkpt>
      <trkpt lat="45.01954" lon="3.81349">
        <ele>883.186</ele>
        <time>2013-06-11T08:06:46Z</time>
      </trkpt>
      <trkpt lat="45.01956" lon="3.81346">
        <ele>883.112</ele>
        <time>2013-06-11T08:06:49Z</time>
      </trkpt>
      <trkpt lat="45.01953" lon="3.81307">
        <ele>883.642</ele>
        <time>2013-06-11T08:07:13Z</time>
      </trkpt>
      <trkpt lat="45.01947" lon="3.8128">
        <ele>884.651</ele>
        <time>2013-06-11T08:07:31Z</time>
      </trkpt>
      <trkpt lat="45.01945" lon="3.81263">
        <ele>884.101</ele>
        <time>2013-06-11T08:07:45Z</time>
      </trkpt>
      <trkpt lat="45.01945" lon="3.81259">
        <ele>884.111</ele>
        <time>2013-06-11T08:07:48Z</time>
      </trkpt>
      <trkpt lat="45.01944" lon="3.81255">
        <ele>884.607</ele>
        <time>2013-06-11T08:07:51Z</time>
      </trkpt>
      <trkpt lat="45.01942" lon="3.81249">
        <ele>884.629</ele>
        <time>2013-06-11T08:07:55Z</time>
      </trkpt>
      <trkpt lat="45.01937" lon="3.81234">
        <ele>884.612</ele>
        <time>2013-06-11T08:08:08Z</time>
      </trkpt>
      <trkpt lat="45.01932" lon="3.81216">
        <ele>885.546</ele>
        <time>2013-06-11T08:08:22Z</time>
      </trkpt>
      <trkpt lat="45.01929" lon="3.8121">
        <ele>885.079</ele>
        <time>2013-06-11T08:08:41Z</time>
      </trkpt>
      <trkpt lat="45.01925" lon="3.81194">
        <ele>885.568</ele>
        <time>2013-06-11T08:08:57Z</time>
      </trkpt>
      <trkpt lat="45.01925" lon="3.81191">
        <ele>885.024</ele>
        <time>2013-06-11T08:08:59Z</time>
      </trkpt>
      <trkpt lat="45.01924" lon="3.81188">
        <ele>885.524</ele>
        <time>2013-06-11T08:09:01Z</time>
      </trkpt>
      <trkpt lat="45.01919" lon="3.81171">
        <ele>885.533</ele>
        <time>2013-06-11T08:09:13Z</time>
      </trkpt>
      <trkpt lat="45.01917" lon="3.81161">
        <ele>886.023</ele>
        <time>2013-06-11T08:09:23Z</time>
      </trkpt>
      <trkpt lat="45.01918" lon="3.81147">
        <ele>887.015</ele>
        <time>2013-06-11T08:09:44Z</time>
      </trkpt>
      <trkpt lat="45.01921" lon="3.81143">
        <ele>886.007</ele>
        <time>2013-06-11T08:10:08Z</time>
      </trkpt>
      <trkpt lat="45.01922" lon="3.81138">
        <ele>886.077</ele>
        <time>2013-06-11T08:10:25Z</time>
      </trkpt>
      <trkpt lat="45.01921" lon="3.81133">
        <ele>885.52</ele>
        <time>2013-06-11T08:10:28Z</time>
      </trkpt>
      <trkpt lat="45.01918" lon="3.8111">
        <ele>886.534</ele>
        <time>2013-06-11T08:10:45Z</time>
      </trkpt>
      <trkpt lat="45.01917" lon="3.81108">
        <ele>887.037</ele>
        <time>2013-06-11T08:11:21Z</time>
      </trkpt>
      <trkpt lat="45.01914" lon="3.81102">
        <ele>887.026</ele>
        <time>2013-06-11T08:12:04Z</time>
      </trkpt>
      <trkpt lat="45.01906" lon="3.81078">
        <ele>887.022</ele>
        <time>2013-06-11T08:12:19Z</time>
      </trkpt>
      <trkpt lat="45.01904" lon="3.8106">
        <ele>887.022</ele>
        <time>2013-06-11T08:12:36Z</time>
      </trkpt>
      <trkpt lat="45.01904" lon="3.81056">
        <ele>887.057</ele>
        <time>2013-06-11T08:12:42Z</time>
      </trkpt>
      <trkpt lat="45.01901" lon="3.81034">
        <ele>886.5</ele>
        <time>2013-06-11T08:13:07Z</time>
      </trkpt>
      <trkpt lat="45.01901" lon="3.81015">
        <ele>887.02</ele>
        <time>2013-06-11T08:13:21Z</time>
      </trkpt>
      <trkpt lat="45.01903" lon="3.80992">
        <ele>887.407</ele>
        <time>2013-06-11T08:13:39Z</time>
      </trkpt>
      <trkpt lat="45.01902" lon="3.80985">
        <ele>887.039</ele>
        <time>2013-06-11T08:13:43Z</time>
      </trkpt>
      <trkpt lat="45.01902" lon="3.80966">
        <ele>886.562</ele>
        <time>2013-06-11T08:13:55Z</time>
      </trkpt>
      <trkpt lat="45.01906" lon="3.80949">
        <ele>887.916</ele>
        <time>2013-06-11T08:14:08Z</time>
      </trkpt>
      <trkpt lat="45.01915" lon="3.80937">
        <ele>887.469</ele>
        <time>2013-06-11T08:14:24Z</time>
      </trkpt>
      <trkpt lat="45.01915" lon="3.80906">
        <ele>886.568</ele>
        <time>2013-06-11T08:14:46Z</time>
      </trkpt>
      <trkpt lat="45.01915" lon="3.80904">
        <ele>887.484</ele>
        <time>2013-06-11T08:14:48Z</time>
      </trkpt>
      <trkpt lat="45.01921" lon="3.80885">
        <ele>886.524</ele>
        <time>2013-06-11T08:15:02Z</time>
      </trkpt>
      <trkpt lat="45.01931" lon="3.80871">
        <ele>886.026</ele>
        <time>2013-06-11T08:15:19Z</time>
      </trkpt>
      <trkpt lat="45.01937" lon="3.80859">
        <ele>886.547</ele>
        <time>2013-06-11T08:15:31Z</time>
      </trkpt>
      <trkpt lat="45.0195" lon="3.80849">
        <ele>886.011</ele>
        <time>2013-06-11T08:15:49Z</time>
      </trkpt>
      <trkpt lat="45.01961" lon="3.80838">
        <ele>886.507</ele>
        <time>2013-06-11T08:16:06Z</time>
      </trkpt>
      <trkpt lat="45.01961" lon="3.80836">
        <ele>886.066</ele>
        <time>2013-06-11T08:16:07Z</time>
      </trkpt>
      <trkpt lat="45.01962" lon="3.80831">
        <ele>886.539</ele>
        <time>2013-06-11T08:16:11Z</time>
      </trkpt>
      <trkpt lat="45.01963" lon="3.80814">
        <ele>885.583</ele>
        <time>2013-06-11T08:16:26Z</time>
      </trkpt>
      <trkpt lat="45.01964" lon="3.80811">
        <ele>886.086</ele>
        <time>2013-06-11T08:16:28Z</time>
      </trkpt>
      <trkpt lat="45.01969" lon="3.80781">
        <ele>885.565</ele>
        <time>2013-06-11T08:16:48Z</time>
      </trkpt>
      <trkpt lat="45.01971" lon="3.80775">
        <ele>885.561</ele>
        <time>2013-06-11T08:16:53Z</time>
      </trkpt>
      <trkpt lat="45.01972" lon="3.80764">
        <ele>885.031</ele>
        <time>2013-06-11T08:17:00Z</time>
      </trkpt>
      <trkpt lat="45.01974" lon="3.80745">
        <ele>884.177</ele>
        <time>2013-06-11T08:17:13Z</time>
      </trkpt>
      <trkpt lat="45.01974" lon="3.80725">
        <ele>883.661</ele>
        <time>2013-06-11T08:17:27Z</time>
      </trkpt>
      <trkpt lat="45.01969" lon="3.80708">
        <ele>882.127</ele>
        <time>2013-06-11T08:17:44Z</time>
      </trkpt>
      <trkpt lat="45.01967" lon="3.80695">
        <ele>881.707</ele>
        <time>2013-06-11T08:17:53Z</time>
      </trkpt>
      <trkpt lat="45.01966" lon="3.80684">
        <ele>882.151</ele>
        <time>2013-06-11T08:18:07Z</time>
      </trkpt>
      <trkpt lat="45.01965" lon="3.80672">
        <ele>882.144</ele>
        <time>2013-06-11T08:18:21Z</time>
      </trkpt>
      <trkpt lat="45.01965" lon="3.80656">
        <ele>882.618</ele>
        <time>2013-06-11T08:18:43Z</time>
      </trkpt>
      <trkpt lat="45.01967" lon="3.80646">
        <ele>882.651</ele>
        <time>2013-06-11T08:18:53Z</time>
      </trkpt>
      <trkpt lat="45.01969" lon="3.80644">
        <ele>882.67</ele>
        <time>2013-06-11T08:18:56Z</time>
      </trkpt>
      <trkpt lat="45.01967" lon="3.80628">
        <ele>883.156</ele>
        <time>2013-06-11T08:19:12Z</time>
      </trkpt>
      <trkpt lat="45.01967" lon="3.80625">
        <ele>883.646</ele>
        <time>2013-06-11T08:19:14Z</time>
      </trkpt>
      <trkpt lat="45.01964" lon="3.80615">
        <ele>884.642</ele>
        <time>2013-06-11T08:19:27Z</time>
      </trkpt>
      <trkpt lat="45.01967" lon="3.80617">
        <ele>884.122</ele>
        <time>2013-06-11T08:20:19Z</time>
      </trkpt>
      <trkpt lat="45.01967" lon="3.80617">
        <ele>884.114</ele>
        <time>2013-06-11T08:21:45Z</time>
      </trkpt>
      <trkpt lat="45.01962" lon="3.80611">
        <ele>884.607</ele>
        <time>2013-06-11T08:22:18Z</time>
      </trkpt>
      <trkpt lat="45.01959" lon="3.80608">
        <ele>885.048</ele>
        <time>2013-06-11T08:22:22Z</time>
      </trkpt>
      <trkpt lat="45.01945" lon="3.80597">
        <ele>885.541</ele>
        <time>2013-06-11T08:22:38Z</time>
      </trkpt>
      <trkpt lat="45.01943" lon="3.80596">
        <ele>886.585</ele>
        <time>2013-06-11T08:22:40Z</time>
      </trkpt>
      <trkpt lat="45.0193" lon="3.80585">
        <ele>886.048</ele>
        <time>2013-06-11T08:22:54Z</time>
      </trkpt>
      <trkpt lat="45.01921" lon="3.80577">
        <ele>886.527</ele>
        <time>2013-06-11T08:23:09Z</time>
      </trkpt>
      <trkpt lat="45.01912" lon="3.80569">
        <ele>888.413</ele>
        <time>2013-06-11T08:23:20Z</time>
      </trkpt>
      <trkpt lat="45.01902" lon="3.80561">
        <ele>888.973</ele>
        <time>2013-06-11T08:23:32Z</time>
      </trkpt>
      <trkpt lat="45.01893" lon="3.80553">
        <ele>889.459</ele>
        <time>2013-06-11T08:23:43Z</time>
      </trkpt>
      <trkpt lat="45.01876" lon="3.80542">
        <ele>889.803</ele>
        <time>2013-06-11T08:23:58Z</time>
      </trkpt>
      <trkpt lat="45.01864" lon="3.8053">
        <ele>889.823</ele>
        <time>2013-06-11T08:24:12Z</time>
      </trkpt>
      <trkpt lat="45.01851" lon="3.80518">
        <ele>890.807</ele>
        <time>2013-06-11T08:24:27Z</time>
      </trkpt>
      <trkpt lat="45.01836" lon="3.80509">
        <ele>891.889</ele>
        <time>2013-06-11T08:24:45Z</time>
      </trkpt>
      <trkpt lat="45.01824" lon="3.80498">
        <ele>891.882</ele>
        <time>2013-06-11T08:25:01Z</time>
      </trkpt>
      <trkpt lat="45.01809" lon="3.80488">
        <ele>893.736</ele>
        <time>2013-06-11T08:25:20Z</time>
      </trkpt>
      <trkpt lat="45.01802" lon="3.80482">
        <ele>894.299</ele>
        <time>2013-06-11T08:25:36Z</time>
      </trkpt>
      <trkpt lat="45.01792" lon="3.8047">
        <ele>894.648</ele>
        <time>2013-06-11T08:25:52Z</time>
      </trkpt>
      <trkpt lat="45.01781" lon="3.80456">
        <ele>895.644</ele>
        <time>2013-06-11T08:26:06Z</time>
      </trkpt>
      <trkpt lat="45.01769" lon="3.80439">
        <ele>895.614</ele>
        <time>2013-06-11T08:26:21Z</time>
      </trkpt>
      <trkpt lat="45.01763" lon="3.80431">
        <ele>895.611</ele>
        <time>2013-06-11T08:26:35Z</time>
      </trkpt>
      <trkpt lat="45.01762" lon="3.8043">
        <ele>895.621</ele>
        <time>2013-06-11T08:27:59Z</time>
      </trkpt>
      <trkpt lat="45.01746" lon="3.80406">
        <ele>896.603</ele>
        <time>2013-06-11T08:28:21Z</time>
      </trkpt>
      <trkpt lat="45.01733" lon="3.80384">
        <ele>897.007</ele>
        <time>2013-06-11T08:28:39Z</time>
      </trkpt>
      <trkpt lat="45.0173" lon="3.80379">
        <ele>896.125</ele>
        <time>2013-06-11T08:28:58Z</time>
      </trkpt>
      <trkpt lat="45.01719" lon="3.80355">
        <ele>897.568</ele>
        <time>2013-06-11T08:29:18Z</time>
      </trkpt>
      <trkpt lat="45.01706" lon="3.80333">
        <ele>897.532</ele>
        <time>2013-06-11T08:29:36Z</time>
      </trkpt>
      <trkpt lat="45.01695" lon="3.80311">
        <ele>898.025</ele>
        <time>2013-06-11T08:29:52Z</time>
      </trkpt>
      <trkpt lat="45.01688" lon="3.80292">
        <ele>897.534</ele>
        <time>2013-06-11T08:30:05Z</time>
      </trkpt>
      <trkpt lat="45.01674" lon="3.80271">
        <ele>898.04</ele>
        <time>2013-06-11T08:30:24Z</time>
      </trkpt>
      <trkpt lat="45.01663" lon="3.8026">
        <ele>898.56</ele>
        <time>2013-06-11T08:30:36Z</time>
      </trkpt>
      <trkpt lat="45.01652" lon="3.8025">
        <ele>898.097</ele>
        <time>2013-06-11T08:30:48Z</time>
      </trkpt>
      <trkpt lat="45.01639" lon="3.80231">
        <ele>899.023</ele>
        <time>2013-06-11T08:31:06Z</time>
      </trkpt>
      <trkpt lat="45.01625" lon="3.8021">
        <ele>898.525</ele>
        <time>2013-06-11T08:31:26Z</time>
      </trkpt>
      <trkpt lat="45.01609" lon="3.80189">
        <ele>899.507</ele>
        <time>2013-06-11T08:31:45Z</time>
      </trkpt>
      <trkpt lat="45.01594" lon="3.80163">
        <ele>899.083</ele>
        <time>2013-06-11T08:32:07Z</time>
      </trkpt>
      <trkpt lat="45.0158" lon="3.80142">
        <ele>899.926</ele>
        <time>2013-06-11T08:32:25Z</time>
      </trkpt>
      <trkpt lat="45.01562" lon="3.80119">
        <ele>899.59</ele>
        <time>2013-06-11T08:32:46Z</time>
      </trkpt>
      <trkpt lat="45.0154" lon="3.80094">
        <ele>900.953</ele>
        <time>2013-06-11T08:33:10Z</time>
      </trkpt>
      <trkpt lat="45.01525" lon="3.80076">
        <ele>900.442</ele>
        <time>2013-06-11T08:33:27Z</time>
      </trkpt>
      <trkpt lat="45.01515" lon="3.80064">
        <ele>900.988</ele>
        <time>2013-06-11T08:33:39Z</time>
      </trkpt>
      <trkpt lat="45.01504" lon="3.80044">
        <ele>902.328</ele>
        <time>2013-06-11T08:33:54Z</time>
      </trkpt>
      <trkpt lat="45.0149" lon="3.80013">
        <ele>902.394</ele>
        <time>2013-06-11T08:34:17Z</time>
      </trkpt>
      <trkpt lat="45.01475" lon="3.79985">
        <ele>902.857</ele>
        <time>2013-06-11T08:34:40Z</time>
      </trkpt>
      <trkpt lat="45.01458" lon="3.7996">
        <ele>903.822</ele>
        <time>2013-06-11T08:35:02Z</time>
      </trkpt>
      <trkpt lat="45.01444" lon="3.79946">
        <ele>904.307</ele>
        <time>2013-06-11T08:35:18Z</time>
      </trkpt>
      <trkpt lat="45.01438" lon="3.79942">
        <ele>904.323</ele>
        <time>2013-06-11T08:35:25Z</time>
      </trkpt>
      <trkpt lat="45.01434" lon="3.79934">
        <ele>904.766</ele>
        <time>2013-06-11T08:35:32Z</time>
      </trkpt>
      <trkpt lat="45.01426" lon="3.79927">
        <ele>905.79</ele>
        <time>2013-06-11T08:35:46Z</time>
      </trkpt>
      <trkpt lat="45.01423" lon="3.7992">
        <ele>905.263</ele>
        <time>2013-06-11T08:35:52Z</time>
      </trkpt>
      <trkpt lat="45.01426" lon="3.79903">
        <ele>905.742</ele>
        <time>2013-06-11T08:36:10Z</time>
      </trkpt>
      <trkpt lat="45.01427" lon="3.79887">
        <ele>905.768</ele>
        <time>2013-06-11T08:36:28Z</time>
      </trkpt>
      <trkpt lat="45.01424" lon="3.79872">
        <ele>906.298</ele>
        <time>2013-06-11T08:36:40Z</time>
      </trkpt>
      <trkpt lat="45.01423" lon="3.7986">
        <ele>907.172</ele>
        <time>2013-06-11T08:36:50Z</time>
      </trkpt>
      <trkpt lat="45.01422" lon="3.79857">
        <ele>907.613</ele>
        <time>2013-06-11T08:36:52Z</time>
      </trkpt>
      <trkpt lat="45.01422" lon="3.79841">
        <ele>908.614</ele>
        <time>2013-06-11T08:37:07Z</time>
      </trkpt>
      <trkpt lat="45.01421" lon="3.79823">
        <ele>909.107</ele>
        <time>2013-06-11T08:37:19Z</time>
      </trkpt>
      <trkpt lat="45.01422" lon="3.79786">
        <ele>909.551</ele>
        <time>2013-06-11T08:37:45Z</time>
      </trkpt>
      <trkpt lat="45.0142" lon="3.79757">
        <ele>911.074</ele>
        <time>2013-06-11T08:38:05Z</time>
      </trkpt>
      <trkpt lat="45.01416" lon="3.79734">
        <ele>911.558</ele>
        <time>2013-06-11T08:38:23Z</time>
      </trkpt>
      <trkpt lat="45.01414" lon="3.79726">
        <ele>913.411</ele>
        <time>2013-06-11T08:38:28Z</time>
      </trkpt>
      <trkpt lat="45.01407" lon="3.79696">
        <ele>912.48</ele>
        <time>2013-06-11T08:38:48Z</time>
      </trkpt>
      <trkpt lat="45.01403" lon="3.79685">
        <ele>912.926</ele>
        <time>2013-06-11T08:38:58Z</time>
      </trkpt>
      <trkpt lat="45.014" lon="3.79666">
        <ele>913.456</ele>
        <time>2013-06-11T08:39:13Z</time>
      </trkpt>
      <trkpt lat="45.01398" lon="3.79654">
        <ele>913.477</ele>
        <time>2013-06-11T08:39:22Z</time>
      </trkpt>
      <trkpt lat="45.01397" lon="3.79649">
        <ele>913.961</ele>
        <time>2013-06-11T08:39:25Z</time>
      </trkpt>
      <trkpt lat="45.01397" lon="3.79642">
        <ele>914.427</ele>
        <time>2013-06-11T08:39:29Z</time>
      </trkpt>
      <trkpt lat="45.01402" lon="3.79622">
        <ele>914.407</ele>
        <time>2013-06-11T08:39:42Z</time>
      </trkpt>
      <trkpt lat="45.01403" lon="3.79615">
        <ele>914.891</ele>
        <time>2013-06-11T08:39:46Z</time>
      </trkpt>
      <trkpt lat="45.01407" lon="3.79591">
        <ele>915.884</ele>
        <time>2013-06-11T08:40:00Z</time>
      </trkpt>
      <trkpt lat="45.01408" lon="3.79577">
        <ele>915.818</ele>
        <time>2013-06-11T08:40:09Z</time>
      </trkpt>
      <trkpt lat="45.01406" lon="3.79556">
        <ele>916.311</ele>
        <time>2013-06-11T08:40:22Z</time>
      </trkpt>
      <trkpt lat="45.01404" lon="3.79538">
        <ele>917.28</ele>
        <time>2013-06-11T08:40:35Z</time>
      </trkpt>
      <trkpt lat="45.01401" lon="3.79515">
        <ele>918.266</ele>
        <time>2013-06-11T08:40:50Z</time>
      </trkpt>
      <trkpt lat="45.01399" lon="3.79498">
        <ele>918.266</ele>
        <time>2013-06-11T08:41:05Z</time>
      </trkpt>
      <trkpt lat="45.01392" lon="3.79468">
        <ele>919.271</ele>
        <time>2013-06-11T08:41:29Z</time>
      </trkpt>
      <trkpt lat="45.0138" lon="3.79448">
        <ele>920.641</ele>
        <time>2013-06-11T08:41:49Z</time>
      </trkpt>
      <trkpt lat="45.01371" lon="3.79432">
        <ele>921.115</ele>
        <time>2013-06-11T08:42:03Z</time>
      </trkpt>
      <trkpt lat="45.01363" lon="3.79419">
        <ele>921.607</ele>
        <time>2013-06-11T08:42:14Z</time>
      </trkpt>
      <trkpt lat="45.01353" lon="3.79404">
        <ele>922.091</ele>
        <time>2013-06-11T08:42:27Z</time>
      </trkpt>
      <trkpt lat="45.01341" lon="3.79389">
        <ele>922.034</ele>
        <time>2013-06-11T08:42:42Z</time>
      </trkpt>
      <trkpt lat="45.0134" lon="3.79387">
        <ele>922.598</ele>
        <time>2013-06-11T08:42:45Z</time>
      </trkpt>
      <trkpt lat="45.01334" lon="3.79375">
        <ele>923.091</ele>
        <time>2013-06-11T08:42:56Z</time>
      </trkpt>
      <trkpt lat="45.01322" lon="3.79362">
        <ele>924.46</ele>
        <time>2013-06-11T08:43:12Z</time>
      </trkpt>
      <trkpt lat="45.01312" lon="3.79349">
        <ele>925.966</ele>
        <time>2013-06-11T08:43:24Z</time>
      </trkpt>
      <trkpt lat="45.013" lon="3.79335">
        <ele>926.866</ele>
        <time>2013-06-11T08:43:38Z</time>
      </trkpt>
      <trkpt lat="45.01292" lon="3.79322">
        <ele>927.374</ele>
        <time>2013-06-11T08:43:51Z</time>
      </trkpt>
      <trkpt lat="45.01285" lon="3.79316">
        <ele>928.356</ele>
        <time>2013-06-11T08:43:57Z</time>
      </trkpt>
      <trkpt lat="45.01283" lon="3.79313">
        <ele>928.821</ele>
        <time>2013-06-11T08:44:00Z</time>
      </trkpt>
      <trkpt lat="45.01274" lon="3.79298">
        <ele>929.707</ele>
        <time>2013-06-11T08:44:13Z</time>
      </trkpt>
      <trkpt lat="45.01265" lon="3.79285">
        <ele>931.291</ele>
        <time>2013-06-11T08:44:27Z</time>
      </trkpt>
      <trkpt lat="45.0126" lon="3.79272">
        <ele>931.794</ele>
        <time>2013-06-11T08:44:44Z</time>
      </trkpt>
      <trkpt lat="45.01251" lon="3.79257">
        <ele>933.678</ele>
        <time>2013-06-11T08:45:03Z</time>
      </trkpt>
      <trkpt lat="45.01243" lon="3.79245">
        <ele>934.531</ele>
        <time>2013-06-11T08:45:13Z</time>
      </trkpt>
      <trkpt lat="45.01233" lon="3.79227">
        <ele>935.54</ele>
        <time>2013-06-11T08:45:30Z</time>
      </trkpt>
      <trkpt lat="45.01225" lon="3.79203">
        <ele>936.016</ele>
        <time>2013-06-11T08:45:46Z</time>
      </trkpt>
      <trkpt lat="45.01219" lon="3.79186">
        <ele>937.466</ele>
        <time>2013-06-11T08:45:59Z</time>
      </trkpt>
      <trkpt lat="45.01217" lon="3.79181">
        <ele>937.459</ele>
        <time>2013-06-11T08:46:03Z</time>
      </trkpt>
      <trkpt lat="45.01209" lon="3.79156">
        <ele>938.903</ele>
        <time>2013-06-11T08:46:22Z</time>
      </trkpt>
      <trkpt lat="45.01204" lon="3.79139">
        <ele>938.923</ele>
        <time>2013-06-11T08:46:38Z</time>
      </trkpt>
      <trkpt lat="45.01197" lon="3.79121">
        <ele>940.307</ele>
        <time>2013-06-11T08:46:51Z</time>
      </trkpt>
      <trkpt lat="45.01189" lon="3.79102">
        <ele>940.889</ele>
        <time>2013-06-11T08:47:06Z</time>
      </trkpt>
      <trkpt lat="45.01184" lon="3.79093">
        <ele>941.762</ele>
        <time>2013-06-11T08:47:13Z</time>
      </trkpt>
      <trkpt lat="45.01176" lon="3.79072">
        <ele>942.246</ele>
        <time>2013-06-11T08:47:28Z</time>
      </trkpt>
      <trkpt lat="45.01163" lon="3.79048">
        <ele>942.279</ele>
        <time>2013-06-11T08:47:46Z</time>
      </trkpt>
      <trkpt lat="45.01155" lon="3.79024">
        <ele>942.278</ele>
        <time>2013-06-11T08:48:03Z</time>
      </trkpt>
      <trkpt lat="45.01153" lon="3.78995">
        <ele>942.744</ele>
        <time>2013-06-11T08:48:22Z</time>
      </trkpt>
      <trkpt lat="45.01152" lon="3.78965">
        <ele>943.274</ele>
        <time>2013-06-11T08:48:39Z</time>
      </trkpt>
      <trkpt lat="45.01149" lon="3.78931">
        <ele>944.639</ele>
        <time>2013-06-11T08:48:58Z</time>
      </trkpt>
      <trkpt lat="45.01149" lon="3.78916">
        <ele>944.601</ele>
        <time>2013-06-11T08:49:09Z</time>
      </trkpt>
      <trkpt lat="45.01149" lon="3.7889">
        <ele>945.121</ele>
        <time>2013-06-11T08:49:26Z</time>
      </trkpt>
      <trkpt lat="45.01149" lon="3.78872">
        <ele>945.107</ele>
        <time>2013-06-11T08:49:40Z</time>
      </trkpt>
      <trkpt lat="45.01148" lon="3.78847">
        <ele>946.697</ele>
        <time>2013-06-11T08:49:56Z</time>
      </trkpt>
      <trkpt lat="45.01148" lon="3.78827">
        <ele>946.14</ele>
        <time>2013-06-11T08:50:09Z</time>
      </trkpt>
      <trkpt lat="45.01148" lon="3.78804">
        <ele>946.624</ele>
        <time>2013-06-11T08:50:25Z</time>
      </trkpt>
      <trkpt lat="45.01148" lon="3.78782">
        <ele>947.557</ele>
        <time>2013-06-11T08:50:39Z</time>
      </trkpt>
      <trkpt lat="45.01148" lon="3.78761">
        <ele>948.046</ele>
        <time>2013-06-11T08:50:52Z</time>
      </trkpt>
      <trkpt lat="45.01147" lon="3.78753">
        <ele>947.522</ele>
        <time>2013-06-11T08:50:57Z</time>
      </trkpt>
      <trkpt lat="45.01145" lon="3.78727">
        <ele>948.022</ele>
        <time>2013-06-11T08:51:14Z</time>
      </trkpt>
      <trkpt lat="45.01141" lon="3.78705">
        <ele>948.022</ele>
        <time>2013-06-11T08:51:27Z</time>
      </trkpt>
      <trkpt lat="45.01137" lon="3.78687">
        <ele>948.562</ele>
        <time>2013-06-11T08:51:41Z</time>
      </trkpt>
      <trkpt lat="45.01135" lon="3.78675">
        <ele>949.408</ele>
        <time>2013-06-11T08:51:49Z</time>
      </trkpt>
      <trkpt lat="45.01129" lon="3.78653">
        <ele>949.407</ele>
        <time>2013-06-11T08:52:04Z</time>
      </trkpt>
      <trkpt lat="45.01124" lon="3.78637">
        <ele>950.956</ele>
        <time>2013-06-11T08:52:16Z</time>
      </trkpt>
      <trkpt lat="45.0112" lon="3.7863">
        <ele>951.869</ele>
        <time>2013-06-11T08:52:22Z</time>
      </trkpt>
      <trkpt lat="45.01116" lon="3.7862">
        <ele>951.463</ele>
        <time>2013-06-11T08:52:29Z</time>
      </trkpt>
      <trkpt lat="45.01102" lon="3.78599">
        <ele>951.866</ele>
        <time>2013-06-11T08:52:47Z</time>
      </trkpt>
      <trkpt lat="45.01088" lon="3.78577">
        <ele>952.885</ele>
        <time>2013-06-11T08:53:07Z</time>
      </trkpt>
      <trkpt lat="45.01075" lon="3.78557">
        <ele>953.341</ele>
        <time>2013-06-11T08:53:25Z</time>
      </trkpt>
      <trkpt lat="45.01059" lon="3.78533">
        <ele>954.231</ele>
        <time>2013-06-11T08:53:44Z</time>
      </trkpt>
      <trkpt lat="45.01053" lon="3.78516">
        <ele>955.798</ele>
        <time>2013-06-11T08:54:01Z</time>
      </trkpt>
      <trkpt lat="45.01051" lon="3.78504">
        <ele>956.215</ele>
        <time>2013-06-11T08:54:17Z</time>
      </trkpt>
      <trkpt lat="45.01049" lon="3.78481">
        <ele>956.226</ele>
        <time>2013-06-11T08:54:34Z</time>
      </trkpt>
      <trkpt lat="45.01049" lon="3.78452">
        <ele>959.107</ele>
        <time>2013-06-11T08:54:53Z</time>
      </trkpt>
      <trkpt lat="45.01047" lon="3.78428">
        <ele>957.613</ele>
        <time>2013-06-11T08:55:14Z</time>
      </trkpt>
      <trkpt lat="45.01047" lon="3.78429">
        <ele>958.196</ele>
        <time>2013-06-11T08:55:51Z</time>
      </trkpt>
      <trkpt lat="45.01047" lon="3.7843">
        <ele>958.64</ele>
        <time>2013-06-11T08:56:13Z</time>
      </trkpt>
      <trkpt lat="45.01047" lon="3.7843">
        <ele>958.613</ele>
        <time>2013-06-11T08:56:14Z</time>
      </trkpt>
      <trkpt lat="45.01046" lon="3.78421">
        <ele>959.112</ele>
        <time>2013-06-11T08:56:33Z</time>
      </trkpt>
      <trkpt lat="45.01045" lon="3.78399">
        <ele>959.588</ele>
        <time>2013-06-11T08:56:49Z</time>
      </trkpt>
      <trkpt lat="45.01042" lon="3.78374">
        <ele>960.058</ele>
        <time>2013-06-11T08:57:06Z</time>
      </trkpt>
      <trkpt lat="45.01039" lon="3.78351">
        <ele>961.557</ele>
        <time>2013-06-11T08:57:23Z</time>
      </trkpt>
      <trkpt lat="45.01038" lon="3.78326">
        <ele>961.9</ele>
        <time>2013-06-11T08:57:41Z</time>
      </trkpt>
      <trkpt lat="45.01035" lon="3.78294">
        <ele>963.42</ele>
        <time>2013-06-11T08:58:04Z</time>
      </trkpt>
      <trkpt lat="45.01035" lon="3.78277">
        <ele>963.407</ele>
        <time>2013-06-11T08:58:18Z</time>
      </trkpt>
      <trkpt lat="45.01032" lon="3.78256">
        <ele>964.389</ele>
        <time>2013-06-11T08:58:34Z</time>
      </trkpt>
      <trkpt lat="45.01032" lon="3.78232">
        <ele>964.322</ele>
        <time>2013-06-11T08:58:52Z</time>
      </trkpt>
      <trkpt lat="45.01029" lon="3.78203">
        <ele>965.866</ele>
        <time>2013-06-11T08:59:11Z</time>
      </trkpt>
      <trkpt lat="45.01028" lon="3.78195">
        <ele>965.329</ele>
        <time>2013-06-11T08:59:16Z</time>
      </trkpt>
      <trkpt lat="45.01024" lon="3.7816">
        <ele>966.338</ele>
        <time>2013-06-11T08:59:39Z</time>
      </trkpt>
      <trkpt lat="45.01021" lon="3.78129">
        <ele>966.794</ele>
        <time>2013-06-11T09:00:00Z</time>
      </trkpt>
      <trkpt lat="45.01019" lon="3.78103">
        <ele>966.764</ele>
        <time>2013-06-11T09:00:19Z</time>
      </trkpt>
      <trkpt lat="45.01019" lon="3.781">
        <ele>966.746</ele>
        <time>2013-06-11T09:00:21Z</time>
      </trkpt>
      <trkpt lat="45.01018" lon="3.78097">
        <ele>967.288</ele>
        <time>2013-06-11T09:00:23Z</time>
      </trkpt>
      <trkpt lat="45.01017" lon="3.78079">
        <ele>967.216</ele>
        <time>2013-06-11T09:00:36Z</time>
      </trkpt>
      <trkpt lat="45.01013" lon="3.78055">
        <ele>967.707</ele>
        <time>2013-06-11T09:00:52Z</time>
      </trkpt>
      <trkpt lat="45.01007" lon="3.78027">
        <ele>969.128</ele>
        <time>2013-06-11T09:01:11Z</time>
      </trkpt>
      <trkpt lat="45.01002" lon="3.77998">
        <ele>969.671</ele>
        <time>2013-06-11T09:01:31Z</time>
      </trkpt>
      <trkpt lat="45.00998" lon="3.77973">
        <ele>970.155</ele>
        <time>2013-06-11T09:01:49Z</time>
      </trkpt>
      <trkpt lat="45.00994" lon="3.77945">
        <ele>970.138</ele>
        <time>2013-06-11T09:02:07Z</time>
      </trkpt>
      <trkpt lat="45.00988" lon="3.7792">
        <ele>971.137</ele>
        <time>2013-06-11T09:02:22Z</time>
      </trkpt>
      <trkpt lat="45.00984" lon="3.77898">
        <ele>971.553</ele>
        <time>2013-06-11T09:02:36Z</time>
      </trkpt>
      <trkpt lat="45.00979" lon="3.77874">
        <ele>972.013</ele>
        <time>2013-06-11T09:02:52Z</time>
      </trkpt>
      <trkpt lat="45.00974" lon="3.77848">
        <ele>972.514</ele>
        <time>2013-06-11T09:03:12Z</time>
      </trkpt>
      <trkpt lat="45.00972" lon="3.77827">
        <ele>973.554</ele>
        <time>2013-06-11T09:03:26Z</time>
      </trkpt>
      <trkpt lat="45.00965" lon="3.77799">
        <ele>974.009</ele>
        <time>2013-06-11T09:03:42Z</time>
      </trkpt>
      <trkpt lat="45.0096" lon="3.77772">
        <ele>974.907</ele>
        <time>2013-06-11T09:03:58Z</time>
      </trkpt>
      <trkpt lat="45.00954" lon="3.77754">
        <ele>975.985</ele>
        <time>2013-06-11T09:04:13Z</time>
      </trkpt>
      <trkpt lat="45.00953" lon="3.7775">
        <ele>975.998</ele>
        <time>2013-06-11T09:04:17Z</time>
      </trkpt>
      <trkpt lat="45.00946" lon="3.77727">
        <ele>976.822</ele>
        <time>2013-06-11T09:04:34Z</time>
      </trkpt>
      <trkpt lat="45.00946" lon="3.77715">
        <ele>976.825</ele>
        <time>2013-06-11T09:04:44Z</time>
      </trkpt>
      <trkpt lat="45.00942" lon="3.77696">
        <ele>977.864</ele>
        <time>2013-06-11T09:04:58Z</time>
      </trkpt>
      <trkpt lat="45.00942" lon="3.77683">
        <ele>978.89</ele>
        <time>2013-06-11T09:05:12Z</time>
      </trkpt>
      <trkpt lat="45.00939" lon="3.77672">
        <ele>979.24</ele>
        <time>2013-06-11T09:05:28Z</time>
      </trkpt>
      <trkpt lat="45.00939" lon="3.77656">
        <ele>979.781</ele>
        <time>2013-06-11T09:05:55Z</time>
      </trkpt>
      <trkpt lat="45.00948" lon="3.77639">
        <ele>980.261</ele>
        <time>2013-06-11T09:06:19Z</time>
      </trkpt>
      <trkpt lat="45.00962" lon="3.77626">
        <ele>979.717</ele>
        <time>2013-06-11T09:06:44Z</time>
      </trkpt>
      <trkpt lat="45.00961" lon="3.77621">
        <ele>981.207</ele>
        <time>2013-06-11T09:07:03Z</time>
      </trkpt>
      <trkpt lat="45.00961" lon="3.77618">
        <ele>980.772</ele>
        <time>2013-06-11T09:07:30Z</time>
      </trkpt>
      <trkpt lat="45.00966" lon="3.77608">
        <ele>980.265</ele>
        <time>2013-06-11T09:07:48Z</time>
      </trkpt>
      <trkpt lat="45.00967" lon="3.77607">
        <ele>980.259</ele>
        <time>2013-06-11T09:07:49Z</time>
      </trkpt>
      <trkpt lat="45.00974" lon="3.77593">
        <ele>981.262</ele>
        <time>2013-06-11T09:08:05Z</time>
      </trkpt>
      <trkpt lat="45.00977" lon="3.77582">
        <ele>981.641</ele>
        <time>2013-06-11T09:08:16Z</time>
      </trkpt>
      <trkpt lat="45.00978" lon="3.77571">
        <ele>981.627</ele>
        <time>2013-06-11T09:08:25Z</time>
      </trkpt>
      <trkpt lat="45.00983" lon="3.77557">
        <ele>982.647</ele>
        <time>2013-06-11T09:08:37Z</time>
      </trkpt>
      <trkpt lat="45.00988" lon="3.77547">
        <ele>982.164</ele>
        <time>2013-06-11T09:08:46Z</time>
      </trkpt>
      <trkpt lat="45.00994" lon="3.77535">
        <ele>983.106</ele>
        <time>2013-06-11T09:09:02Z</time>
      </trkpt>
      <trkpt lat="45.01002" lon="3.77531">
        <ele>983.616</ele>
        <time>2013-06-11T09:09:21Z</time>
      </trkpt>
      <trkpt lat="45.01004" lon="3.77523">
        <ele>983.607</ele>
        <time>2013-06-11T09:09:54Z</time>
      </trkpt>
      <trkpt lat="45.01008" lon="3.77514">
        <ele>984.02</ele>
        <time>2013-06-11T09:10:02Z</time>
      </trkpt>
      <trkpt lat="45.01008" lon="3.77509">
        <ele>983.663</ele>
        <time>2013-06-11T09:10:05Z</time>
      </trkpt>
      <trkpt lat="45.01004" lon="3.77488">
        <ele>985.087</ele>
        <time>2013-06-11T09:10:19Z</time>
      </trkpt>
      <trkpt lat="45.01" lon="3.77484">
        <ele>985.02</ele>
        <time>2013-06-11T09:10:24Z</time>
      </trkpt>
      <trkpt lat="45.0099" lon="3.77478">
        <ele>985.049</ele>
        <time>2013-06-11T09:10:39Z</time>
      </trkpt>
      <trkpt lat="45.00985" lon="3.77483">
        <ele>984.535</ele>
        <time>2013-06-11T09:10:51Z</time>
      </trkpt>
      <trkpt lat="45.00979" lon="3.77476">
        <ele>985.565</ele>
        <time>2013-06-11T09:10:56Z</time>
      </trkpt>
      <trkpt lat="45.00952" lon="3.77493">
        <ele>984.537</ele>
        <time>2013-06-11T09:11:16Z</time>
      </trkpt>
      <trkpt lat="45.00958" lon="3.77518">
        <ele>985.049</ele>
        <time>2013-06-11T09:11:22Z</time>
      </trkpt>
      <trkpt lat="45.00969" lon="3.77516">
        <ele>985.513</ele>
        <time>2013-06-11T09:11:27Z</time>
      </trkpt>
      <trkpt lat="45.01021" lon="3.77464">
        <ele>985.007</ele>
        <time>2013-06-11T09:11:39Z</time>
      </trkpt>
      <trkpt lat="45.01021" lon="3.77464">
        <ele>985.067</ele>
        <time>2013-06-11T09:11:46Z</time>
      </trkpt>
      <trkpt lat="45.01021" lon="3.77464">
        <ele>985.04</ele>
        <time>2013-06-11T09:11:57Z</time>
      </trkpt>
      <trkpt lat="45.01021" lon="3.77464">
        <ele>984.594</ele>
        <time>2013-06-11T09:12:08Z</time>
      </trkpt>
      <trkpt lat="45.00993" lon="3.7753">
        <ele>985.047</ele>
        <time>2013-06-11T09:12:18Z</time>
      </trkpt>
      <trkpt lat="45.00991" lon="3.77533">
        <ele>985.076</ele>
        <time>2013-06-11T09:12:31Z</time>
      </trkpt>
      <trkpt lat="45.00994" lon="3.77529">
        <ele>985.072</ele>
        <time>2013-06-11T09:12:35Z</time>
      </trkpt>
      <trkpt lat="45.00996" lon="3.77524">
        <ele>985.062</ele>
        <time>2013-06-11T09:12:50Z</time>
      </trkpt>
      <trkpt lat="45.00996" lon="3.77524">
        <ele>984.545</ele>
        <time>2013-06-11T09:12:56Z</time>
      </trkpt>
      <trkpt lat="45.01011" lon="3.77496">
        <ele>984.547</ele>
        <time>2013-06-11T09:12:58Z</time>
      </trkpt>
      <trkpt lat="45.00991" lon="3.77477">
        <ele>985.511</ele>
        <time>2013-06-11T09:13:07Z</time>
      </trkpt>
      <trkpt lat="45.00991" lon="3.77477">
        <ele>985.007</ele>
        <time>2013-06-11T09:13:26Z</time>
      </trkpt>
      <trkpt lat="45.00991" lon="3.77477">
        <ele>984.538</ele>
        <time>2013-06-11T09:13:38Z</time>
      </trkpt>
      <trkpt lat="45.00991" lon="3.77477">
        <ele>986.091</ele>
        <time>2013-06-11T09:13:55Z</time>
      </trkpt>
      <trkpt lat="45.00991" lon="3.77477">
        <ele>985.535</ele>
        <time>2013-06-11T09:14:05Z</time>
      </trkpt>
      <trkpt lat="45.00991" lon="3.77477">
        <ele>986.058</ele>
        <time>2013-06-11T09:14:19Z</time>
      </trkpt>
      <trkpt lat="45.00991" lon="3.77477">
        <ele>986.987</ele>
        <time>2013-06-11T09:14:39Z</time>
      </trkpt>
      <trkpt lat="45.00991" lon="3.77477">
        <ele>987.433</ele>
        <time>2013-06-11T09:14:57Z</time>
      </trkpt>
      <trkpt lat="45.00991" lon="3.77477">
        <ele>987.963</ele>
        <time>2013-06-11T09:15:15Z</time>
      </trkpt>
      <trkpt lat="45.00991" lon="3.77477">
        <ele>988.481</ele>
        <time>2013-06-11T09:15:27Z</time>
      </trkpt>
      <trkpt lat="45.01017" lon="3.77371">
        <ele>989.361</ele>
        <time>2013-06-11T09:15:46Z</time>
      </trkpt>
      <trkpt lat="45.01011" lon="3.77329">
        <ele>990.317</ele>
        <time>2013-06-11T09:16:05Z</time>
      </trkpt>
      <trkpt lat="45.01011" lon="3.77329">
        <ele>991.707</ele>
        <time>2013-06-11T09:16:18Z</time>
      </trkpt>
      <trkpt lat="45.01006" lon="3.77303">
        <ele>992.292</ele>
        <time>2013-06-11T09:16:35Z</time>
      </trkpt>
      <trkpt lat="45.01006" lon="3.77303">
        <ele>993.215</ele>
        <time>2013-06-11T09:16:55Z</time>
      </trkpt>
      <trkpt lat="45.01006" lon="3.77303">
        <ele>993.789</ele>
        <time>2013-06-11T09:17:13Z</time>
      </trkpt>
      <trkpt lat="45.01006" lon="3.77303">
        <ele>993.792</ele>
        <time>2013-06-11T09:17:19Z</time>
      </trkpt>
      <trkpt lat="45.01006" lon="3.77303">
        <ele>994.121</ele>
        <time>2013-06-11T09:17:39Z</time>
      </trkpt>
      <trkpt lat="45.01017" lon="3.7719">
        <ele>994.167</ele>
        <time>2013-06-11T09:17:59Z</time>
      </trkpt>
      <trkpt lat="45.01024" lon="3.77152">
        <ele>995.177</ele>
        <time>2013-06-11T09:18:20Z</time>
      </trkpt>
      <trkpt lat="45.01027" lon="3.77126">
        <ele>996.173</ele>
        <time>2013-06-11T09:18:38Z</time>
      </trkpt>
      <trkpt lat="45.01027" lon="3.77126">
        <ele>996.185</ele>
        <time>2013-06-11T09:18:44Z</time>
      </trkpt>
      <trkpt lat="45.01028" lon="3.77114">
        <ele>996.113</ele>
        <time>2013-06-11T09:18:48Z</time>
      </trkpt>
      <trkpt lat="45.01031" lon="3.77081">
        <ele>997.007</ele>
        <time>2013-06-11T09:19:09Z</time>
      </trkpt>
      <trkpt lat="45.01033" lon="3.77062">
        <ele>997.031</ele>
        <time>2013-06-11T09:19:30Z</time>
      </trkpt>
      <trkpt lat="45.01036" lon="3.77021">
        <ele>997.534</ele>
        <time>2013-06-11T09:19:50Z</time>
      </trkpt>
      <trkpt lat="45.01036" lon="3.76982">
        <ele>997.598</ele>
        <time>2013-06-11T09:20:14Z</time>
      </trkpt>
      <trkpt lat="45.01036" lon="3.76959">
        <ele>998.011</ele>
        <time>2013-06-11T09:20:32Z</time>
      </trkpt>
      <trkpt lat="45.01036" lon="3.76959">
        <ele>997.08</ele>
        <time>2013-06-11T09:20:50Z</time>
      </trkpt>
      <trkpt lat="45.01036" lon="3.76959">
        <ele>996.596</ele>
        <time>2013-06-11T09:21:07Z</time>
      </trkpt>
      <trkpt lat="45.0103" lon="3.76893">
        <ele>995.676</ele>
        <time>2013-06-11T09:21:25Z</time>
      </trkpt>
      <trkpt lat="45.01022" lon="3.76845">
        <ele>994.121</ele>
        <time>2013-06-11T09:21:45Z</time>
      </trkpt>
      <trkpt lat="45.01013" lon="3.76811">
        <ele>993.241</ele>
        <time>2013-06-11T09:22:07Z</time>
      </trkpt>
      <trkpt lat="45.01008" lon="3.76788">
        <ele>993.205</ele>
        <time>2013-06-11T09:22:23Z</time>
      </trkpt>
      <trkpt lat="45.01001" lon="3.76762">
        <ele>993.207</ele>
        <time>2013-06-11T09:22:38Z</time>
      </trkpt>
      <trkpt lat="45.00993" lon="3.76734">
        <ele>993.246</ele>
        <time>2013-06-11T09:22:55Z</time>
      </trkpt>
      <trkpt lat="45.00991" lon="3.76727">
        <ele>993.739</ele>
        <time>2013-06-11T09:23:10Z</time>
      </trkpt>
      <trkpt lat="45.00983" lon="3.76698">
        <ele>994.123</ele>
        <time>2013-06-11T09:23:26Z</time>
      </trkpt>
      <trkpt lat="45.0097" lon="3.76657">
        <ele>994.686</ele>
        <time>2013-06-11T09:23:46Z</time>
      </trkpt>
      <trkpt lat="45.0097" lon="3.76657">
        <ele>995.685</ele>
        <time>2013-06-11T09:24:06Z</time>
      </trkpt>
      <trkpt lat="45.00958" lon="3.76594">
        <ele>996.121</ele>
        <time>2013-06-11T09:24:26Z</time>
      </trkpt>
      <trkpt lat="45.00958" lon="3.76594">
        <ele>998.051</ele>
        <time>2013-06-11T09:24:40Z</time>
      </trkpt>
      <trkpt lat="45.00958" lon="3.76594">
        <ele>998.978</ele>
        <time>2013-06-11T09:24:56Z</time>
      </trkpt>
      <trkpt lat="45.00942" lon="3.76552">
        <ele>999.433</ele>
        <time>2013-06-11T09:25:02Z</time>
      </trkpt>
      <trkpt lat="45.00939" lon="3.76549">
        <ele>999.926</ele>
        <time>2013-06-11T09:25:08Z</time>
      </trkpt>
      <trkpt lat="45.00939" lon="3.76549">
        <ele>1001.407</ele>
        <time>2013-06-11T09:25:25Z</time>
      </trkpt>
      <trkpt lat="45.00939" lon="3.76549">
        <ele>1002.821</ele>
        <time>2013-06-11T09:25:43Z</time>
      </trkpt>
      <trkpt lat="45.00939" lon="3.76549">
        <ele>1005.234</ele>
        <time>2013-06-11T09:26:06Z</time>
      </trkpt>
      <trkpt lat="45.00939" lon="3.76549">
        <ele>1006.288</ele>
        <time>2013-06-11T09:26:25Z</time>
      </trkpt>
      <trkpt lat="45.00939" lon="3.76549">
        <ele>1009.061</ele>
        <time>2013-06-11T09:26:54Z</time>
      </trkpt>
      <trkpt lat="45.00864" lon="3.7647">
        <ele>1010.02</ele>
        <time>2013-06-11T09:27:13Z</time>
      </trkpt>
      <trkpt lat="45.00864" lon="3.76465">
        <ele>1011.466</ele>
        <time>2013-06-11T09:27:32Z</time>
      </trkpt>
      <trkpt lat="45.00867" lon="3.76452">
        <ele>1011.496</ele>
        <time>2013-06-11T09:27:55Z</time>
      </trkpt>
      <trkpt lat="45.00869" lon="3.76441">
        <ele>1012.932</ele>
        <time>2013-06-11T09:28:09Z</time>
      </trkpt>
      <trkpt lat="45.00872" lon="3.76423">
        <ele>1013.492</ele>
        <time>2013-06-11T09:28:26Z</time>
      </trkpt>
      <trkpt lat="45.00874" lon="3.76414">
        <ele>1013.811</ele>
        <time>2013-06-11T09:28:33Z</time>
      </trkpt>
      <trkpt lat="45.00878" lon="3.76402">
        <ele>1013.807</ele>
        <time>2013-06-11T09:28:44Z</time>
      </trkpt>
      <trkpt lat="45.00877" lon="3.76383">
        <ele>1013.867</ele>
        <time>2013-06-11T09:28:59Z</time>
      </trkpt>
      <trkpt lat="45.0088" lon="3.76357">
        <ele>1014.83</ele>
        <time>2013-06-11T09:29:18Z</time>
      </trkpt>
      <trkpt lat="45.00883" lon="3.7633">
        <ele>1014.374</ele>
        <time>2013-06-11T09:29:37Z</time>
      </trkpt>
      <trkpt lat="45.00884" lon="3.76316">
        <ele>1014.897</ele>
        <time>2013-06-11T09:29:47Z</time>
      </trkpt>
      <trkpt lat="45.00886" lon="3.763">
        <ele>1015.366</ele>
        <time>2013-06-11T09:29:58Z</time>
      </trkpt>
      <trkpt lat="45.00886" lon="3.76289">
        <ele>1015.392</ele>
        <time>2013-06-11T09:30:17Z</time>
      </trkpt>
      <trkpt lat="45.00884" lon="3.76275">
        <ele>1015.872</ele>
        <time>2013-06-11T09:30:38Z</time>
      </trkpt>
      <trkpt lat="45.00884" lon="3.76273">
        <ele>1016.363</ele>
        <time>2013-06-11T09:31:05Z</time>
      </trkpt>
      <trkpt lat="45.00884" lon="3.76262">
        <ele>1016.344</ele>
        <time>2013-06-11T09:31:31Z</time>
      </trkpt>
      <trkpt lat="45.00879" lon="3.76241">
        <ele>1017.718</ele>
        <time>2013-06-11T09:31:47Z</time>
      </trkpt>
      <trkpt lat="45.00875" lon="3.76221">
        <ele>1018.207</ele>
        <time>2013-06-11T09:32:07Z</time>
      </trkpt>
      <trkpt lat="45.00873" lon="3.76215">
        <ele>1018.76</ele>
        <time>2013-06-11T09:32:45Z</time>
      </trkpt>
      <trkpt lat="45.00869" lon="3.76199">
        <ele>1020.643</ele>
        <time>2013-06-11T09:33:06Z</time>
      </trkpt>
      <trkpt lat="45.00862" lon="3.76179">
        <ele>1022.537</ele>
        <time>2013-06-11T09:33:28Z</time>
      </trkpt>
      <trkpt lat="45.00852" lon="3.76164">
        <ele>1024.49</ele>
        <time>2013-06-11T09:33:47Z</time>
      </trkpt>
      <trkpt lat="45.00846" lon="3.76157">
        <ele>1025.489</ele>
        <time>2013-06-11T09:34:06Z</time>
      </trkpt>
      <trkpt lat="45.00844" lon="3.76134">
        <ele>1026.885</ele>
        <time>2013-06-11T09:34:25Z</time>
      </trkpt>
      <trkpt lat="45.00844" lon="3.76133">
        <ele>1026.845</ele>
        <time>2013-06-11T09:34:26Z</time>
      </trkpt>
      <trkpt lat="45.00865" lon="3.76122">
        <ele>1027.876</ele>
        <time>2013-06-11T09:34:50Z</time>
      </trkpt>
      <trkpt lat="45.00882" lon="3.76113">
        <ele>1029.29</ele>
        <time>2013-06-11T09:35:14Z</time>
      </trkpt>
      <trkpt lat="45.00887" lon="3.76109">
        <ele>1030.219</ele>
        <time>2013-06-11T09:35:21Z</time>
      </trkpt>
      <trkpt lat="45.00902" lon="3.761">
        <ele>1029.707</ele>
        <time>2013-06-11T09:35:36Z</time>
      </trkpt>
      <trkpt lat="45.00914" lon="3.76084">
        <ele>1031.241</ele>
        <time>2013-06-11T09:35:55Z</time>
      </trkpt>
      <trkpt lat="45.00922" lon="3.76058">
        <ele>1031.264</ele>
        <time>2013-06-11T09:36:14Z</time>
      </trkpt>
      <trkpt lat="45.00931" lon="3.76025">
        <ele>1031.258</ele>
        <time>2013-06-11T09:36:36Z</time>
      </trkpt>
      <trkpt lat="45.00933" lon="3.75984">
        <ele>1031.671</ele>
        <time>2013-06-11T09:37:00Z</time>
      </trkpt>
      <trkpt lat="45.00936" lon="3.75949">
        <ele>1031.69</ele>
        <time>2013-06-11T09:37:21Z</time>
      </trkpt>
      <trkpt lat="45.00938" lon="3.7593">
        <ele>1032.626</ele>
        <time>2013-06-11T09:37:34Z</time>
      </trkpt>
      <trkpt lat="45.0094" lon="3.75898">
        <ele>1032.666</ele>
        <time>2013-06-11T09:37:54Z</time>
      </trkpt>
      <trkpt lat="45.0094" lon="3.75884">
        <ele>1032.618</ele>
        <time>2013-06-11T09:38:03Z</time>
      </trkpt>
      <trkpt lat="45.00939" lon="3.75859">
        <ele>1033.198</ele>
        <time>2013-06-11T09:38:19Z</time>
      </trkpt>
      <trkpt lat="45.00938" lon="3.75832">
        <ele>1034.017</ele>
        <time>2013-06-11T09:38:36Z</time>
      </trkpt>
      <trkpt lat="45.00937" lon="3.75806">
        <ele>1034.507</ele>
        <time>2013-06-11T09:38:52Z</time>
      </trkpt>
      <trkpt lat="45.00936" lon="3.75782">
        <ele>1035.045</ele>
        <time>2013-06-11T09:39:08Z</time>
      </trkpt>
      <trkpt lat="45.00935" lon="3.75758">
        <ele>1036.028</ele>
        <time>2013-06-11T09:39:26Z</time>
      </trkpt>
      <trkpt lat="45.00932" lon="3.75738">
        <ele>1036.962</ele>
        <time>2013-06-11T09:39:44Z</time>
      </trkpt>
      <trkpt lat="45.00929" lon="3.75718">
        <ele>1037.435</ele>
        <time>2013-06-11T09:40:01Z</time>
      </trkpt>
      <trkpt lat="45.00927" lon="3.7569">
        <ele>1038.474</ele>
        <time>2013-06-11T09:40:20Z</time>
      </trkpt>
      <trkpt lat="45.00929" lon="3.7566">
        <ele>1038.85</ele>
        <time>2013-06-11T09:40:38Z</time>
      </trkpt>
      <trkpt lat="45.00935" lon="3.75634">
        <ele>1040.31</ele>
        <time>2013-06-11T09:40:56Z</time>
      </trkpt>
      <trkpt lat="45.00941" lon="3.75598">
        <ele>1039.885</ele>
        <time>2013-06-11T09:41:18Z</time>
      </trkpt>
      <trkpt lat="45.00945" lon="3.75577">
        <ele>1040.389</ele>
        <time>2013-06-11T09:41:33Z</time>
      </trkpt>
      <trkpt lat="45.00951" lon="3.75559">
        <ele>1040.317</ele>
        <time>2013-06-11T09:41:47Z</time>
      </trkpt>
      <trkpt lat="45.00958" lon="3.75528">
        <ele>1041.207</ele>
        <time>2013-06-11T09:42:10Z</time>
      </trkpt>
      <trkpt lat="45.0098" lon="3.75529">
        <ele>1039.312</ele>
        <time>2013-06-11T09:42:29Z</time>
      </trkpt>
      <trkpt lat="45.01003" lon="3.75534">
        <ele>1038.485</ele>
        <time>2013-06-11T09:42:50Z</time>
      </trkpt>
      <trkpt lat="45.01025" lon="3.75538">
        <ele>1037.459</ele>
        <time>2013-06-11T09:43:08Z</time>
      </trkpt>
      <trkpt lat="45.01027" lon="3.75539">
        <ele>1037.462</ele>
        <time>2013-06-11T09:43:10Z</time>
      </trkpt>
      <trkpt lat="45.01046" lon="3.75546">
        <ele>1036.931</ele>
        <time>2013-06-11T09:43:25Z</time>
      </trkpt>
      <trkpt lat="45.01053" lon="3.75548">
        <ele>1036.947</ele>
        <time>2013-06-11T09:43:31Z</time>
      </trkpt>
      <trkpt lat="45.01072" lon="3.75553">
        <ele>1036.017</ele>
        <time>2013-06-11T09:43:47Z</time>
      </trkpt>
      <trkpt lat="45.0108" lon="3.75555">
        <ele>1036.045</ele>
        <time>2013-06-11T09:43:54Z</time>
      </trkpt>
      <trkpt lat="45.01085" lon="3.75554">
        <ele>1035.047</ele>
        <time>2013-06-11T09:43:58Z</time>
      </trkpt>
      <trkpt lat="45.01102" lon="3.75561">
        <ele>1035.511</ele>
        <time>2013-06-11T09:44:13Z</time>
      </trkpt>
      <trkpt lat="45.0112" lon="3.75567">
        <ele>1034.007</ele>
        <time>2013-06-11T09:44:29Z</time>
      </trkpt>
      <trkpt lat="45.01131" lon="3.75571">
        <ele>1033.638</ele>
        <time>2013-06-11T09:44:40Z</time>
      </trkpt>
      <trkpt lat="45.0114" lon="3.75576">
        <ele>1033.681</ele>
        <time>2013-06-11T09:44:52Z</time>
      </trkpt>
      <trkpt lat="45.01153" lon="3.75582">
        <ele>1032.625</ele>
        <time>2013-06-11T09:45:07Z</time>
      </trkpt>
      <trkpt lat="45.0117" lon="3.75586">
        <ele>1031.618</ele>
        <time>2013-06-11T09:45:24Z</time>
      </trkpt>
      <trkpt lat="45.01175" lon="3.75582">
        <ele>1031.637</ele>
        <time>2013-06-11T09:45:29Z</time>
      </trkpt>
      <trkpt lat="45.01174" lon="3.75567">
        <ele>1032.193</ele>
        <time>2013-06-11T09:45:45Z</time>
      </trkpt>
      <trkpt lat="45.01172" lon="3.75564">
        <ele>1032.153</ele>
        <time>2013-06-11T09:45:48Z</time>
      </trkpt>
      <trkpt lat="45.01157" lon="3.75541">
        <ele>1034.078</ele>
        <time>2013-06-11T09:46:11Z</time>
      </trkpt>
      <trkpt lat="45.0115" lon="3.75528">
        <ele>1033.633</ele>
        <time>2013-06-11T09:46:23Z</time>
      </trkpt>
      <trkpt lat="45.01147" lon="3.75524">
        <ele>1035.026</ele>
        <time>2013-06-11T09:46:27Z</time>
      </trkpt>
      <trkpt lat="45.01137" lon="3.75513">
        <ele>1034.007</ele>
        <time>2013-06-11T09:46:44Z</time>
      </trkpt>
      <trkpt lat="45.01124" lon="3.7549">
        <ele>1035.571</ele>
        <time>2013-06-11T09:47:02Z</time>
      </trkpt>
      <trkpt lat="45.01111" lon="3.75473">
        <ele>1036.454</ele>
        <time>2013-06-11T09:47:19Z</time>
      </trkpt>
      <trkpt lat="45.01101" lon="3.75453">
        <ele>1037.428</ele>
        <time>2013-06-11T09:47:34Z</time>
      </trkpt>
      <trkpt lat="45.01095" lon="3.75442">
        <ele>1037.431</ele>
        <time>2013-06-11T09:47:50Z</time>
      </trkpt>
      <trkpt lat="45.01095" lon="3.75442">
        <ele>1037.99</ele>
        <time>2013-06-11T09:48:43Z</time>
      </trkpt>
      <trkpt lat="45.01095" lon="3.75442">
        <ele>1038.416</ele>
        <time>2013-06-11T09:49:23Z</time>
      </trkpt>
      <trkpt lat="45.01087" lon="3.75431">
        <ele>1038.436</ele>
        <time>2013-06-11T09:49:36Z</time>
      </trkpt>
      <trkpt lat="45.01077" lon="3.75409">
        <ele>1038.899</ele>
        <time>2013-06-11T09:49:55Z</time>
      </trkpt>
      <trkpt lat="45.01061" lon="3.75388">
        <ele>1040.307</ele>
        <time>2013-06-11T09:50:17Z</time>
      </trkpt>
      <trkpt lat="45.01047" lon="3.75365">
        <ele>1042.227</ele>
        <time>2013-06-11T09:50:38Z</time>
      </trkpt>
      <trkpt lat="45.01034" lon="3.75347">
        <ele>1043.207</ele>
        <time>2013-06-11T09:50:55Z</time>
      </trkpt>
      <trkpt lat="45.01022" lon="3.75324">
        <ele>1043.613</ele>
        <time>2013-06-11T09:51:16Z</time>
      </trkpt>
      <trkpt lat="45.01012" lon="3.7531">
        <ele>1045.136</ele>
        <time>2013-06-11T09:51:30Z</time>
      </trkpt>
      <trkpt lat="45.01" lon="3.75291">
        <ele>1045.68</ele>
        <time>2013-06-11T09:51:48Z</time>
      </trkpt>
      <trkpt lat="45.00986" lon="3.75271">
        <ele>1047.043</ele>
        <time>2013-06-11T09:52:08Z</time>
      </trkpt>
      <trkpt lat="45.00978" lon="3.75255">
        <ele>1048.512</ele>
        <time>2013-06-11T09:52:21Z</time>
      </trkpt>
      <trkpt lat="45.0097" lon="3.75239">
        <ele>1049.428</ele>
        <time>2013-06-11T09:52:33Z</time>
      </trkpt>
      <trkpt lat="45.0096" lon="3.75224">
        <ele>1050.948</ele>
        <time>2013-06-11T09:52:49Z</time>
      </trkpt>
      <trkpt lat="45.00954" lon="3.75217">
        <ele>1050.965</ele>
        <time>2013-06-11T09:53:08Z</time>
      </trkpt>
      <trkpt lat="45.00946" lon="3.75205">
        <ele>1051.868</ele>
        <time>2013-06-11T09:53:29Z</time>
      </trkpt>
      <trkpt lat="45.0093" lon="3.7518">
        <ele>1053.314</ele>
        <time>2013-06-11T09:53:54Z</time>
      </trkpt>
      <trkpt lat="45.00917" lon="3.75159">
        <ele>1053.707</ele>
        <time>2013-06-11T09:54:14Z</time>
      </trkpt>
      <trkpt lat="45.00909" lon="3.75143">
        <ele>1055.27</ele>
        <time>2013-06-11T09:54:26Z</time>
      </trkpt>
      <trkpt lat="45.009" lon="3.75127">
        <ele>1055.723</ele>
        <time>2013-06-11T09:54:42Z</time>
      </trkpt>
      <trkpt lat="45.00893" lon="3.75107">
        <ele>1057.137</ele>
        <time>2013-06-11T09:54:58Z</time>
      </trkpt>
      <trkpt lat="45.00884" lon="3.7509">
        <ele>1058.16</ele>
        <time>2013-06-11T09:55:13Z</time>
      </trkpt>
      <trkpt lat="45.00874" lon="3.75067">
        <ele>1059.049</ele>
        <time>2013-06-11T09:55:32Z</time>
      </trkpt>
      <trkpt lat="45.0087" lon="3.75057">
        <ele>1059.565</ele>
        <time>2013-06-11T09:55:41Z</time>
      </trkpt>
      <trkpt lat="45.00868" lon="3.75048">
        <ele>1060.085</ele>
        <time>2013-06-11T09:55:57Z</time>
      </trkpt>
      <trkpt lat="45.00868" lon="3.75046">
        <ele>1060.536</ele>
        <time>2013-06-11T09:56:01Z</time>
      </trkpt>
      <trkpt lat="45.00866" lon="3.75029">
        <ele>1060.517</ele>
        <time>2013-06-11T09:56:13Z</time>
      </trkpt>
      <trkpt lat="45.00864" lon="3.75019">
        <ele>1061.018</ele>
        <time>2013-06-11T09:56:22Z</time>
      </trkpt>
      <trkpt lat="45.00862" lon="3.75011">
        <ele>1061.907</ele>
        <time>2013-06-11T09:56:41Z</time>
      </trkpt>
      <trkpt lat="45.00863" lon="3.75002">
        <ele>1061.987</ele>
        <time>2013-06-11T09:56:55Z</time>
      </trkpt>
      <trkpt lat="45.00864" lon="3.75001">
        <ele>1061.98</ele>
        <time>2013-06-11T09:57:23Z</time>
      </trkpt>
      <trkpt lat="45.00864" lon="3.74987">
        <ele>1062.464</ele>
        <time>2013-06-11T09:57:33Z</time>
      </trkpt>
      <trkpt lat="45.00869" lon="3.7496">
        <ele>1062.497</ele>
        <time>2013-06-11T09:57:52Z</time>
      </trkpt>
      <trkpt lat="45.00873" lon="3.74936">
        <ele>1062.956</ele>
        <time>2013-06-11T09:58:08Z</time>
      </trkpt>
      <trkpt lat="45.00873" lon="3.74927">
        <ele>1063.452</ele>
        <time>2013-06-11T09:58:21Z</time>
      </trkpt>
      <trkpt lat="45.00878" lon="3.74923">
        <ele>1063.842</ele>
        <time>2013-06-11T09:58:42Z</time>
      </trkpt>
      <trkpt lat="45.0088" lon="3.74914">
        <ele>1063.454</ele>
        <time>2013-06-11T09:58:49Z</time>
      </trkpt>
      <trkpt lat="45.00878" lon="3.74896">
        <ele>1063.456</ele>
        <time>2013-06-11T09:59:09Z</time>
      </trkpt>
      <trkpt lat="45.00876" lon="3.7488">
        <ele>1064.311</ele>
        <time>2013-06-11T09:59:22Z</time>
      </trkpt>
      <trkpt lat="45.00876" lon="3.74859">
        <ele>1064.807</ele>
        <time>2013-06-11T09:59:39Z</time>
      </trkpt>
      <trkpt lat="45.00876" lon="3.74858">
        <ele>1064.889</ele>
        <time>2013-06-11T09:59:40Z</time>
      </trkpt>
      <trkpt lat="45.00878" lon="3.74855">
        <ele>1064.852</ele>
        <time>2013-06-11T09:59:43Z</time>
      </trkpt>
      <trkpt lat="45.0088" lon="3.74833">
        <ele>1065.386</ele>
        <time>2013-06-11T09:59:58Z</time>
      </trkpt>
      <trkpt lat="45.00881" lon="3.7482">
        <ele>1065.399</ele>
        <time>2013-06-11T10:00:06Z</time>
      </trkpt>
      <trkpt lat="45.00879" lon="3.74793">
        <ele>1066.248</ele>
        <time>2013-06-11T10:00:24Z</time>
      </trkpt>
      <trkpt lat="45.00879" lon="3.74788">
        <ele>1066.244</ele>
        <time>2013-06-11T10:00:27Z</time>
      </trkpt>
      <trkpt lat="45.00878" lon="3.74781">
        <ele>1066.254</ele>
        <time>2013-06-11T10:00:32Z</time>
      </trkpt>
      <trkpt lat="45.00876" lon="3.74761">
        <ele>1066.729</ele>
        <time>2013-06-11T10:00:46Z</time>
      </trkpt>
      <trkpt lat="45.00875" lon="3.74751">
        <ele>1067.2</ele>
        <time>2013-06-11T10:00:53Z</time>
      </trkpt>
      <trkpt lat="45.00867" lon="3.74731">
        <ele>1067.72</ele>
        <time>2013-06-11T10:01:08Z</time>
      </trkpt>
      <trkpt lat="45.00855" lon="3.74714">
        <ele>1069.107</ele>
        <time>2013-06-11T10:01:24Z</time>
      </trkpt>
      <trkpt lat="45.00844" lon="3.747">
        <ele>1069.696</ele>
        <time>2013-06-11T10:01:48Z</time>
      </trkpt>
      <trkpt lat="45.00835" lon="3.74677">
        <ele>1070.179</ele>
        <time>2013-06-11T10:02:06Z</time>
      </trkpt>
      <trkpt lat="45.00833" lon="3.7467">
        <ele>1070.663</ele>
        <time>2013-06-11T10:02:12Z</time>
      </trkpt>
      <trkpt lat="45.00834" lon="3.74663">
        <ele>1071.036</ele>
        <time>2013-06-11T10:02:16Z</time>
      </trkpt>
      <trkpt lat="45.0083" lon="3.74643">
        <ele>1072.075</ele>
        <time>2013-06-11T10:02:30Z</time>
      </trkpt>
      <trkpt lat="45.00824" lon="3.74632">
        <ele>1073.051</ele>
        <time>2013-06-11T10:02:40Z</time>
      </trkpt>
      <trkpt lat="45.0082" lon="3.74629">
        <ele>1073.041</ele>
        <time>2013-06-11T10:02:49Z</time>
      </trkpt>
      <trkpt lat="45.00809" lon="3.74621">
        <ele>1073.425</ele>
        <time>2013-06-11T10:03:04Z</time>
      </trkpt>
      <trkpt lat="45.00794" lon="3.74611">
        <ele>1074.426</ele>
        <time>2013-06-11T10:03:20Z</time>
      </trkpt>
      <trkpt lat="45.00776" lon="3.74614">
        <ele>1075.908</ele>
        <time>2013-06-11T10:03:39Z</time>
      </trkpt>
      <trkpt lat="45.00773" lon="3.74614">
        <ele>1076.307</ele>
        <time>2013-06-11T10:03:42Z</time>
      </trkpt>
      <trkpt lat="45.00761" lon="3.74601">
        <ele>1077.336</ele>
        <time>2013-06-11T10:03:58Z</time>
      </trkpt>
      <trkpt lat="45.00754" lon="3.74575">
        <ele>1077.859</ele>
        <time>2013-06-11T10:04:19Z</time>
      </trkpt>
      <trkpt lat="45.00748" lon="3.74554">
        <ele>1078.323</ele>
        <time>2013-06-11T10:04:37Z</time>
      </trkpt>
      <trkpt lat="45.00742" lon="3.74531">
        <ele>1079.716</ele>
        <time>2013-06-11T10:04:55Z</time>
      </trkpt>
      <trkpt lat="45.00738" lon="3.74517">
        <ele>1080.775</ele>
        <time>2013-06-11T10:05:08Z</time>
      </trkpt>
      <trkpt lat="45.0073" lon="3.74499">
        <ele>1081.691</ele>
        <time>2013-06-11T10:05:25Z</time>
      </trkpt>
      <trkpt lat="45.0073" lon="3.74488">
        <ele>1082.181</ele>
        <time>2013-06-11T10:05:39Z</time>
      </trkpt>
      <trkpt lat="45.00729" lon="3.74465">
        <ele>1082.612</ele>
        <time>2013-06-11T10:05:56Z</time>
      </trkpt>
      <trkpt lat="45.00728" lon="3.74455">
        <ele>1084.032</ele>
        <time>2013-06-11T10:06:09Z</time>
      </trkpt>
      <trkpt lat="45.00729" lon="3.74439">
        <ele>1083.505</ele>
        <time>2013-06-11T10:06:27Z</time>
      </trkpt>
      <trkpt lat="45.00731" lon="3.74428">
        <ele>1084.007</ele>
        <time>2013-06-11T10:06:43Z</time>
      </trkpt>
      <trkpt lat="45.00731" lon="3.74422">
        <ele>1085.095</ele>
        <time>2013-06-11T10:06:49Z</time>
      </trkpt>
      <trkpt lat="45.00726" lon="3.74406">
        <ele>1085.558</ele>
        <time>2013-06-11T10:07:06Z</time>
      </trkpt>
      <trkpt lat="45.00719" lon="3.74395">
        <ele>1085.982</ele>
        <time>2013-06-11T10:07:17Z</time>
      </trkpt>
      <trkpt lat="45.0071" lon="3.74374">
        <ele>1087.475</ele>
        <time>2013-06-11T10:07:35Z</time>
      </trkpt>
      <trkpt lat="45.00705" lon="3.74356">
        <ele>1087.944</ele>
        <time>2013-06-11T10:07:49Z</time>
      </trkpt>
      <trkpt lat="45.007" lon="3.74337">
        <ele>1088.34</ele>
        <time>2013-06-11T10:08:06Z</time>
      </trkpt>
      <trkpt lat="45.00697" lon="3.74328">
        <ele>1088.88</ele>
        <time>2013-06-11T10:08:21Z</time>
      </trkpt>
      <trkpt lat="45.00692" lon="3.74318">
        <ele>1089.339</ele>
        <time>2013-06-11T10:08:35Z</time>
      </trkpt>
      <trkpt lat="45.0069" lon="3.74294">
        <ele>1088.801</ele>
        <time>2013-06-11T10:08:54Z</time>
      </trkpt>
      <trkpt lat="45.00689" lon="3.74285">
        <ele>1088.321</ele>
        <time>2013-06-11T10:09:11Z</time>
      </trkpt>
      <trkpt lat="45.0069" lon="3.74258">
        <ele>1088.307</ele>
        <time>2013-06-11T10:09:30Z</time>
      </trkpt>
      <trkpt lat="45.00699" lon="3.74243">
        <ele>1089.347</ele>
        <time>2013-06-11T10:09:47Z</time>
      </trkpt>
      <trkpt lat="45.00718" lon="3.74236">
        <ele>1089.39</ele>
        <time>2013-06-11T10:10:07Z</time>
      </trkpt>
      <trkpt lat="45.00731" lon="3.74231">
        <ele>1088.894</ele>
        <time>2013-06-11T10:10:20Z</time>
      </trkpt>
      <trkpt lat="45.00741" lon="3.74227">
        <ele>1088.357</ele>
        <time>2013-06-11T10:10:39Z</time>
      </trkpt>
      <trkpt lat="45.00759" lon="3.74229">
        <ele>1089.886</ele>
        <time>2013-06-11T10:11:04Z</time>
      </trkpt>
      <trkpt lat="45.00763" lon="3.74227">
        <ele>1089.372</ele>
        <time>2013-06-11T10:11:14Z</time>
      </trkpt>
      <trkpt lat="45.00772" lon="3.74226">
        <ele>1089.842</ele>
        <time>2013-06-11T10:11:29Z</time>
      </trkpt>
      <trkpt lat="45.00791" lon="3.74235">
        <ele>1091.759</ele>
        <time>2013-06-11T10:11:48Z</time>
      </trkpt>
      <trkpt lat="45.00799" lon="3.74252">
        <ele>1092.203</ele>
        <time>2013-06-11T10:12:11Z</time>
      </trkpt>
      <trkpt lat="45.00808" lon="3.74251">
        <ele>1093.623</ele>
        <time>2013-06-11T10:12:31Z</time>
      </trkpt>
      <trkpt lat="45.00812" lon="3.74256">
        <ele>1093.207</ele>
        <time>2013-06-11T10:12:53Z</time>
      </trkpt>
      <trkpt lat="45.00818" lon="3.74267">
        <ele>1093.679</ele>
        <time>2013-06-11T10:13:11Z</time>
      </trkpt>
      <trkpt lat="45.00821" lon="3.74253">
        <ele>1093.632</ele>
        <time>2013-06-11T10:13:41Z</time>
      </trkpt>
      <trkpt lat="45.00817" lon="3.74234">
        <ele>1095.116</ele>
        <time>2013-06-11T10:14:00Z</time>
      </trkpt>
      <trkpt lat="45.00817" lon="3.7423">
        <ele>1095.669</ele>
        <time>2013-06-11T10:14:03Z</time>
      </trkpt>
      <trkpt lat="45.00812" lon="3.74214">
        <ele>1096.098</ele>
        <time>2013-06-11T10:14:23Z</time>
      </trkpt>
      <trkpt lat="45.00804" lon="3.74191">
        <ele>1094.184</ele>
        <time>2013-06-11T10:14:46Z</time>
      </trkpt>
      <trkpt lat="45.00805" lon="3.74181">
        <ele>1094.114</ele>
        <time>2013-06-11T10:15:17Z</time>
      </trkpt>
      <trkpt lat="45.00804" lon="3.74174">
        <ele>1093.681</ele>
        <time>2013-06-11T10:15:33Z</time>
      </trkpt>
      <trkpt lat="45.00804" lon="3.74169">
        <ele>1094.161</ele>
        <time>2013-06-11T10:15:51Z</time>
      </trkpt>
      <trkpt lat="45.00806" lon="3.74169">
        <ele>1093.617</ele>
        <time>2013-06-11T10:16:27Z</time>
      </trkpt>
      <trkpt lat="45.00806" lon="3.7417">
        <ele>1094.107</ele>
        <time>2013-06-11T10:32:45Z</time>
      </trkpt>
      <trkpt lat="45.00807" lon="3.74172">
        <ele>1094.622</ele>
        <time>2013-06-11T10:49:07Z</time>
      </trkpt>
      <trkpt lat="45.00805" lon="3.74174">
        <ele>1095.695</ele>
        <time>2013-06-11T10:50:20Z</time>
      </trkpt>
      <trkpt lat="45.00805" lon="3.74174">
        <ele>1095.189</ele>
        <time>2013-06-11T10:50:43Z</time>
      </trkpt>
      <trkpt lat="45.00805" lon="3.74176">
        <ele>1095.142</ele>
        <time>2013-06-11T10:51:01Z</time>
      </trkpt>
      <trkpt lat="45.00801" lon="3.74182">
        <ele>1094.181</ele>
        <time>2013-06-11T10:51:17Z</time>
      </trkpt>
      <trkpt lat="45.00789" lon="3.74175">
        <ele>1092.777</ele>
        <time>2013-06-11T10:51:33Z</time>
      </trkpt>
      <trkpt lat="45.00772" lon="3.74168">
        <ele>1090.887</ele>
        <time>2013-06-11T10:51:57Z</time>
      </trkpt>
      <trkpt lat="45.00766" lon="3.74161">
        <ele>1091.211</ele>
        <time>2013-06-11T10:52:12Z</time>
      </trkpt>
      <trkpt lat="45.00766" lon="3.74157">
        <ele>1090.321</ele>
        <time>2013-06-11T10:52:31Z</time>
      </trkpt>
      <trkpt lat="45.00764" lon="3.74155">
        <ele>1090.303</ele>
        <time>2013-06-11T10:53:02Z</time>
      </trkpt>
      <trkpt lat="45.0075" lon="3.74147">
        <ele>1090.307</ele>
        <time>2013-06-11T10:53:25Z</time>
      </trkpt>
      <trkpt lat="45.00735" lon="3.74145">
        <ele>1089.395</ele>
        <time>2013-06-11T10:53:43Z</time>
      </trkpt>
      <trkpt lat="45.00731" lon="3.74146">
        <ele>1088.838</ele>
        <time>2013-06-11T10:53:50Z</time>
      </trkpt>
      <trkpt lat="45.00711" lon="3.74148">
        <ele>1088.382</ele>
        <time>2013-06-11T10:54:11Z</time>
      </trkpt>
      <trkpt lat="45.00691" lon="3.74127">
        <ele>1088.325</ele>
        <time>2013-06-11T10:54:32Z</time>
      </trkpt>
      <trkpt lat="45.00671" lon="3.7411">
        <ele>1087.954</ele>
        <time>2013-06-11T10:54:54Z</time>
      </trkpt>
      <trkpt lat="45.00652" lon="3.74098">
        <ele>1087.48</ele>
        <time>2013-06-11T10:55:14Z</time>
      </trkpt>
      <trkpt lat="45.00627" lon="3.74083">
        <ele>1087.95</ele>
        <time>2013-06-11T10:55:40Z</time>
      </trkpt>
      <trkpt lat="45.00616" lon="3.74073">
        <ele>1088.344</ele>
        <time>2013-06-11T10:56:01Z</time>
      </trkpt>
      <trkpt lat="45.00608" lon="3.74044">
        <ele>1088.805</ele>
        <time>2013-06-11T10:56:24Z</time>
      </trkpt>
      <trkpt lat="45.00597" lon="3.74014">
        <ele>1088.815</ele>
        <time>2013-06-11T10:56:46Z</time>
      </trkpt>
      <trkpt lat="45.00587" lon="3.7399">
        <ele>1090.307</ele>
        <time>2013-06-11T10:57:08Z</time>
      </trkpt>
      <trkpt lat="45.00581" lon="3.73964">
        <ele>1090.348</ele>
        <time>2013-06-11T10:57:27Z</time>
      </trkpt>
      <trkpt lat="45.00574" lon="3.73922">
        <ele>1091.211</ele>
        <time>2013-06-11T10:57:54Z</time>
      </trkpt>
      <trkpt lat="45.0057" lon="3.73904">
        <ele>1091.715</ele>
        <time>2013-06-11T10:58:09Z</time>
      </trkpt>
      <trkpt lat="45.00557" lon="3.73861">
        <ele>1092.298</ele>
        <time>2013-06-11T10:58:37Z</time>
      </trkpt>
      <trkpt lat="45.00548" lon="3.73828">
        <ele>1092.757</ele>
        <time>2013-06-11T10:59:00Z</time>
      </trkpt>
      <trkpt lat="45.00543" lon="3.73804">
        <ele>1092.793</ele>
        <time>2013-06-11T10:59:18Z</time>
      </trkpt>
      <trkpt lat="45.00535" lon="3.73777">
        <ele>1092.783</ele>
        <time>2013-06-11T10:59:41Z</time>
      </trkpt>
      <trkpt lat="45.00526" lon="3.73742">
        <ele>1093.651</ele>
        <time>2013-06-11T11:00:06Z</time>
      </trkpt>
      <trkpt lat="45.00515" lon="3.73708">
        <ele>1094.101</ele>
        <time>2013-06-11T11:00:31Z</time>
      </trkpt>
      <trkpt lat="45.0051" lon="3.73691">
        <ele>1094.611</ele>
        <time>2013-06-11T11:00:47Z</time>
      </trkpt>
      <trkpt lat="45.00507" lon="3.73687">
        <ele>1094.607</ele>
        <time>2013-06-11T11:00:52Z</time>
      </trkpt>
      <trkpt lat="45.00494" lon="3.73658">
        <ele>1095.169</ele>
        <time>2013-06-11T11:01:16Z</time>
      </trkpt>
      <trkpt lat="45.00481" lon="3.73635">
        <ele>1096.082</ele>
        <time>2013-06-11T11:01:35Z</time>
      </trkpt>
      <trkpt lat="45.0047" lon="3.73609">
        <ele>1097.556</ele>
        <time>2013-06-11T11:01:56Z</time>
      </trkpt>
      <trkpt lat="45.00462" lon="3.73587">
        <ele>1099.429</ele>
        <time>2013-06-11T11:02:18Z</time>
      </trkpt>
      <trkpt lat="45.00461" lon="3.73581">
        <ele>1098.998</ele>
        <time>2013-06-11T11:02:40Z</time>
      </trkpt>
      <trkpt lat="45.0046" lon="3.73581">
        <ele>1099.424</ele>
        <time>2013-06-11T11:03:28Z</time>
      </trkpt>
      <trkpt lat="45.00448" lon="3.73557">
        <ele>1100.854</ele>
        <time>2013-06-11T11:03:51Z</time>
      </trkpt>
      <trkpt lat="45.00435" lon="3.7354">
        <ele>1102.864</ele>
        <time>2013-06-11T11:04:15Z</time>
      </trkpt>
      <trkpt lat="45.00436" lon="3.73538">
        <ele>1102.306</ele>
        <time>2013-06-11T11:04:39Z</time>
      </trkpt>
      <trkpt lat="45.00421" lon="3.73521">
        <ele>1103.716</ele>
        <time>2013-06-11T11:05:03Z</time>
      </trkpt>
      <trkpt lat="45.00412" lon="3.735">
        <ele>1106.107</ele>
        <time>2013-06-11T11:05:25Z</time>
      </trkpt>
      <trkpt lat="45.00407" lon="3.7348">
        <ele>1107.66</ele>
        <time>2013-06-11T11:05:44Z</time>
      </trkpt>
      <trkpt lat="45.00401" lon="3.73451">
        <ele>1109.023</ele>
        <time>2013-06-11T11:06:08Z</time>
      </trkpt>
      <trkpt lat="45.00398" lon="3.73431">
        <ele>1110.057</ele>
        <time>2013-06-11T11:06:27Z</time>
      </trkpt>
      <trkpt lat="45.00393" lon="3.73403">
        <ele>1111.46</ele>
        <time>2013-06-11T11:06:52Z</time>
      </trkpt>
      <trkpt lat="45.00391" lon="3.73382">
        <ele>1112.969</ele>
        <time>2013-06-11T11:07:11Z</time>
      </trkpt>
      <trkpt lat="45.00389" lon="3.73363">
        <ele>1114.315</ele>
        <time>2013-06-11T11:07:28Z</time>
      </trkpt>
      <trkpt lat="45.00389" lon="3.73354">
        <ele>1115.335</ele>
        <time>2013-06-11T11:07:46Z</time>
      </trkpt>
      <trkpt lat="45.00387" lon="3.73344">
        <ele>1115.756</ele>
        <time>2013-06-11T11:08:00Z</time>
      </trkpt>
      <trkpt lat="45.00386" lon="3.73337">
        <ele>1116.259</ele>
        <time>2013-06-11T11:08:15Z</time>
      </trkpt>
      <trkpt lat="45.00385" lon="3.73314">
        <ele>1117.714</ele>
        <time>2013-06-11T11:08:35Z</time>
      </trkpt>
      <trkpt lat="45.00384" lon="3.73285">
        <ele>1118.607</ele>
        <time>2013-06-11T11:08:58Z</time>
      </trkpt>
      <trkpt lat="45.00383" lon="3.7326">
        <ele>1120.179</ele>
        <time>2013-06-11T11:09:19Z</time>
      </trkpt>
      <trkpt lat="45.00381" lon="3.73237">
        <ele>1121.052</ele>
        <time>2013-06-11T11:09:38Z</time>
      </trkpt>
      <trkpt lat="45.0038" lon="3.73222">
        <ele>1121.586</ele>
        <time>2013-06-11T11:10:00Z</time>
      </trkpt>
      <trkpt lat="45.00379" lon="3.73199">
        <ele>1123.419</ele>
        <time>2013-06-11T11:10:25Z</time>
      </trkpt>
      <trkpt lat="45.00376" lon="3.73169">
        <ele>1125.488</ele>
        <time>2013-06-11T11:10:49Z</time>
      </trkpt>
      <trkpt lat="45.00374" lon="3.73147">
        <ele>1126.874</ele>
        <time>2013-06-11T11:11:10Z</time>
      </trkpt>
      <trkpt lat="45.00367" lon="3.73136">
        <ele>1127.834</ele>
        <time>2013-06-11T11:11:30Z</time>
      </trkpt>
      <trkpt lat="45.00357" lon="3.7313">
        <ele>1129.248</ele>
        <time>2013-06-11T11:11:46Z</time>
      </trkpt>
      <trkpt lat="45.00346" lon="3.73124">
        <ele>1130.661</ele>
        <time>2013-06-11T11:12:03Z</time>
      </trkpt>
      <trkpt lat="45.00342" lon="3.73124">
        <ele>1131.117</ele>
        <time>2013-06-11T11:12:08Z</time>
      </trkpt>
      <trkpt lat="45.00332" lon="3.73125">
        <ele>1132.107</ele>
        <time>2013-06-11T11:12:27Z</time>
      </trkpt>
      <trkpt lat="45.00329" lon="3.73126">
        <ele>1132.668</ele>
        <time>2013-06-11T11:13:08Z</time>
      </trkpt>
      <trkpt lat="45.00328" lon="3.73127">
        <ele>1132.111</ele>
        <time>2013-06-11T11:13:28Z</time>
      </trkpt>
      <trkpt lat="45.00326" lon="3.73126">
        <ele>1132.615</ele>
        <time>2013-06-11T11:15:22Z</time>
      </trkpt>
      <trkpt lat="45.00318" lon="3.73129">
        <ele>1133.128</ele>
        <time>2013-06-11T11:15:56Z</time>
      </trkpt>
      <trkpt lat="45.00303" lon="3.73134">
        <ele>1134.557</ele>
        <time>2013-06-11T11:16:14Z</time>
      </trkpt>
      <trkpt lat="45.00285" lon="3.73145">
        <ele>1135.593</ele>
        <time>2013-06-11T11:16:35Z</time>
      </trkpt>
      <trkpt lat="45.00274" lon="3.73149">
        <ele>1136.973</ele>
        <time>2013-06-11T11:16:52Z</time>
      </trkpt>
      <trkpt lat="45.00259" lon="3.73156">
        <ele>1137.998</ele>
        <time>2013-06-11T11:17:11Z</time>
      </trkpt>
      <trkpt lat="45.00249" lon="3.73161">
        <ele>1138.815</ele>
        <time>2013-06-11T11:17:27Z</time>
      </trkpt>
      <trkpt lat="45.00233" lon="3.73168">
        <ele>1140.326</ele>
        <time>2013-06-11T11:17:45Z</time>
      </trkpt>
      <trkpt lat="45.00218" lon="3.73174">
        <ele>1141.707</ele>
        <time>2013-06-11T11:18:05Z</time>
      </trkpt>
      <trkpt lat="45.00202" lon="3.73176">
        <ele>1144.143</ele>
        <time>2013-06-11T11:18:26Z</time>
      </trkpt>
      <trkpt lat="45.00189" lon="3.73179">
        <ele>1144.616</ele>
        <time>2013-06-11T11:18:42Z</time>
      </trkpt>
      <trkpt lat="45.0018" lon="3.73182">
        <ele>1146.04</ele>
        <time>2013-06-11T11:18:59Z</time>
      </trkpt>
      <trkpt lat="45.00165" lon="3.73184">
        <ele>1147.023</ele>
        <time>2013-06-11T11:19:19Z</time>
      </trkpt>
      <trkpt lat="45.00151" lon="3.73187">
        <ele>1148.412</ele>
        <time>2013-06-11T11:19:38Z</time>
      </trkpt>
      <trkpt lat="45.00143" lon="3.73184">
        <ele>1149.928</ele>
        <time>2013-06-11T11:20:02Z</time>
      </trkpt>
      <trkpt lat="45.00123" lon="3.7318">
        <ele>1151.328</ele>
        <time>2013-06-11T11:20:52Z</time>
      </trkpt>
      <trkpt lat="45.00104" lon="3.73175">
        <ele>1152.313</ele>
        <time>2013-06-11T11:21:13Z</time>
      </trkpt>
      <trkpt lat="45.00091" lon="3.73172">
        <ele>1154.243</ele>
        <time>2013-06-11T11:21:33Z</time>
      </trkpt>
      <trkpt lat="45.00082" lon="3.7317">
        <ele>1154.207</ele>
        <time>2013-06-11T11:21:43Z</time>
      </trkpt>
      <trkpt lat="45.00061" lon="3.73163">
        <ele>1156.107</ele>
        <time>2013-06-11T11:22:07Z</time>
      </trkpt>
      <trkpt lat="45.00041" lon="3.7316">
        <ele>1157.625</ele>
        <time>2013-06-11T11:22:32Z</time>
      </trkpt>
      <trkpt lat="45.00021" lon="3.7316">
        <ele>1158.588</ele>
        <time>2013-06-11T11:22:55Z</time>
      </trkpt>
      <trkpt lat="45.0001" lon="3.7316">
        <ele>1159.072</ele>
        <time>2013-06-11T11:23:17Z</time>
      </trkpt>
      <trkpt lat="45" lon="3.73159">
        <ele>1159.065</ele>
        <time>2013-06-11T11:23:29Z</time>
      </trkpt>
      <trkpt lat="44.99987" lon="3.73156">
        <ele>1159.024</ele>
        <time>2013-06-11T11:23:47Z</time>
      </trkpt>
      <trkpt lat="44.99968" lon="3.7316">
        <ele>1159.57</ele>
        <time>2013-06-11T11:24:06Z</time>
      </trkpt>
      <trkpt lat="44.99955" lon="3.73162">
        <ele>1160.01</ele>
        <time>2013-06-11T11:24:22Z</time>
      </trkpt>
      <trkpt lat="44.99937" lon="3.73166">
        <ele>1161.445</ele>
        <time>2013-06-11T11:24:46Z</time>
      </trkpt>
      <trkpt lat="44.9992" lon="3.73169">
        <ele>1161.947</ele>
        <time>2013-06-11T11:25:03Z</time>
      </trkpt>
      <trkpt lat="44.99907" lon="3.73171">
        <ele>1161.911</ele>
        <time>2013-06-11T11:25:20Z</time>
      </trkpt>
      <trkpt lat="44.99902" lon="3.73172">
        <ele>1164.307</ele>
        <time>2013-06-11T11:25:29Z</time>
      </trkpt>
      <trkpt lat="44.99885" lon="3.73176">
        <ele>1164.878</ele>
        <time>2013-06-11T11:25:48Z</time>
      </trkpt>
      <trkpt lat="44.99864" lon="3.73173">
        <ele>1166.291</ele>
        <time>2013-06-11T11:26:15Z</time>
      </trkpt>
      <trkpt lat="44.99845" lon="3.7317">
        <ele>1167.255</ele>
        <time>2013-06-11T11:26:38Z</time>
      </trkpt>
      <trkpt lat="44.99832" lon="3.73171">
        <ele>1167.298</ele>
        <time>2013-06-11T11:27:20Z</time>
      </trkpt>
      <trkpt lat="44.99814" lon="3.73167">
        <ele>1166.777</ele>
        <time>2013-06-11T11:27:41Z</time>
      </trkpt>
      <trkpt lat="44.99797" lon="3.73164">
        <ele>1166.213</ele>
        <time>2013-06-11T11:27:59Z</time>
      </trkpt>
      <trkpt lat="44.99784" lon="3.73159">
        <ele>1166.223</ele>
        <time>2013-06-11T11:28:14Z</time>
      </trkpt>
      <trkpt lat="44.99766" lon="3.73155">
        <ele>1166.222</ele>
        <time>2013-06-11T11:28:30Z</time>
      </trkpt>
      <trkpt lat="44.99757" lon="3.73143">
        <ele>1167.262</ele>
        <time>2013-06-11T11:28:39Z</time>
      </trkpt>
      <trkpt lat="44.99757" lon="3.7313">
        <ele>1168.108</ele>
        <time>2013-06-11T11:28:47Z</time>
      </trkpt>
      <trkpt lat="44.9976" lon="3.73111">
        <ele>1170.107</ele>
        <time>2013-06-11T11:29:09Z</time>
      </trkpt>
      <trkpt lat="44.99759" lon="3.73104">
        <ele>1170.136</ele>
        <time>2013-06-11T11:29:28Z</time>
      </trkpt>
      <trkpt lat="44.99764" lon="3.73088">
        <ele>1171.569</ele>
        <time>2013-06-11T11:29:49Z</time>
      </trkpt>
      <trkpt lat="44.99775" lon="3.73059">
        <ele>1173.913</ele>
        <time>2013-06-11T11:30:14Z</time>
      </trkpt>
      <trkpt lat="44.9978" lon="3.73049">
        <ele>1174.986</ele>
        <time>2013-06-11T11:30:38Z</time>
      </trkpt>
      <trkpt lat="44.99778" lon="3.7304">
        <ele>1175.325</ele>
        <time>2013-06-11T11:30:59Z</time>
      </trkpt>
      <trkpt lat="44.99784" lon="3.73014">
        <ele>1176.881</ele>
        <time>2013-06-11T11:31:23Z</time>
      </trkpt>
      <trkpt lat="44.99786" lon="3.72998">
        <ele>1177.881</ele>
        <time>2013-06-11T11:31:38Z</time>
      </trkpt>
      <trkpt lat="44.9979" lon="3.72971">
        <ele>1179.212</ele>
        <time>2013-06-11T11:32:05Z</time>
      </trkpt>
      <trkpt lat="44.9979" lon="3.72965">
        <ele>1179.732</ele>
        <time>2013-06-11T11:32:29Z</time>
      </trkpt>
      <trkpt lat="44.99791" lon="3.72956">
        <ele>1180.605</ele>
        <time>2013-06-11T11:32:52Z</time>
      </trkpt>
      <trkpt lat="44.9979" lon="3.72933">
        <ele>1181.107</ele>
        <time>2013-06-11T11:33:10Z</time>
      </trkpt>
      <trkpt lat="44.99792" lon="3.72903">
        <ele>1182.635</ele>
        <time>2013-06-11T11:33:33Z</time>
      </trkpt>
      <trkpt lat="44.99794" lon="3.72885">
        <ele>1182.178</ele>
        <time>2013-06-11T11:33:50Z</time>
      </trkpt>
      <trkpt lat="44.99794" lon="3.72885">
        <ele>1183.582</ele>
        <time>2013-06-11T11:34:04Z</time>
      </trkpt>
      <trkpt lat="44.99796" lon="3.72867">
        <ele>1182.135</ele>
        <time>2013-06-11T11:34:26Z</time>
      </trkpt>
      <trkpt lat="44.99796" lon="3.72836">
        <ele>1184.534</ele>
        <time>2013-06-11T11:34:51Z</time>
      </trkpt>
      <trkpt lat="44.99799" lon="3.72801">
        <ele>1185.96</ele>
        <time>2013-06-11T11:35:19Z</time>
      </trkpt>
      <trkpt lat="44.99803" lon="3.72781">
        <ele>1187.81</ele>
        <time>2013-06-11T11:35:39Z</time>
      </trkpt>
      <trkpt lat="44.99805" lon="3.72758">
        <ele>1189.887</ele>
        <time>2013-06-11T11:36:02Z</time>
      </trkpt>
      <trkpt lat="44.99803" lon="3.72734">
        <ele>1192.242</ele>
        <time>2013-06-11T11:36:36Z</time>
      </trkpt>
      <trkpt lat="44.998" lon="3.7271">
        <ele>1193.626</ele>
        <time>2013-06-11T11:36:58Z</time>
      </trkpt>
      <trkpt lat="44.998" lon="3.727">
        <ele>1194.107</ele>
        <time>2013-06-11T11:37:21Z</time>
      </trkpt>
      <trkpt lat="44.99793" lon="3.72676">
        <ele>1196.092</ele>
        <time>2013-06-11T11:37:52Z</time>
      </trkpt>
      <trkpt lat="44.99793" lon="3.7265">
        <ele>1197.565</ele>
        <time>2013-06-11T11:38:13Z</time>
      </trkpt>
      <trkpt lat="44.99794" lon="3.72622">
        <ele>1199.929</ele>
        <time>2013-06-11T11:38:40Z</time>
      </trkpt>
      <trkpt lat="44.99792" lon="3.72597">
        <ele>1200.372</ele>
        <time>2013-06-11T11:39:05Z</time>
      </trkpt>
      <trkpt lat="44.99788" lon="3.72579">
        <ele>1201.861</ele>
        <time>2013-06-11T11:39:28Z</time>
      </trkpt>
      <trkpt lat="44.99786" lon="3.72558">
        <ele>1202.747</ele>
        <time>2013-06-11T11:41:24Z</time>
      </trkpt>
      <trkpt lat="44.99783" lon="3.72531">
        <ele>1204.247</ele>
        <time>2013-06-11T11:41:46Z</time>
      </trkpt>
      <trkpt lat="44.99784" lon="3.7251">
        <ele>1205.194</ele>
        <time>2013-06-11T11:42:05Z</time>
      </trkpt>
      <trkpt lat="44.99781" lon="3.72482">
        <ele>1205.657</ele>
        <time>2013-06-11T11:42:26Z</time>
      </trkpt>
      <trkpt lat="44.99783" lon="3.72456">
        <ele>1206.622</ele>
        <time>2013-06-11T11:42:45Z</time>
      </trkpt>
      <trkpt lat="44.99784" lon="3.72445">
        <ele>1206.607</ele>
        <time>2013-06-11T11:43:05Z</time>
      </trkpt>
      <trkpt lat="44.99787" lon="3.72427">
        <ele>1207.183</ele>
        <time>2013-06-11T11:43:16Z</time>
      </trkpt>
      <trkpt lat="44.99788" lon="3.72423">
        <ele>1209.096</ele>
        <time>2013-06-11T11:43:19Z</time>
      </trkpt>
      <trkpt lat="44.99793" lon="3.72404">
        <ele>1209.08</ele>
        <time>2013-06-11T11:43:36Z</time>
      </trkpt>
      <trkpt lat="44.99794" lon="3.7239">
        <ele>1208.093</ele>
        <time>2013-06-11T11:43:53Z</time>
      </trkpt>
      <trkpt lat="44.99798" lon="3.72362">
        <ele>1209.572</ele>
        <time>2013-06-11T11:44:13Z</time>
      </trkpt>
      <trkpt lat="44.99803" lon="3.72327">
        <ele>1210.068</ele>
        <time>2013-06-11T11:44:36Z</time>
      </trkpt>
      <trkpt lat="44.99797" lon="3.72302">
        <ele>1210.468</ele>
        <time>2013-06-11T11:44:55Z</time>
      </trkpt>
      <trkpt lat="44.99794" lon="3.72288">
        <ele>1210.452</ele>
        <time>2013-06-11T11:45:03Z</time>
      </trkpt>
      <trkpt lat="44.9979" lon="3.7228">
        <ele>1210.953</ele>
        <time>2013-06-11T11:45:17Z</time>
      </trkpt>
      <trkpt lat="44.99785" lon="3.72279">
        <ele>1210.408</ele>
        <time>2013-06-11T11:45:36Z</time>
      </trkpt>
      <trkpt lat="44.9978" lon="3.72266">
        <ele>1210.907</ele>
        <time>2013-06-11T11:45:51Z</time>
      </trkpt>
      <trkpt lat="44.99776" lon="3.72252">
        <ele>1210.949</ele>
        <time>2013-06-11T11:46:09Z</time>
      </trkpt>
      <trkpt lat="44.99773" lon="3.72259">
        <ele>1210.992</ele>
        <time>2013-06-11T11:46:27Z</time>
      </trkpt>
      <trkpt lat="44.99768" lon="3.72235">
        <ele>1211.446</ele>
        <time>2013-06-11T11:46:45Z</time>
      </trkpt>
      <trkpt lat="44.99767" lon="3.72216">
        <ele>1210.929</ele>
        <time>2013-06-11T11:47:11Z</time>
      </trkpt>
      <trkpt lat="44.99766" lon="3.72197">
        <ele>1210.948</ele>
        <time>2013-06-11T11:47:29Z</time>
      </trkpt>
      <trkpt lat="44.99762" lon="3.72178">
        <ele>1212.434</ele>
        <time>2013-06-11T11:47:45Z</time>
      </trkpt>
      <trkpt lat="44.99764" lon="3.72162">
        <ele>1211.994</ele>
        <time>2013-06-11T11:48:00Z</time>
      </trkpt>
      <trkpt lat="44.99763" lon="3.72157">
        <ele>1211.921</ele>
        <time>2013-06-11T11:48:03Z</time>
      </trkpt>
      <trkpt lat="44.99764" lon="3.72151">
        <ele>1212.441</ele>
        <time>2013-06-11T11:48:08Z</time>
      </trkpt>
      <trkpt lat="44.99773" lon="3.72143">
        <ele>1210.905</ele>
        <time>2013-06-11T11:48:19Z</time>
      </trkpt>
      <trkpt lat="44.99776" lon="3.72141">
        <ele>1211.407</ele>
        <time>2013-06-11T11:48:22Z</time>
      </trkpt>
      <trkpt lat="44.99782" lon="3.72118">
        <ele>1210.976</ele>
        <time>2013-06-11T11:48:40Z</time>
      </trkpt>
      <trkpt lat="44.99788" lon="3.72102">
        <ele>1211.479</ele>
        <time>2013-06-11T11:48:54Z</time>
      </trkpt>
      <trkpt lat="44.99794" lon="3.72083">
        <ele>1210.993</ele>
        <time>2013-06-11T11:49:09Z</time>
      </trkpt>
      <trkpt lat="44.99795" lon="3.72082">
        <ele>1210.946</ele>
        <time>2013-06-11T11:49:10Z</time>
      </trkpt>
      <trkpt lat="44.99804" lon="3.72053">
        <ele>1210.975</ele>
        <time>2013-06-11T11:49:30Z</time>
      </trkpt>
      <trkpt lat="44.99808" lon="3.72048">
        <ele>1211.491</ele>
        <time>2013-06-11T11:49:34Z</time>
      </trkpt>
      <trkpt lat="44.99812" lon="3.72043">
        <ele>1211.421</ele>
        <time>2013-06-11T11:49:38Z</time>
      </trkpt>
      <trkpt lat="44.99814" lon="3.7204">
        <ele>1211.482</ele>
        <time>2013-06-11T11:49:41Z</time>
      </trkpt>
      <trkpt lat="44.99826" lon="3.72018">
        <ele>1211.443</ele>
        <time>2013-06-11T11:49:57Z</time>
      </trkpt>
      <trkpt lat="44.99836" lon="3.72004">
        <ele>1210.917</ele>
        <time>2013-06-11T11:50:08Z</time>
      </trkpt>
      <trkpt lat="44.99843" lon="3.7198">
        <ele>1210.907</ele>
        <time>2013-06-11T11:50:25Z</time>
      </trkpt>
      <trkpt lat="44.99836" lon="3.71959">
        <ele>1210.962</ele>
        <time>2013-06-11T11:50:41Z</time>
      </trkpt>
      <trkpt lat="44.99819" lon="3.71948">
        <ele>1211.455</ele>
        <time>2013-06-11T11:51:01Z</time>
      </trkpt>
      <trkpt lat="44.99818" lon="3.71947">
        <ele>1211.419</ele>
        <time>2013-06-11T11:51:02Z</time>
      </trkpt>
      <trkpt lat="44.99802" lon="3.71928">
        <ele>1210.992</ele>
        <time>2013-06-11T11:51:19Z</time>
      </trkpt>
      <trkpt lat="44.9979" lon="3.71913">
        <ele>1210.981</ele>
        <time>2013-06-11T11:51:35Z</time>
      </trkpt>
      <trkpt lat="44.9979" lon="3.71912">
        <ele>1210.997</ele>
        <time>2013-06-11T11:51:36Z</time>
      </trkpt>
      <trkpt lat="44.99786" lon="3.71901">
        <ele>1210.967</ele>
        <time>2013-06-11T11:51:43Z</time>
      </trkpt>
      <trkpt lat="44.99771" lon="3.71874">
        <ele>1210.996</ele>
        <time>2013-06-11T11:52:02Z</time>
      </trkpt>
      <trkpt lat="44.99766" lon="3.71854">
        <ele>1210.931</ele>
        <time>2013-06-11T11:52:15Z</time>
      </trkpt>
      <trkpt lat="44.99756" lon="3.71826">
        <ele>1210.424</ele>
        <time>2013-06-11T11:52:35Z</time>
      </trkpt>
      <trkpt lat="44.99756" lon="3.71825">
        <ele>1210.407</ele>
        <time>2013-06-11T11:52:36Z</time>
      </trkpt>
      <trkpt lat="44.99754" lon="3.71819">
        <ele>1210.993</ele>
        <time>2013-06-11T11:52:40Z</time>
      </trkpt>
      <trkpt lat="44.9975" lon="3.71784">
        <ele>1210.486</ele>
        <time>2013-06-11T11:53:01Z</time>
      </trkpt>
      <trkpt lat="44.9975" lon="3.71783">
        <ele>1210.45</ele>
        <time>2013-06-11T11:53:02Z</time>
      </trkpt>
      <trkpt lat="44.99746" lon="3.71758">
        <ele>1210.443</ele>
        <time>2013-06-11T11:53:20Z</time>
      </trkpt>
      <trkpt lat="44.99741" lon="3.7174">
        <ele>1210.062</ele>
        <time>2013-06-11T11:53:33Z</time>
      </trkpt>
      <trkpt lat="44.99741" lon="3.7172">
        <ele>1210.068</ele>
        <time>2013-06-11T11:53:50Z</time>
      </trkpt>
      <trkpt lat="44.99753" lon="3.71721">
        <ele>1210.478</ele>
        <time>2013-06-11T11:54:06Z</time>
      </trkpt>
      <trkpt lat="44.99768" lon="3.71715">
        <ele>1209.525</ele>
        <time>2013-06-11T11:54:23Z</time>
      </trkpt>
      <trkpt lat="44.99773" lon="3.71716">
        <ele>1210.026</ele>
        <time>2013-06-11T11:54:47Z</time>
      </trkpt>
      <trkpt lat="44.99772" lon="3.71717">
        <ele>1210.008</ele>
        <time>2013-06-11T11:56:46Z</time>
      </trkpt>
      <trkpt lat="44.99769" lon="3.71718">
        <ele>1210.007</ele>
        <time>2013-06-11T11:58:04Z</time>
      </trkpt>
      <trkpt lat="44.99766" lon="3.7172">
        <ele>1210.016</ele>
        <time>2013-06-11T11:59:42Z</time>
      </trkpt>
      <trkpt lat="44.99758" lon="3.71701">
        <ele>1210.429</ele>
        <time>2013-06-11T12:00:35Z</time>
      </trkpt>
      <trkpt lat="44.99754" lon="3.71695">
        <ele>1210.923</ele>
        <time>2013-06-11T12:00:41Z</time>
      </trkpt>
      <trkpt lat="44.9974" lon="3.71684">
        <ele>1210.976</ele>
        <time>2013-06-11T12:00:57Z</time>
      </trkpt>
      <trkpt lat="44.99728" lon="3.7168">
        <ele>1210.915</ele>
        <time>2013-06-11T12:01:11Z</time>
      </trkpt>
      <trkpt lat="44.99724" lon="3.71679">
        <ele>1210.421</ele>
        <time>2013-06-11T12:01:28Z</time>
      </trkpt>
      <trkpt lat="44.99709" lon="3.71673">
        <ele>1210.071</ele>
        <time>2013-06-11T12:01:50Z</time>
      </trkpt>
      <trkpt lat="44.99703" lon="3.7167">
        <ele>1210.457</ele>
        <time>2013-06-11T12:01:56Z</time>
      </trkpt>
      <trkpt lat="44.9969" lon="3.71666">
        <ele>1210</ele>
        <time>2013-06-11T12:02:08Z</time>
      </trkpt>
      <trkpt lat="44.99685" lon="3.71666">
        <ele>1209.02</ele>
        <time>2013-06-11T12:02:14Z</time>
      </trkpt>
      <trkpt lat="44.99675" lon="3.71658">
        <ele>1209.507</ele>
        <time>2013-06-11T12:02:30Z</time>
      </trkpt>
      <trkpt lat="44.99655" lon="3.71661">
        <ele>1208.529</ele>
        <time>2013-06-11T12:02:47Z</time>
      </trkpt>
      <trkpt lat="44.99653" lon="3.71661">
        <ele>1209.542</ele>
        <time>2013-06-11T12:02:48Z</time>
      </trkpt>
      <trkpt lat="44.99642" lon="3.71655">
        <ele>1208.586</ele>
        <time>2013-06-11T12:03:00Z</time>
      </trkpt>
      <trkpt lat="44.99636" lon="3.71656">
        <ele>1208.549</ele>
        <time>2013-06-11T12:03:05Z</time>
      </trkpt>
      <trkpt lat="44.99624" lon="3.71647">
        <ele>1207.688</ele>
        <time>2013-06-11T12:03:17Z</time>
      </trkpt>
      <trkpt lat="44.99623" lon="3.71646">
        <ele>1207.644</ele>
        <time>2013-06-11T12:03:18Z</time>
      </trkpt>
      <trkpt lat="44.99611" lon="3.71646">
        <ele>1207.174</ele>
        <time>2013-06-11T12:03:30Z</time>
      </trkpt>
      <trkpt lat="44.99609" lon="3.71645">
        <ele>1207.693</ele>
        <time>2013-06-11T12:03:32Z</time>
      </trkpt>
      <trkpt lat="44.99595" lon="3.7164">
        <ele>1207.665</ele>
        <time>2013-06-11T12:03:46Z</time>
      </trkpt>
      <trkpt lat="44.99583" lon="3.71612">
        <ele>1206.121</ele>
        <time>2013-06-11T12:04:04Z</time>
      </trkpt>
      <trkpt lat="44.99574" lon="3.71598">
        <ele>1204.707</ele>
        <time>2013-06-11T12:04:18Z</time>
      </trkpt>
      <trkpt lat="44.99566" lon="3.71578">
        <ele>1203.293</ele>
        <time>2013-06-11T12:04:35Z</time>
      </trkpt>
      <trkpt lat="44.99564" lon="3.71576">
        <ele>1203.786</ele>
        <time>2013-06-11T12:04:37Z</time>
      </trkpt>
      <trkpt lat="44.99559" lon="3.71566">
        <ele>1202.74</ele>
        <time>2013-06-11T12:04:46Z</time>
      </trkpt>
      <trkpt lat="44.99552" lon="3.71556">
        <ele>1202.333</ele>
        <time>2013-06-11T12:04:55Z</time>
      </trkpt>
      <trkpt lat="44.99545" lon="3.71539">
        <ele>1201.392</ele>
        <time>2013-06-11T12:05:06Z</time>
      </trkpt>
      <trkpt lat="44.99539" lon="3.71523">
        <ele>1201.898</ele>
        <time>2013-06-11T12:05:18Z</time>
      </trkpt>
      <trkpt lat="44.99535" lon="3.7151">
        <ele>1200.898</ele>
        <time>2013-06-11T12:05:26Z</time>
      </trkpt>
      <trkpt lat="44.99527" lon="3.71496">
        <ele>1200.822</ele>
        <time>2013-06-11T12:05:38Z</time>
      </trkpt>
      <trkpt lat="44.99524" lon="3.7149">
        <ele>1200.362</ele>
        <time>2013-06-11T12:05:43Z</time>
      </trkpt>
      <trkpt lat="44.99522" lon="3.71487">
        <ele>1199.908</ele>
        <time>2013-06-11T12:05:45Z</time>
      </trkpt>
      <trkpt lat="44.99522" lon="3.71477">
        <ele>1200.307</ele>
        <time>2013-06-11T12:05:50Z</time>
      </trkpt>
      <trkpt lat="44.9952" lon="3.71465">
        <ele>1199.496</ele>
        <time>2013-06-11T12:05:58Z</time>
      </trkpt>
      <trkpt lat="44.9952" lon="3.71462">
        <ele>1199.499</ele>
        <time>2013-06-11T12:06:00Z</time>
      </trkpt>
      <trkpt lat="44.99519" lon="3.71458">
        <ele>1198.913</ele>
        <time>2013-06-11T12:06:02Z</time>
      </trkpt>
      <trkpt lat="44.99518" lon="3.71448">
        <ele>1198.966</ele>
        <time>2013-06-11T12:06:09Z</time>
      </trkpt>
      <trkpt lat="44.99516" lon="3.71443">
        <ele>1197.965</ele>
        <time>2013-06-11T12:06:12Z</time>
      </trkpt>
      <trkpt lat="44.99513" lon="3.71437">
        <ele>1197.981</ele>
        <time>2013-06-11T12:06:17Z</time>
      </trkpt>
      <trkpt lat="44.99512" lon="3.71426">
        <ele>1197.031</ele>
        <time>2013-06-11T12:06:23Z</time>
      </trkpt>
      <trkpt lat="44.99509" lon="3.71418">
        <ele>1196.081</ele>
        <time>2013-06-11T12:06:29Z</time>
      </trkpt>
      <trkpt lat="44.99504" lon="3.71402">
        <ele>1192.761</ele>
        <time>2013-06-11T12:06:47Z</time>
      </trkpt>
      <trkpt lat="44.99501" lon="3.7139">
        <ele>1191.717</ele>
        <time>2013-06-11T12:06:57Z</time>
      </trkpt>
      <trkpt lat="44.99498" lon="3.71373">
        <ele>1189.307</ele>
        <time>2013-06-11T12:07:12Z</time>
      </trkpt>
      <trkpt lat="44.99497" lon="3.7137">
        <ele>1189.382</ele>
        <time>2013-06-11T12:07:14Z</time>
      </trkpt>
      <trkpt lat="44.99495" lon="3.71366">
        <ele>1188.325</ele>
        <time>2013-06-11T12:07:17Z</time>
      </trkpt>
      <trkpt lat="44.99493" lon="3.71356">
        <ele>1187.849</ele>
        <time>2013-06-11T12:07:23Z</time>
      </trkpt>
      <trkpt lat="44.99493" lon="3.7135">
        <ele>1187.472</ele>
        <time>2013-06-11T12:07:27Z</time>
      </trkpt>
      <trkpt lat="44.99491" lon="3.71339">
        <ele>1185.981</ele>
        <time>2013-06-11T12:07:34Z</time>
      </trkpt>
      <trkpt lat="44.99491" lon="3.71336">
        <ele>1185.997</ele>
        <time>2013-06-11T12:07:36Z</time>
      </trkpt>
      <trkpt lat="44.99491" lon="3.71331">
        <ele>1185.987</ele>
        <time>2013-06-11T12:07:39Z</time>
      </trkpt>
      <trkpt lat="44.99488" lon="3.71308">
        <ele>1185.089</ele>
        <time>2013-06-11T12:07:53Z</time>
      </trkpt>
      <trkpt lat="44.99487" lon="3.71305">
        <ele>1185.006</ele>
        <time>2013-06-11T12:07:55Z</time>
      </trkpt>
      <trkpt lat="44.99486" lon="3.71301">
        <ele>1183.526</ele>
        <time>2013-06-11T12:07:58Z</time>
      </trkpt>
      <trkpt lat="44.99481" lon="3.7128">
        <ele>1182.607</ele>
        <time>2013-06-11T12:08:11Z</time>
      </trkpt>
      <trkpt lat="44.9948" lon="3.71272">
        <ele>1181.672</ele>
        <time>2013-06-11T12:08:17Z</time>
      </trkpt>
      <trkpt lat="44.9948" lon="3.71269">
        <ele>1180.625</ele>
        <time>2013-06-11T12:08:20Z</time>
      </trkpt>
      <trkpt lat="44.9948" lon="3.71263">
        <ele>1180.619</ele>
        <time>2013-06-11T12:08:24Z</time>
      </trkpt>
      <trkpt lat="44.99475" lon="3.71251">
        <ele>1179.252</ele>
        <time>2013-06-11T12:08:32Z</time>
      </trkpt>
      <trkpt lat="44.99473" lon="3.71241">
        <ele>1178.751</ele>
        <time>2013-06-11T12:08:40Z</time>
      </trkpt>
      <trkpt lat="44.9947" lon="3.71237">
        <ele>1177.897</ele>
        <time>2013-06-11T12:08:44Z</time>
      </trkpt>
      <trkpt lat="44.99462" lon="3.71219">
        <ele>1176.387</ele>
        <time>2013-06-11T12:08:59Z</time>
      </trkpt>
      <trkpt lat="44.9946" lon="3.71215">
        <ele>1175.875</ele>
        <time>2013-06-11T12:09:02Z</time>
      </trkpt>
      <trkpt lat="44.99456" lon="3.71199">
        <ele>1174.428</ele>
        <time>2013-06-11T12:09:11Z</time>
      </trkpt>
      <trkpt lat="44.99453" lon="3.71193">
        <ele>1173.92</ele>
        <time>2013-06-11T12:09:15Z</time>
      </trkpt>
      <trkpt lat="44.99451" lon="3.71188">
        <ele>1173.407</ele>
        <time>2013-06-11T12:09:20Z</time>
      </trkpt>
      <trkpt lat="44.99447" lon="3.71179">
        <ele>1172.911</ele>
        <time>2013-06-11T12:09:26Z</time>
      </trkpt>
      <trkpt lat="44.99441" lon="3.71153">
        <ele>1171.084</ele>
        <time>2013-06-11T12:09:41Z</time>
      </trkpt>
      <trkpt lat="44.99437" lon="3.71128">
        <ele>1169.198</ele>
        <time>2013-06-11T12:09:58Z</time>
      </trkpt>
      <trkpt lat="44.99434" lon="3.7112">
        <ele>1169.171</ele>
        <time>2013-06-11T12:10:04Z</time>
      </trkpt>
      <trkpt lat="44.99426" lon="3.71106">
        <ele>1168.13</ele>
        <time>2013-06-11T12:10:13Z</time>
      </trkpt>
      <trkpt lat="44.9942" lon="3.71096">
        <ele>1168.146</ele>
        <time>2013-06-11T12:10:22Z</time>
      </trkpt>
      <trkpt lat="44.99417" lon="3.71091">
        <ele>1167.256</ele>
        <time>2013-06-11T12:10:27Z</time>
      </trkpt>
      <trkpt lat="44.99404" lon="3.71074">
        <ele>1166.232</ele>
        <time>2013-06-11T12:10:43Z</time>
      </trkpt>
      <trkpt lat="44.994" lon="3.71066">
        <ele>1165.392</ele>
        <time>2013-06-11T12:10:49Z</time>
      </trkpt>
      <trkpt lat="44.994" lon="3.71061">
        <ele>1164.811</ele>
        <time>2013-06-11T12:10:53Z</time>
      </trkpt>
      <trkpt lat="44.99399" lon="3.71058">
        <ele>1165.307</ele>
        <time>2013-06-11T12:10:55Z</time>
      </trkpt>
      <trkpt lat="44.99394" lon="3.71051">
        <ele>1164.377</ele>
        <time>2013-06-11T12:11:02Z</time>
      </trkpt>
      <trkpt lat="44.99391" lon="3.71046">
        <ele>1164.89</ele>
        <time>2013-06-11T12:11:07Z</time>
      </trkpt>
      <trkpt lat="44.99381" lon="3.71034">
        <ele>1164.384</ele>
        <time>2013-06-11T12:11:22Z</time>
      </trkpt>
      <trkpt lat="44.99371" lon="3.71015">
        <ele>1162.937</ele>
        <time>2013-06-11T12:11:39Z</time>
      </trkpt>
      <trkpt lat="44.99367" lon="3.71006">
        <ele>1162.486</ele>
        <time>2013-06-11T12:11:57Z</time>
      </trkpt>
      <trkpt lat="44.99349" lon="3.70973">
        <ele>1160.432</ele>
        <time>2013-06-11T12:12:23Z</time>
      </trkpt>
      <trkpt lat="44.99337" lon="3.70954">
        <ele>1160.922</ele>
        <time>2013-06-11T12:12:39Z</time>
      </trkpt>
      <trkpt lat="44.99335" lon="3.7095">
        <ele>1159.089</ele>
        <time>2013-06-11T12:12:42Z</time>
      </trkpt>
      <trkpt lat="44.99325" lon="3.70926">
        <ele>1159.506</ele>
        <time>2013-06-11T12:12:59Z</time>
      </trkpt>
      <trkpt lat="44.99314" lon="3.70902">
        <ele>1157.126</ele>
        <time>2013-06-11T12:13:16Z</time>
      </trkpt>
      <trkpt lat="44.99306" lon="3.70885">
        <ele>1156.607</ele>
        <time>2013-06-11T12:13:29Z</time>
      </trkpt>
      <trkpt lat="44.99295" lon="3.70869">
        <ele>1155.662</ele>
        <time>2013-06-11T12:13:43Z</time>
      </trkpt>
      <trkpt lat="44.99283" lon="3.70853">
        <ele>1154.785</ele>
        <time>2013-06-11T12:13:58Z</time>
      </trkpt>
      <trkpt lat="44.9927" lon="3.70838">
        <ele>1154.249</ele>
        <time>2013-06-11T12:14:12Z</time>
      </trkpt>
      <trkpt lat="44.99259" lon="3.70828">
        <ele>1153.722</ele>
        <time>2013-06-11T12:14:23Z</time>
      </trkpt>
      <trkpt lat="44.99251" lon="3.70815">
        <ele>1152.891</ele>
        <time>2013-06-11T12:14:38Z</time>
      </trkpt>
      <trkpt lat="44.99241" lon="3.708">
        <ele>1151.317</ele>
        <time>2013-06-11T12:14:53Z</time>
      </trkpt>
      <trkpt lat="44.99239" lon="3.70797">
        <ele>1150.817</ele>
        <time>2013-06-11T12:14:55Z</time>
      </trkpt>
      <trkpt lat="44.9923" lon="3.70781">
        <ele>1149.959</ele>
        <time>2013-06-11T12:15:07Z</time>
      </trkpt>
      <trkpt lat="44.99228" lon="3.70777">
        <ele>1149.403</ele>
        <time>2013-06-11T12:15:10Z</time>
      </trkpt>
      <trkpt lat="44.99224" lon="3.70772">
        <ele>1148.423</ele>
        <time>2013-06-11T12:15:16Z</time>
      </trkpt>
      <trkpt lat="44.99209" lon="3.7076">
        <ele>1147.507</ele>
        <time>2013-06-11T12:15:32Z</time>
      </trkpt>
      <trkpt lat="44.99208" lon="3.70759">
        <ele>1147.049</ele>
        <time>2013-06-11T12:15:33Z</time>
      </trkpt>
      <trkpt lat="44.992" lon="3.70753">
        <ele>1146.572</ele>
        <time>2013-06-11T12:15:42Z</time>
      </trkpt>
      <trkpt lat="44.99195" lon="3.70749">
        <ele>1145.176</ele>
        <time>2013-06-11T12:15:47Z</time>
      </trkpt>
      <trkpt lat="44.9919" lon="3.70746">
        <ele>1144.189</ele>
        <time>2013-06-11T12:15:52Z</time>
      </trkpt>
      <trkpt lat="44.9917" lon="3.70724">
        <ele>1142.788</ele>
        <time>2013-06-11T12:16:14Z</time>
      </trkpt>
      <trkpt lat="44.99156" lon="3.7071">
        <ele>1140.794</ele>
        <time>2013-06-11T12:16:30Z</time>
      </trkpt>
      <trkpt lat="44.99142" lon="3.70698">
        <ele>1139.354</ele>
        <time>2013-06-11T12:16:46Z</time>
      </trkpt>
      <trkpt lat="44.99129" lon="3.70686">
        <ele>1138.824</ele>
        <time>2013-06-11T12:16:59Z</time>
      </trkpt>
      <trkpt lat="44.99114" lon="3.70661">
        <ele>1137.404</ele>
        <time>2013-06-11T12:17:18Z</time>
      </trkpt>
      <trkpt lat="44.99101" lon="3.70638">
        <ele>1135.514</ele>
        <time>2013-06-11T12:17:37Z</time>
      </trkpt>
      <trkpt lat="44.99096" lon="3.70621">
        <ele>1134.007</ele>
        <time>2013-06-11T12:17:51Z</time>
      </trkpt>
      <trkpt lat="44.99094" lon="3.70609">
        <ele>1132.116</ele>
        <time>2013-06-11T12:18:09Z</time>
      </trkpt>
      <trkpt lat="44.99091" lon="3.70594">
        <ele>1130.229</ele>
        <time>2013-06-11T12:18:37Z</time>
      </trkpt>
      <trkpt lat="44.9909" lon="3.70584">
        <ele>1128.273</ele>
        <time>2013-06-11T12:18:54Z</time>
      </trkpt>
      <trkpt lat="44.99089" lon="3.70582">
        <ele>1129.236</ele>
        <time>2013-06-11T12:19:16Z</time>
      </trkpt>
      <trkpt lat="44.99087" lon="3.7057">
        <ele>1127.345</ele>
        <time>2013-06-11T12:20:04Z</time>
      </trkpt>
      <trkpt lat="44.99085" lon="3.70557">
        <ele>1126.361</ele>
        <time>2013-06-11T12:20:24Z</time>
      </trkpt>
      <trkpt lat="44.99081" lon="3.70531">
        <ele>1123.491</ele>
        <time>2013-06-11T12:20:51Z</time>
      </trkpt>
      <trkpt lat="44.99079" lon="3.70522">
        <ele>1123.054</ele>
        <time>2013-06-11T12:21:19Z</time>
      </trkpt>
      <trkpt lat="44.99079" lon="3.7052">
        <ele>1122.056</ele>
        <time>2013-06-11T12:21:43Z</time>
      </trkpt>
      <trkpt lat="44.99078" lon="3.70503">
        <ele>1120.611</ele>
        <time>2013-06-11T12:22:11Z</time>
      </trkpt>
      <trkpt lat="44.99078" lon="3.70486">
        <ele>1120.107</ele>
        <time>2013-06-11T12:22:21Z</time>
      </trkpt>
      <trkpt lat="44.99077" lon="3.70478">
        <ele>1118.679</ele>
        <time>2013-06-11T12:22:27Z</time>
      </trkpt>
      <trkpt lat="44.99075" lon="3.70473">
        <ele>1117.792</ele>
        <time>2013-06-11T12:22:31Z</time>
      </trkpt>
      <trkpt lat="44.99071" lon="3.70453">
        <ele>1116.236</ele>
        <time>2013-06-11T12:22:44Z</time>
      </trkpt>
      <trkpt lat="44.9907" lon="3.70441">
        <ele>1115.369</ele>
        <time>2013-06-11T12:22:52Z</time>
      </trkpt>
      <trkpt lat="44.9907" lon="3.70435">
        <ele>1114.868</ele>
        <time>2013-06-11T12:22:56Z</time>
      </trkpt>
      <trkpt lat="44.99063" lon="3.70418">
        <ele>1114.314</ele>
        <time>2013-06-11T12:23:08Z</time>
      </trkpt>
      <trkpt lat="44.99055" lon="3.70398">
        <ele>1111.464</ele>
        <time>2013-06-11T12:23:24Z</time>
      </trkpt>
      <trkpt lat="44.99044" lon="3.7037">
        <ele>1109.586</ele>
        <time>2013-06-11T12:23:42Z</time>
      </trkpt>
      <trkpt lat="44.99041" lon="3.70345">
        <ele>1108.16</ele>
        <time>2013-06-11T12:23:58Z</time>
      </trkpt>
      <trkpt lat="44.99044" lon="3.70315">
        <ele>1105.726</ele>
        <time>2013-06-11T12:24:17Z</time>
      </trkpt>
      <trkpt lat="44.99051" lon="3.70289">
        <ele>1104.207</ele>
        <time>2013-06-11T12:24:33Z</time>
      </trkpt>
      <trkpt lat="44.99053" lon="3.70277">
        <ele>1103.362</ele>
        <time>2013-06-11T12:24:41Z</time>
      </trkpt>
      <trkpt lat="44.99054" lon="3.70252">
        <ele>1100.845</ele>
        <time>2013-06-11T12:24:56Z</time>
      </trkpt>
      <trkpt lat="44.99051" lon="3.70238">
        <ele>1101.369</ele>
        <time>2013-06-11T12:25:07Z</time>
      </trkpt>
      <trkpt lat="44.99045" lon="3.70228">
        <ele>1098.082</ele>
        <time>2013-06-11T12:25:27Z</time>
      </trkpt>
      <trkpt lat="44.99044" lon="3.70225">
        <ele>1099.961</ele>
        <time>2013-06-11T12:25:29Z</time>
      </trkpt>
      <trkpt lat="44.99039" lon="3.70219">
        <ele>1098.947</ele>
        <time>2013-06-11T12:25:35Z</time>
      </trkpt>
      <trkpt lat="44.99036" lon="3.70215">
        <ele>1097.567</ele>
        <time>2013-06-11T12:25:39Z</time>
      </trkpt>
      <trkpt lat="44.9903" lon="3.70205">
        <ele>1097.516</ele>
        <time>2013-06-11T12:25:48Z</time>
      </trkpt>
      <trkpt lat="44.99025" lon="3.70198">
        <ele>1096.076</ele>
        <time>2013-06-11T12:25:54Z</time>
      </trkpt>
      <trkpt lat="44.99014" lon="3.70175">
        <ele>1094.613</ele>
        <time>2013-06-11T12:26:12Z</time>
      </trkpt>
      <trkpt lat="44.99008" lon="3.70161">
        <ele>1093.607</ele>
        <time>2013-06-11T12:26:22Z</time>
      </trkpt>
      <trkpt lat="44.99007" lon="3.70157">
        <ele>1093.645</ele>
        <time>2013-06-11T12:26:25Z</time>
      </trkpt>
      <trkpt lat="44.99002" lon="3.70148">
        <ele>1092.738</ele>
        <time>2013-06-11T12:26:33Z</time>
      </trkpt>
      <trkpt lat="44.98996" lon="3.70131">
        <ele>1092.272</ele>
        <time>2013-06-11T12:26:44Z</time>
      </trkpt>
      <trkpt lat="44.98994" lon="3.70126">
        <ele>1091.755</ele>
        <time>2013-06-11T12:26:48Z</time>
      </trkpt>
      <trkpt lat="44.98991" lon="3.70121">
        <ele>1091.224</ele>
        <time>2013-06-11T12:26:52Z</time>
      </trkpt>
      <trkpt lat="44.98989" lon="3.70115">
        <ele>1091.75</ele>
        <time>2013-06-11T12:26:56Z</time>
      </trkpt>
      <trkpt lat="44.98981" lon="3.70099">
        <ele>1089.36</ele>
        <time>2013-06-11T12:27:13Z</time>
      </trkpt>
      <trkpt lat="44.98967" lon="3.70067">
        <ele>1086.999</ele>
        <time>2013-06-11T12:27:40Z</time>
      </trkpt>
      <trkpt lat="44.98958" lon="3.70046">
        <ele>1085.907</ele>
        <time>2013-06-11T12:27:55Z</time>
      </trkpt>
      <trkpt lat="44.98954" lon="3.70036">
        <ele>1086.427</ele>
        <time>2013-06-11T12:28:03Z</time>
      </trkpt>
      <trkpt lat="44.98949" lon="3.70022">
        <ele>1084.507</ele>
        <time>2013-06-11T12:28:22Z</time>
      </trkpt>
      <trkpt lat="44.98948" lon="3.70021">
        <ele>1084.513</ele>
        <time>2013-06-11T12:28:23Z</time>
      </trkpt>
      <trkpt lat="44.98932" lon="3.69989">
        <ele>1082.646</ele>
        <time>2013-06-11T12:28:47Z</time>
      </trkpt>
      <trkpt lat="44.98924" lon="3.69977">
        <ele>1082.69</ele>
        <time>2013-06-11T12:28:57Z</time>
      </trkpt>
      <trkpt lat="44.98908" lon="3.69953">
        <ele>1079.263</ele>
        <time>2013-06-11T12:29:17Z</time>
      </trkpt>
      <trkpt lat="44.98906" lon="3.69951">
        <ele>1081.662</ele>
        <time>2013-06-11T12:29:19Z</time>
      </trkpt>
      <trkpt lat="44.98891" lon="3.69922">
        <ele>1077.898</ele>
        <time>2013-06-11T12:29:42Z</time>
      </trkpt>
      <trkpt lat="44.98874" lon="3.69898">
        <ele>1075.458</ele>
        <time>2013-06-11T12:30:06Z</time>
      </trkpt>
      <trkpt lat="44.98855" lon="3.69875">
        <ele>1074.453</ele>
        <time>2013-06-11T12:30:30Z</time>
      </trkpt>
      <trkpt lat="44.9885" lon="3.6987">
        <ele>1072.504</ele>
        <time>2013-06-11T12:30:54Z</time>
      </trkpt>
      <trkpt lat="44.98845" lon="3.69865">
        <ele>1072.514</ele>
        <time>2013-06-11T12:31:02Z</time>
      </trkpt>
      <trkpt lat="44.98838" lon="3.69858">
        <ele>1072.507</ele>
        <time>2013-06-11T12:31:10Z</time>
      </trkpt>
      <trkpt lat="44.98832" lon="3.69851">
        <ele>1069.629</ele>
        <time>2013-06-11T12:31:17Z</time>
      </trkpt>
      <trkpt lat="44.98828" lon="3.6985">
        <ele>1070.682</ele>
        <time>2013-06-11T12:31:21Z</time>
      </trkpt>
      <trkpt lat="44.98825" lon="3.69848">
        <ele>1070.136</ele>
        <time>2013-06-11T12:31:24Z</time>
      </trkpt>
      <trkpt lat="44.98822" lon="3.69846">
        <ele>1070.119</ele>
        <time>2013-06-11T12:31:27Z</time>
      </trkpt>
      <trkpt lat="44.98809" lon="3.69834">
        <ele>1069.198</ele>
        <time>2013-06-11T12:31:42Z</time>
      </trkpt>
      <trkpt lat="44.98808" lon="3.69833">
        <ele>1069.154</ele>
        <time>2013-06-11T12:31:43Z</time>
      </trkpt>
      <trkpt lat="44.98792" lon="3.69822">
        <ele>1069.174</ele>
        <time>2013-06-11T12:32:02Z</time>
      </trkpt>
      <trkpt lat="44.98782" lon="3.69816">
        <ele>1067.222</ele>
        <time>2013-06-11T12:32:18Z</time>
      </trkpt>
      <trkpt lat="44.98778" lon="3.69806">
        <ele>1065.862</ele>
        <time>2013-06-11T12:32:27Z</time>
      </trkpt>
      <trkpt lat="44.98779" lon="3.69793">
        <ele>1065.808</ele>
        <time>2013-06-11T12:32:35Z</time>
      </trkpt>
      <trkpt lat="44.98778" lon="3.69785">
        <ele>1064.807</ele>
        <time>2013-06-11T12:32:40Z</time>
      </trkpt>
      <trkpt lat="44.98778" lon="3.69763">
        <ele>1062.946</ele>
        <time>2013-06-11T12:32:54Z</time>
      </trkpt>
      <trkpt lat="44.98779" lon="3.69746">
        <ele>1061.489</ele>
        <time>2013-06-11T12:33:06Z</time>
      </trkpt>
      <trkpt lat="44.98781" lon="3.69736">
        <ele>1061.063</ele>
        <time>2013-06-11T12:33:13Z</time>
      </trkpt>
      <trkpt lat="44.98781" lon="3.69707">
        <ele>1059.596</ele>
        <time>2013-06-11T12:33:29Z</time>
      </trkpt>
      <trkpt lat="44.9878" lon="3.69698">
        <ele>1059.015</ele>
        <time>2013-06-11T12:33:35Z</time>
      </trkpt>
      <trkpt lat="44.98778" lon="3.69678">
        <ele>1058.571</ele>
        <time>2013-06-11T12:33:47Z</time>
      </trkpt>
      <trkpt lat="44.9878" lon="3.6967">
        <ele>1058.171</ele>
        <time>2013-06-11T12:33:53Z</time>
      </trkpt>
      <trkpt lat="44.98782" lon="3.69665">
        <ele>1057.673</ele>
        <time>2013-06-11T12:33:57Z</time>
      </trkpt>
      <trkpt lat="44.98782" lon="3.6966">
        <ele>1057.185</ele>
        <time>2013-06-11T12:34:00Z</time>
      </trkpt>
      <trkpt lat="44.98784" lon="3.69636">
        <ele>1055.713</ele>
        <time>2013-06-11T12:34:16Z</time>
      </trkpt>
      <trkpt lat="44.98784" lon="3.69612">
        <ele>1054.707</ele>
        <time>2013-06-11T12:34:32Z</time>
      </trkpt>
      <trkpt lat="44.98784" lon="3.69604">
        <ele>1054.781</ele>
        <time>2013-06-11T12:34:36Z</time>
      </trkpt>
      <trkpt lat="44.98784" lon="3.69598">
        <ele>1054.274</ele>
        <time>2013-06-11T12:34:40Z</time>
      </trkpt>
      <trkpt lat="44.98784" lon="3.69592">
        <ele>1053.748</ele>
        <time>2013-06-11T12:34:44Z</time>
      </trkpt>
      <trkpt lat="44.98785" lon="3.69582">
        <ele>1053.781</ele>
        <time>2013-06-11T12:34:50Z</time>
      </trkpt>
      <trkpt lat="44.98787" lon="3.69561">
        <ele>1051.81</ele>
        <time>2013-06-11T12:35:04Z</time>
      </trkpt>
      <trkpt lat="44.98787" lon="3.69555">
        <ele>1052.896</ele>
        <time>2013-06-11T12:35:08Z</time>
      </trkpt>
      <trkpt lat="44.98786" lon="3.69537">
        <ele>1051.366</ele>
        <time>2013-06-11T12:35:18Z</time>
      </trkpt>
      <trkpt lat="44.98786" lon="3.69535">
        <ele>1051.361</ele>
        <time>2013-06-11T12:35:20Z</time>
      </trkpt>
      <trkpt lat="44.98784" lon="3.69523">
        <ele>1049.921</ele>
        <time>2013-06-11T12:35:30Z</time>
      </trkpt>
      <trkpt lat="44.98776" lon="3.69492">
        <ele>1048.913</ele>
        <time>2013-06-11T12:35:49Z</time>
      </trkpt>
      <trkpt lat="44.9877" lon="3.69462">
        <ele>1047.507</ele>
        <time>2013-06-11T12:36:10Z</time>
      </trkpt>
      <trkpt lat="44.9877" lon="3.69455">
        <ele>1046.59</ele>
        <time>2013-06-11T12:36:15Z</time>
      </trkpt>
      <trkpt lat="44.98763" lon="3.69444">
        <ele>1045.653</ele>
        <time>2013-06-11T12:36:30Z</time>
      </trkpt>
      <trkpt lat="44.98761" lon="3.69434">
        <ele>1045.627</ele>
        <time>2013-06-11T12:36:37Z</time>
      </trkpt>
      <trkpt lat="44.98758" lon="3.69424">
        <ele>1044.64</ele>
        <time>2013-06-11T12:36:44Z</time>
      </trkpt>
      <trkpt lat="44.98753" lon="3.69411">
        <ele>1043.639</ele>
        <time>2013-06-11T12:36:54Z</time>
      </trkpt>
      <trkpt lat="44.98749" lon="3.6938">
        <ele>1042.255</ele>
        <time>2013-06-11T12:37:15Z</time>
      </trkpt>
      <trkpt lat="44.98749" lon="3.69376">
        <ele>1042.225</ele>
        <time>2013-06-11T12:37:18Z</time>
      </trkpt>
      <trkpt lat="44.98749" lon="3.69373">
        <ele>1042.215</ele>
        <time>2013-06-11T12:37:20Z</time>
      </trkpt>
      <trkpt lat="44.98748" lon="3.69363">
        <ele>1041.765</ele>
        <time>2013-06-11T12:37:27Z</time>
      </trkpt>
      <trkpt lat="44.98748" lon="3.69351">
        <ele>1041.711</ele>
        <time>2013-06-11T12:37:35Z</time>
      </trkpt>
      <trkpt lat="44.98754" lon="3.69327">
        <ele>1040.807</ele>
        <time>2013-06-11T12:37:51Z</time>
      </trkpt>
      <trkpt lat="44.98754" lon="3.69313">
        <ele>1041.245</ele>
        <time>2013-06-11T12:38:10Z</time>
      </trkpt>
      <trkpt lat="44.98754" lon="3.6931">
        <ele>1040.358</ele>
        <time>2013-06-11T12:38:13Z</time>
      </trkpt>
      <trkpt lat="44.98759" lon="3.69294">
        <ele>1040.852</ele>
        <time>2013-06-11T12:38:30Z</time>
      </trkpt>
      <trkpt lat="44.98757" lon="3.69271">
        <ele>1039.815</ele>
        <time>2013-06-11T12:38:52Z</time>
      </trkpt>
      <trkpt lat="44.98754" lon="3.69262">
        <ele>1039.854</ele>
        <time>2013-06-11T12:39:00Z</time>
      </trkpt>
      <trkpt lat="44.98748" lon="3.69252">
        <ele>1039.36</ele>
        <time>2013-06-11T12:39:21Z</time>
      </trkpt>
      <trkpt lat="44.98742" lon="3.6925">
        <ele>1038.48</ele>
        <time>2013-06-11T12:39:44Z</time>
      </trkpt>
      <trkpt lat="44.98736" lon="3.69242">
        <ele>1037.971</ele>
        <time>2013-06-11T12:39:57Z</time>
      </trkpt>
      <trkpt lat="44.98733" lon="3.69238">
        <ele>1037.941</ele>
        <time>2013-06-11T12:40:03Z</time>
      </trkpt>
      <trkpt lat="44.98728" lon="3.69234">
        <ele>1036.915</ele>
        <time>2013-06-11T12:40:09Z</time>
      </trkpt>
      <trkpt lat="44.98723" lon="3.69222">
        <ele>1036.407</ele>
        <time>2013-06-11T12:40:22Z</time>
      </trkpt>
      <trkpt lat="44.9872" lon="3.69215">
        <ele>1036.061</ele>
        <time>2013-06-11T12:40:27Z</time>
      </trkpt>
      <trkpt lat="44.98719" lon="3.69209">
        <ele>1036.434</ele>
        <time>2013-06-11T12:40:31Z</time>
      </trkpt>
      <trkpt lat="44.9872" lon="3.69194">
        <ele>1036.038</ele>
        <time>2013-06-11T12:40:43Z</time>
      </trkpt>
      <trkpt lat="44.98724" lon="3.69172">
        <ele>1035.071</ele>
        <time>2013-06-11T12:41:01Z</time>
      </trkpt>
      <trkpt lat="44.98727" lon="3.69153">
        <ele>1035.01</ele>
        <time>2013-06-11T12:41:14Z</time>
      </trkpt>
      <trkpt lat="44.98727" lon="3.69148">
        <ele>1035.546</ele>
        <time>2013-06-11T12:41:18Z</time>
      </trkpt>
      <trkpt lat="44.98731" lon="3.69119">
        <ele>1035.026</ele>
        <time>2013-06-11T12:41:36Z</time>
      </trkpt>
      <trkpt lat="44.98732" lon="3.69104">
        <ele>1034.553</ele>
        <time>2013-06-11T12:41:47Z</time>
      </trkpt>
      <trkpt lat="44.98733" lon="3.69092">
        <ele>1034.004</ele>
        <time>2013-06-11T12:41:54Z</time>
      </trkpt>
      <trkpt lat="44.98736" lon="3.69077">
        <ele>1033.114</ele>
        <time>2013-06-11T12:42:04Z</time>
      </trkpt>
      <trkpt lat="44.98734" lon="3.69057">
        <ele>1033.607</ele>
        <time>2013-06-11T12:42:17Z</time>
      </trkpt>
      <trkpt lat="44.98734" lon="3.69043">
        <ele>1032.649</ele>
        <time>2013-06-11T12:42:29Z</time>
      </trkpt>
      <trkpt lat="44.98733" lon="3.6904">
        <ele>1033.142</ele>
        <time>2013-06-11T12:42:31Z</time>
      </trkpt>
      <trkpt lat="44.98733" lon="3.69032">
        <ele>1033.626</ele>
        <time>2013-06-11T12:42:36Z</time>
      </trkpt>
      <trkpt lat="44.98735" lon="3.69014">
        <ele>1032.679</ele>
        <time>2013-06-11T12:42:47Z</time>
      </trkpt>
      <trkpt lat="44.98735" lon="3.69001">
        <ele>1031.668</ele>
        <time>2013-06-11T12:42:54Z</time>
      </trkpt>
      <trkpt lat="44.98734" lon="3.68983">
        <ele>1031.644</ele>
        <time>2013-06-11T12:43:06Z</time>
      </trkpt>
      <trkpt lat="44.98735" lon="3.68976">
        <ele>1031.684</ele>
        <time>2013-06-11T12:43:10Z</time>
      </trkpt>
      <trkpt lat="44.98734" lon="3.68961">
        <ele>1031.226</ele>
        <time>2013-06-11T12:43:19Z</time>
      </trkpt>
      <trkpt lat="44.98735" lon="3.68953">
        <ele>1030.247</ele>
        <time>2013-06-11T12:43:24Z</time>
      </trkpt>
      <trkpt lat="44.98732" lon="3.68925">
        <ele>1029.211</ele>
        <time>2013-06-11T12:43:42Z</time>
      </trkpt>
      <trkpt lat="44.98732" lon="3.68923">
        <ele>1029.207</ele>
        <time>2013-06-11T12:43:43Z</time>
      </trkpt>
      <trkpt lat="44.98732" lon="3.68916">
        <ele>1028.396</ele>
        <time>2013-06-11T12:43:48Z</time>
      </trkpt>
      <trkpt lat="44.98733" lon="3.68892">
        <ele>1027.819</ele>
        <time>2013-06-11T12:44:04Z</time>
      </trkpt>
      <trkpt lat="44.98734" lon="3.68884">
        <ele>1027.353</ele>
        <time>2013-06-11T12:44:09Z</time>
      </trkpt>
      <trkpt lat="44.98734" lon="3.68853">
        <ele>1025.946</ele>
        <time>2013-06-11T12:44:27Z</time>
      </trkpt>
      <trkpt lat="44.98736" lon="3.68831">
        <ele>1024.955</ele>
        <time>2013-06-11T12:44:44Z</time>
      </trkpt>
      <trkpt lat="44.98735" lon="3.68828">
        <ele>1024.961</ele>
        <time>2013-06-11T12:44:51Z</time>
      </trkpt>
      <trkpt lat="44.98732" lon="3.68817">
        <ele>1023.971</ele>
        <time>2013-06-11T12:45:00Z</time>
      </trkpt>
      <trkpt lat="44.98728" lon="3.688">
        <ele>1023.084</ele>
        <time>2013-06-11T12:45:13Z</time>
      </trkpt>
      <trkpt lat="44.98728" lon="3.68787">
        <ele>1023.007</ele>
        <time>2013-06-11T12:45:22Z</time>
      </trkpt>
      <trkpt lat="44.98729" lon="3.68782">
        <ele>1022.517</ele>
        <time>2013-06-11T12:45:25Z</time>
      </trkpt>
      <trkpt lat="44.98734" lon="3.68759">
        <ele>1022.007</ele>
        <time>2013-06-11T12:45:41Z</time>
      </trkpt>
      <trkpt lat="44.98738" lon="3.6874">
        <ele>1019.682</ele>
        <time>2013-06-11T12:45:54Z</time>
      </trkpt>
      <trkpt lat="44.98744" lon="3.6872">
        <ele>1017.245</ele>
        <time>2013-06-11T12:46:12Z</time>
      </trkpt>
      <trkpt lat="44.98755" lon="3.68706">
        <ele>1015.849</ele>
        <time>2013-06-11T12:46:26Z</time>
      </trkpt>
      <trkpt lat="44.9876" lon="3.687">
        <ele>1014.392</ele>
        <time>2013-06-11T12:46:36Z</time>
      </trkpt>
      <trkpt lat="44.98769" lon="3.68694">
        <ele>1015.371</ele>
        <time>2013-06-11T12:46:51Z</time>
      </trkpt>
      <trkpt lat="44.9877" lon="3.68693">
        <ele>1013.857</ele>
        <time>2013-06-11T12:46:52Z</time>
      </trkpt>
      <trkpt lat="44.98773" lon="3.6869">
        <ele>1012.987</ele>
        <time>2013-06-11T12:46:57Z</time>
      </trkpt>
      <trkpt lat="44.98783" lon="3.68673">
        <ele>1012.479</ele>
        <time>2013-06-11T12:47:10Z</time>
      </trkpt>
      <trkpt lat="44.98785" lon="3.6867">
        <ele>1011.905</ele>
        <time>2013-06-11T12:47:14Z</time>
      </trkpt>
      <trkpt lat="44.98796" lon="3.68647">
        <ele>1009.525</ele>
        <time>2013-06-11T12:47:34Z</time>
      </trkpt>
      <trkpt lat="44.98805" lon="3.68632">
        <ele>1006.207</ele>
        <time>2013-06-11T12:47:46Z</time>
      </trkpt>
      <trkpt lat="44.98817" lon="3.68619">
        <ele>1005.271</ele>
        <time>2013-06-11T12:48:02Z</time>
      </trkpt>
      <trkpt lat="44.98832" lon="3.68607">
        <ele>1002.384</ele>
        <time>2013-06-11T12:48:21Z</time>
      </trkpt>
      <trkpt lat="44.98843" lon="3.68598">
        <ele>999.988</ele>
        <time>2013-06-11T12:48:37Z</time>
      </trkpt>
      <trkpt lat="44.98846" lon="3.68597">
        <ele>999.951</ele>
        <time>2013-06-11T12:49:03Z</time>
      </trkpt>
      <trkpt lat="44.9886" lon="3.68586">
        <ele>997.54</ele>
        <time>2013-06-11T12:49:32Z</time>
      </trkpt>
      <trkpt lat="44.98871" lon="3.68574">
        <ele>994.156</ele>
        <time>2013-06-11T12:49:51Z</time>
      </trkpt>
      <trkpt lat="44.98883" lon="3.68563">
        <ele>990.866</ele>
        <time>2013-06-11T12:50:08Z</time>
      </trkpt>
      <trkpt lat="44.98888" lon="3.68555">
        <ele>989.336</ele>
        <time>2013-06-11T12:50:18Z</time>
      </trkpt>
      <trkpt lat="44.98894" lon="3.68546">
        <ele>987.417</ele>
        <time>2013-06-11T12:50:28Z</time>
      </trkpt>
      <trkpt lat="44.98906" lon="3.68531">
        <ele>984.018</ele>
        <time>2013-06-11T12:50:46Z</time>
      </trkpt>
      <trkpt lat="44.98914" lon="3.68525">
        <ele>983.107</ele>
        <time>2013-06-11T12:50:54Z</time>
      </trkpt>
      <trkpt lat="44.98919" lon="3.68523">
        <ele>982.117</ele>
        <time>2013-06-11T12:50:58Z</time>
      </trkpt>
      <trkpt lat="44.98937" lon="3.68522">
        <ele>979.75</ele>
        <time>2013-06-11T12:51:17Z</time>
      </trkpt>
      <trkpt lat="44.98954" lon="3.68529">
        <ele>976.864</ele>
        <time>2013-06-11T12:51:36Z</time>
      </trkpt>
      <trkpt lat="44.98968" lon="3.68523">
        <ele>973.577</ele>
        <time>2013-06-11T12:51:55Z</time>
      </trkpt>
      <trkpt lat="44.98979" lon="3.68514">
        <ele>970.676</ele>
        <time>2013-06-11T12:52:11Z</time>
      </trkpt>
      <trkpt lat="44.98993" lon="3.68503">
        <ele>967.232</ele>
        <time>2013-06-11T12:52:30Z</time>
      </trkpt>
      <trkpt lat="44.9901" lon="3.68489">
        <ele>965.322</ele>
        <time>2013-06-11T12:52:48Z</time>
      </trkpt>
      <trkpt lat="44.9903" lon="3.68491">
        <ele>963.912</ele>
        <time>2013-06-11T12:53:06Z</time>
      </trkpt>
      <trkpt lat="44.99041" lon="3.68509">
        <ele>961.932</ele>
        <time>2013-06-11T12:53:23Z</time>
      </trkpt>
      <trkpt lat="44.99055" lon="3.68524">
        <ele>961.005</ele>
        <time>2013-06-11T12:53:40Z</time>
      </trkpt>
      <trkpt lat="44.99059" lon="3.68527">
        <ele>961.007</ele>
        <time>2013-06-11T12:53:44Z</time>
      </trkpt>
      <trkpt lat="44.99073" lon="3.68542">
        <ele>959.125</ele>
        <time>2013-06-11T12:54:02Z</time>
      </trkpt>
      <trkpt lat="44.99088" lon="3.68552">
        <ele>958.178</ele>
        <time>2013-06-11T12:54:17Z</time>
      </trkpt>
      <trkpt lat="44.99106" lon="3.68563">
        <ele>957.182</ele>
        <time>2013-06-11T12:54:33Z</time>
      </trkpt>
      <trkpt lat="44.99125" lon="3.68573">
        <ele>954.755</ele>
        <time>2013-06-11T12:54:53Z</time>
      </trkpt>
      <trkpt lat="44.99143" lon="3.68582">
        <ele>954.234</ele>
        <time>2013-06-11T12:55:12Z</time>
      </trkpt>
      <trkpt lat="44.99154" lon="3.68586">
        <ele>953.88</ele>
        <time>2013-06-11T12:55:33Z</time>
      </trkpt>
      <trkpt lat="44.9916" lon="3.68586">
        <ele>951.81</ele>
        <time>2013-06-11T12:55:43Z</time>
      </trkpt>
      <trkpt lat="44.99174" lon="3.68587">
        <ele>950.462</ele>
        <time>2013-06-11T12:56:04Z</time>
      </trkpt>
      <trkpt lat="44.9918" lon="3.68584">
        <ele>947.583</ele>
        <time>2013-06-11T12:56:19Z</time>
      </trkpt>
      <trkpt lat="44.99186" lon="3.68574">
        <ele>946.611</ele>
        <time>2013-06-11T12:56:37Z</time>
      </trkpt>
      <trkpt lat="44.99197" lon="3.68559">
        <ele>944.207</ele>
        <time>2013-06-11T12:57:11Z</time>
      </trkpt>
      <trkpt lat="44.99206" lon="3.68543">
        <ele>940.86</ele>
        <time>2013-06-11T12:57:37Z</time>
      </trkpt>
      <trkpt lat="44.99207" lon="3.68526">
        <ele>937.443</ele>
        <time>2013-06-11T12:57:54Z</time>
      </trkpt>
      <trkpt lat="44.99213" lon="3.68498">
        <ele>935.547</ele>
        <time>2013-06-11T12:58:22Z</time>
      </trkpt>
      <trkpt lat="44.99222" lon="3.68484">
        <ele>933.13</ele>
        <time>2013-06-11T12:58:42Z</time>
      </trkpt>
      <trkpt lat="44.99225" lon="3.68461">
        <ele>929.729</ele>
        <time>2013-06-11T12:58:59Z</time>
      </trkpt>
      <trkpt lat="44.99226" lon="3.68451">
        <ele>927.835</ele>
        <time>2013-06-11T12:59:32Z</time>
      </trkpt>
      <trkpt lat="44.99235" lon="3.68437">
        <ele>924.475</ele>
        <time>2013-06-11T12:59:56Z</time>
      </trkpt>
      <trkpt lat="44.9923" lon="3.68426">
        <ele>921.622</ele>
        <time>2013-06-11T13:00:22Z</time>
      </trkpt>
      <trkpt lat="44.99227" lon="3.68409">
        <ele>918.262</ele>
        <time>2013-06-11T13:00:41Z</time>
      </trkpt>
      <trkpt lat="44.99232" lon="3.68404">
        <ele>916.808</ele>
        <time>2013-06-11T13:01:04Z</time>
      </trkpt>
      <trkpt lat="44.99238" lon="3.68408">
        <ele>914.807</ele>
        <time>2013-06-11T13:01:28Z</time>
      </trkpt>
      <trkpt lat="44.99246" lon="3.68405">
        <ele>913.486</ele>
        <time>2013-06-11T13:01:51Z</time>
      </trkpt>
      <trkpt lat="44.99241" lon="3.68394">
        <ele>910.049</ele>
        <time>2013-06-11T13:02:11Z</time>
      </trkpt>
      <trkpt lat="44.99236" lon="3.68387">
        <ele>909.593</ele>
        <time>2013-06-11T13:02:30Z</time>
      </trkpt>
      <trkpt lat="44.99236" lon="3.68373">
        <ele>906.776</ele>
        <time>2013-06-11T13:02:51Z</time>
      </trkpt>
      <trkpt lat="44.9925" lon="3.6837">
        <ele>903.885</ele>
        <time>2013-06-11T13:03:10Z</time>
      </trkpt>
      <trkpt lat="44.99256" lon="3.68364">
        <ele>900.481</ele>
        <time>2013-06-11T13:03:31Z</time>
      </trkpt>
      <trkpt lat="44.99265" lon="3.68352">
        <ele>897.541</ele>
        <time>2013-06-11T13:03:52Z</time>
      </trkpt>
      <trkpt lat="44.9928" lon="3.68361">
        <ele>894.688</ele>
        <time>2013-06-11T13:04:18Z</time>
      </trkpt>
      <trkpt lat="44.99289" lon="3.68374">
        <ele>893.724</ele>
        <time>2013-06-11T13:04:41Z</time>
      </trkpt>
      <trkpt lat="44.99293" lon="3.68376">
        <ele>890.826</ele>
        <time>2013-06-11T13:05:37Z</time>
      </trkpt>
      <trkpt lat="44.99299" lon="3.68355">
        <ele>889.407</ele>
        <time>2013-06-11T13:05:55Z</time>
      </trkpt>
      <trkpt lat="44.99297" lon="3.68346">
        <ele>888.982</ele>
        <time>2013-06-11T13:06:01Z</time>
      </trkpt>
      <trkpt lat="44.99293" lon="3.68336">
        <ele>888.435</ele>
        <time>2013-06-11T13:06:09Z</time>
      </trkpt>
      <trkpt lat="44.99279" lon="3.68313">
        <ele>885.069</ele>
        <time>2013-06-11T13:06:34Z</time>
      </trkpt>
      <trkpt lat="44.99271" lon="3.68295">
        <ele>882.112</ele>
        <time>2013-06-11T13:06:55Z</time>
      </trkpt>
      <trkpt lat="44.99264" lon="3.68285">
        <ele>880.711</ele>
        <time>2013-06-11T13:07:24Z</time>
      </trkpt>
      <trkpt lat="44.99264" lon="3.68286">
        <ele>880.737</ele>
        <time>2013-06-11T13:08:04Z</time>
      </trkpt>
      <trkpt lat="44.99257" lon="3.68272">
        <ele>880.227</ele>
        <time>2013-06-11T13:08:30Z</time>
      </trkpt>
      <trkpt lat="44.99242" lon="3.68268">
        <ele>880.756</ele>
        <time>2013-06-11T13:08:51Z</time>
      </trkpt>
      <trkpt lat="44.99241" lon="3.68268">
        <ele>881.259</ele>
        <time>2013-06-11T13:08:52Z</time>
      </trkpt>
      <trkpt lat="44.99239" lon="3.68268">
        <ele>882.114</ele>
        <time>2013-06-11T13:08:54Z</time>
      </trkpt>
      <trkpt lat="44.99221" lon="3.68271">
        <ele>883.107</ele>
        <time>2013-06-11T13:09:28Z</time>
      </trkpt>
      <trkpt lat="44.99214" lon="3.68265">
        <ele>883.689</ele>
        <time>2013-06-11T13:09:40Z</time>
      </trkpt>
      <trkpt lat="44.99207" lon="3.68262">
        <ele>883.142</ele>
        <time>2013-06-11T13:09:58Z</time>
      </trkpt>
      <trkpt lat="44.99199" lon="3.68257">
        <ele>883.646</ele>
        <time>2013-06-11T13:10:16Z</time>
      </trkpt>
      <trkpt lat="44.99178" lon="3.68236">
        <ele>885.579</ele>
        <time>2013-06-11T13:10:45Z</time>
      </trkpt>
      <trkpt lat="44.99164" lon="3.68223">
        <ele>886.088</ele>
        <time>2013-06-11T13:11:04Z</time>
      </trkpt>
      <trkpt lat="44.99146" lon="3.68207">
        <ele>886.094</ele>
        <time>2013-06-11T13:11:23Z</time>
      </trkpt>
      <trkpt lat="44.99123" lon="3.68191">
        <ele>885.544</ele>
        <time>2013-06-11T13:11:47Z</time>
      </trkpt>
      <trkpt lat="44.99102" lon="3.68179">
        <ele>886.062</ele>
        <time>2013-06-11T13:12:06Z</time>
      </trkpt>
      <trkpt lat="44.99084" lon="3.68168">
        <ele>886.583</ele>
        <time>2013-06-11T13:12:26Z</time>
      </trkpt>
      <trkpt lat="44.99081" lon="3.68165">
        <ele>886.511</ele>
        <time>2013-06-11T13:12:29Z</time>
      </trkpt>
      <trkpt lat="44.99069" lon="3.68153">
        <ele>887.407</ele>
        <time>2013-06-11T13:12:45Z</time>
      </trkpt>
      <trkpt lat="44.99065" lon="3.68148">
        <ele>887.99</ele>
        <time>2013-06-11T13:12:50Z</time>
      </trkpt>
      <trkpt lat="44.99054" lon="3.68129">
        <ele>888.933</ele>
        <time>2013-06-11T13:13:06Z</time>
      </trkpt>
      <trkpt lat="44.99047" lon="3.68116">
        <ele>889.857</ele>
        <time>2013-06-11T13:13:20Z</time>
      </trkpt>
      <trkpt lat="44.9904" lon="3.68103">
        <ele>890.89</ele>
        <time>2013-06-11T13:13:51Z</time>
      </trkpt>
      <trkpt lat="44.9903" lon="3.68087">
        <ele>890.319</ele>
        <time>2013-06-11T13:14:10Z</time>
      </trkpt>
      <trkpt lat="44.99016" lon="3.68069">
        <ele>889.855</ele>
        <time>2013-06-11T13:14:29Z</time>
      </trkpt>
      <trkpt lat="44.99005" lon="3.68051">
        <ele>890.325</ele>
        <time>2013-06-11T13:14:48Z</time>
      </trkpt>
      <trkpt lat="44.98991" lon="3.68036">
        <ele>890.397</ele>
        <time>2013-06-11T13:15:04Z</time>
      </trkpt>
      <trkpt lat="44.98978" lon="3.68018">
        <ele>889.423</ele>
        <time>2013-06-11T13:15:23Z</time>
      </trkpt>
      <trkpt lat="44.98968" lon="3.68003">
        <ele>888.925</ele>
        <time>2013-06-11T13:15:41Z</time>
      </trkpt>
      <trkpt lat="44.98961" lon="3.67992">
        <ele>887.407</ele>
        <time>2013-06-11T13:16:30Z</time>
      </trkpt>
      <trkpt lat="44.98951" lon="3.67975">
        <ele>887.063</ele>
        <time>2013-06-11T13:16:47Z</time>
      </trkpt>
      <trkpt lat="44.98945" lon="3.67964">
        <ele>886.096</ele>
        <time>2013-06-11T13:16:57Z</time>
      </trkpt>
      <trkpt lat="44.98945" lon="3.6795">
        <ele>886.09</ele>
        <time>2013-06-11T13:17:07Z</time>
      </trkpt>
      <trkpt lat="44.98953" lon="3.67939">
        <ele>885.043</ele>
        <time>2013-06-11T13:17:23Z</time>
      </trkpt>
      <trkpt lat="44.98955" lon="3.67937">
        <ele>884.642</ele>
        <time>2013-06-11T13:17:25Z</time>
      </trkpt>
      <trkpt lat="44.98971" lon="3.67913">
        <ele>882.188</ele>
        <time>2013-06-11T13:17:48Z</time>
      </trkpt>
      <trkpt lat="44.9897" lon="3.67908">
        <ele>882.188</ele>
        <time>2013-06-11T13:17:53Z</time>
      </trkpt>
      <trkpt lat="44.98982" lon="3.67899">
        <ele>880.765</ele>
        <time>2013-06-11T13:18:07Z</time>
      </trkpt>
      <trkpt lat="44.98997" lon="3.6788">
        <ele>879.768</ele>
        <time>2013-06-11T13:18:28Z</time>
      </trkpt>
      <trkpt lat="44.99006" lon="3.67856">
        <ele>879.314</ele>
        <time>2013-06-11T13:18:45Z</time>
      </trkpt>
      <trkpt lat="44.99003" lon="3.67833">
        <ele>878.807</ele>
        <time>2013-06-11T13:19:03Z</time>
      </trkpt>
      <trkpt lat="44.99015" lon="3.67839">
        <ele>879.71</ele>
        <time>2013-06-11T13:19:24Z</time>
      </trkpt>
      <trkpt lat="44.99014" lon="3.6784">
        <ele>879.353</ele>
        <time>2013-06-11T13:19:57Z</time>
      </trkpt>
    </trkseg>
  </trk>
</gpx>